     2.11           OBSERVATION DATA    G (GPS)             RINEX VERSION / TYPE
teqc 2010Oct21 OPUS Account 20111025 17:47:00UTC            PGM / RUN BY / DATE
L 1521                                                      MARKER NAME
1145                                                        MARKER NUMBER
CSMIDDLETON NGS                                             OBSERVER / AGENCY
0220390627 TRIMBLE R7 2.32                                  REC # / TYPE / VERS
60124849 TRM41249.00 NONE                                   ANT # / TYPE
  -737537.4431 -5467180.6071  3190575.9204                  APPROX POSITION XYZ
        2.0010        0.0000        0.0000                  ANTENNA: DELTA H/E/N
     1     1                                                WAVELENGTH FACT L1/2
     5    L1    L2    C1    P1    P2                        # / TYPES OF OBSERV
    15                                                      LEAP SECONDS
  2011     7    25     0     0   30.0000000     GPS         TIME OF FIRST OBS
                                                            END OF HEADER
 11  7 25  0  0 30.0000000  0  8G09G28G10G17G04G20G27G02
 -15967172.55157 -12411375.51254  22348594.8444                   22348594.2704
 -53274701.84458 -41488746.62555  21616874.3364                   21616872.1524
  -4939073.82456  -3840723.64153  24024927.9384                   24024930.0554
 -44684631.84058 -34787820.39856  21243097.9064                   21243095.5474
 -38023871.08658 -29595190.29356  20032709.5004                   20032707.7814
 -11336809.10956  -8662341.12553  24078107.4384                   24078107.1684
 -24779000.73458 -19279699.52755  22502386.1484                   22502385.4614
 -15852488.30157 -12320705.13355  22738706.1644                   22738704.1054
 11  7 25  0  1  0.0000000  0  8G09G28G10G17G04G20G27G02
 -16055346.18047 -12480082.21945  22331815.5234                   22331815.0394
 -53278307.44948 -41491556.21145  21616187.9454                   21616185.9024
  -5078757.90246  -3949568.19943  23998346.6954                   23998348.0984
 -44701453.44948 -34800928.16046  21239896.6644                   21239894.6884
 -38098590.65248 -29653413.32846  20018490.9924                   20018488.6024
 -11360347.12146  -8680682.41043  24073627.9304                   24073628.0784
 -24846784.85547 -19332518.32845  22489487.3674                   22489486.8244
 -15984639.18047 -12423679.75845  22713558.7344                   22713556.3674
 11  7 25  0  1 30.0000000  0  8G09G28G10G17G04G20G27G02
 -16142860.14847 -12548274.90645  22315163.0474                   22315162.2194
 -53281498.16848 -41494042.50446  21615580.7584                   21615578.4654
  -5218425.96546  -4058400.26243  23971768.8054                   23971770.2774
 -44718119.02047 -34813914.32846  21236725.1174                   21236723.4224
 -38172689.78148 -29711152.89146  20004390.3524                   20004388.4694
 -11383332.18446  -8698592.83243  24069254.4384                   24069253.6484
 -24914033.22347 -19384919.64545  22476690.6484                   22476689.3634
 -16116487.89847 -12526418.93745  22688468.1954                   22688466.5594
 11  7 25  0  2  0.0000000  0  8G09G28G10G17G04G20G27G02
 -16229722.12147 -12615959.53145  22298633.2504                   22298632.5004
 -53284281.99248 -41496211.75045  21615051.3444                   21615049.3054
  -5358083.33246  -4167223.98843  23945191.9844                   23945194.8164
 -44734637.65647 -34826786.00446  21233581.9064                   21233579.7664
 -38246176.62148 -29768415.35546  19990406.1644                   19990404.3754
 -11405773.19946  -8716079.33643  24064983.2734                   24064983.7274
 -24980753.78947 -19436909.68745  22463993.7034                   22463993.0864
 -16248041.39547 -12628928.07845  22663434.2734                   22663433.0434
 11  7 25  0  2 30.0000000  0  8G09G28G10G17G04G20G27G02
 -16315939.94147 -12683142.21945  22282226.7274                   22282225.5124
 -53286668.40248 -41498071.31245  21614596.8524                   21614594.6844
  -5497736.86746  -4276044.73043  23918616.7814                   23918618.7274
 -44751019.66848 -34839551.19546  21230464.6804                   21230462.4574
 -38319060.45348 -29825207.93046  19976536.6484                   19976535.0274
 -11427679.81246  -8733149.40643  24060814.7734                   24060814.6094
 -25046955.71547 -19488495.58645  22451396.0554                   22451395.1454
 -16379307.71947 -12731213.44145  22638455.0084                   22638452.9804
 11  7 25  0  3  0.0000000  0  8G09G28G10G17G04G20G27G02
 -16401503.48447 -12749815.08245  22265944.7194                   22265943.6844
 -53288647.64548 -41499613.60245  21614220.1564                   21614218.2814
  -5637374.59846  -4384853.17243  23892044.8284                   23892046.4694
 -44767256.68448 -34852203.41846  21227374.9534                   21227372.6684
 -38391331.98848 -29881523.39546  19962784.0004                   19962782.3524
 -11449042.80546  -8749795.85543  24056749.8984                   24056749.6094
 -25112629.71947 -19539670.10945  22438898.4224                   22438897.4964
 -16510276.42647 -12833266.90245  22613532.7734                   22613530.7234
 11  7 25  0  3 30.0000000  0  8G09G28G10G17G04G20G27G02
 -16486398.75447 -12815967.19945  22249789.5784                   22249788.3714
 -53290207.19148 -41500828.85545  21613924.0554                   21613921.5984
  -5776980.62946  -4493636.86343  23865478.8054                   23865480.3874
 -44783336.19548 -34864732.90246  21224314.9454                   21224312.8014
 -38462978.02748 -29937351.45746  19949150.3444                   19949148.3164
 -11469849.88346  -8766009.14843  24052790.3134                   24052789.5554
 -25177762.50447 -19590422.90645  22426504.2424                   22426503.5394
 -16640933.05147 -12935077.18045  22588669.6334                   22588667.1334
 11  7 25  0  4  0.0000000  0  8G09G28G10G17G04G20G27G02
 -16570623.96147 -12881597.19945  22233761.9534                   22233760.8954
 -53291345.81648 -41501716.11745  21613706.9304                   21613704.8754
  -5916551.51646  -4602393.18042  23838918.1094                   23838920.1804
 -44799258.05148 -34877139.55146  21221285.2034                   21221283.2974
 -38533998.01648 -29992691.68746  19935635.5634                   19935633.7894
 -11490100.39546  -8781788.77343  24048937.0314                   24048936.4804
 -25242352.93447 -19640753.08245  22414213.4844                   22414212.1454
 -16771275.44547 -13036642.59845  22563865.6334                   22563864.0984
 11  7 25  0  4 30.0000000  0  8G09G28G10G17G04G20G27G02
 -16654203.15247 -12946723.79745  22217857.3364                   22217856.7154
 -53292088.49648 -41502294.85245  21613565.8834                   21613563.6374
  -6056109.21946  -4711139.29743  23812361.8984                   23812363.1374
 -44815048.00448 -34889443.41046  21218280.2114                   21218278.2384
 -38604416.85248 -30047563.48046  19922235.5084                   19922233.4024
 -11509819.75046  -8797154.50843  24045184.8054                   24045183.8984
 -25306425.68447 -19690679.87145  22402020.3444                   22402019.3554
 -16901327.12547 -13137981.50045  22539118.1644                   22539115.6414
 11  7 25  0  5  0.0000000  0  8G09G28G10G17G04G20G27G02
 -16737121.88747 -13011335.74645  22202078.3134                   22202077.4384
 -53292421.58247 -41502554.41045  21613502.3204                   21613500.3524
  -6195637.59846  -4819862.52042  23785810.2194                   23785811.3014
 -44830693.36748 -34901634.59846  21215302.9844                   21215301.1414
 -38674221.03948 -30101956.32846  19908951.9694                   19908950.3134
 -11528995.14846  -8812096.35543  24041535.6254                   24041535.0864
 -25369967.68447 -19740193.08645  22389928.6484                   22389928.1054
 -17031073.61448 -13239082.59745  22514427.7894                   22514425.3714
 11  7 25  0  5 30.0000000  0  8G09G28G10G17G04G20G27G02
 -16819387.74247 -13075438.97745  22186423.2734                   22186423.2304
 -53292353.88747 -41502501.68045  21613515.3754                   21613513.2424
  -6335142.59846  -4928567.53543  23759263.1174                   23759264.7774
 -44846203.41848 -34913720.34846  21212351.5394                   21212349.3594
 -38743419.30548 -30155877.03546  19895783.5474                   19895782.1174
 -11547635.39846  -8826621.21943  24037988.7974                   24037987.8754
 -25432987.23047 -19789299.20745  22377936.5084                   22377935.5204
 -17160522.10947 -13339951.49645  22489794.8834                   22489792.4774
 11  7 25  0  6  0.0000000  0  8G09G28G10G17G04G20G27G02
 -16900990.90647 -13139025.81245  22170895.1334                   22170894.2974
 -53291876.10247 -41502129.39845  21613606.2894                   21613604.3094
  -6474612.66046  -5037245.38343  23732722.7814                   23732724.2154
 -44861569.90648 -34925694.24246  21209427.5234                   21209425.7114
 -38812002.72348 -30209318.62946  19882732.8984                   19882731.2304
 -11565732.43746  -8840722.77043  24034544.6564                   24034544.0944
 -25495475.53947 -19837991.37945  22366045.3284                   22366043.9304
 -17289662.25447 -13440580.10245  22465220.3834                   22465217.7504
 11  7 25  0  6 30.0000000  0  8G09G28G10G17G04G20G27G02
 -16981915.48447 -13202083.90245  22155495.3364                   22155495.1024
 -53290973.22747 -41501425.89145  21613777.8284                   21613776.0554
  -6614029.66846  -5145881.85943  23706192.9694                   23706193.7074
 -44876778.40648 -34937545.03146  21206532.9924                   21206531.4574
 -38879956.31248 -30262269.45746  19869801.6414                   19869799.9344
 -11583271.29746  -8854389.43443  24031206.8284                   24031207.1564
 -25557417.29747 -19886257.66445  22354258.3054                   22354257.7074
 -17418477.79347 -13540955.78545  22440706.6644                   22440705.4924
 11  7 25  0  7  0.0000000  0  8G09G28G10G17G04G20G27G02
 -17062162.55147 -13264614.05145  22140224.3284                   22140224.8364
 -53289646.81247 -41500392.35545  21614030.2344                   21614028.2464
  -6753392.39846  -5254476.03543  23679672.4924                   23679673.1484
 -44891831.41848 -34949274.66846  21203668.8914                   21203667.0164
 -38947282.06648 -30314731.05146  19856990.1094                   19856988.1094
 -11600254.36746  -8867623.04743  24027975.2584                   24027974.6334
 -25618814.20347 -19934099.39145  22342574.5634                   22342573.7304
 -17546969.07047 -13641078.78145  22416256.5164                   22416253.8914
 11  7 25  0  7 30.0000000  0  8G09G28G10G17G04G20G27G02
 -17141740.48847 -13326622.82445  22125081.6804                   22125081.1374
 -53287906.37147 -41499036.19545  21614361.4694                   21614359.5984
  -6892707.59846  -5363033.16443  23653161.7584                   23653162.6604
 -44906739.06648 -34960891.02746  21200832.0864                   21200830.5984
 -39013989.41448 -30366710.78146  19844296.0784                   19844294.3244
 -11616691.54346  -8880431.26643  24024848.1094                   24024846.7544
 -25679675.64547 -19981523.88345  22330993.4614                   22330992.0394
 -17675144.21547 -13740955.43045  22391865.5554                   22391863.2154
 11  7 25  0  8  0.0000000  0  8G09G28G10G17G04G20G27G02
 -17220654.60247 -13388114.32445  22110065.1564                   22110064.2774
 -53285757.80947 -41497362.02045  21614770.2114                   21614768.3834
  -7031978.20746  -5471555.58643  23626659.2274                   23626660.5084
 -44921507.97348 -34972399.27746  21198021.6334                   21198019.4804
 -39080084.65248 -30418213.54746  19831718.4534                   19831716.5314
 -11632589.33246  -8892819.13343  24021822.6484                   24021821.3914
 -25740007.53947 -20028535.73845  22319512.5314                   22319511.5084
 -17803008.13347 -13840589.57445  22367533.8754                   22367531.1454
 11  7 25  0  8 30.0000000  0  8G09G28G10G17G04G20G27G02
 -17298904.28947 -13449088.10945  22095174.7504                   22095173.5234
 -53283201.47747 -41495370.10545  21615256.9064                   21615254.8524
  -7171201.76246  -5580041.30143  23600165.9384                   23600167.0474
 -44936138.86748 -34983799.98846  21195238.0004                   21195235.6334
 -39145567.98448 -30469239.50046  19819257.6254                   19819255.3714
 -11647948.28546  -8904787.10943  24018899.7814                   24018898.7304
 -25799810.12147 -20075135.15645  22308132.4454                   22308131.5204
 -17930559.62947 -13939980.27045  22343261.3594                   22343259.5354
 11  7 25  0  9  0.0000000  0  8G09G28G10G17G04G20G27G02
 -17376483.61347 -13509539.51645  22080411.8754                   22080410.7774
 -53280232.06648 -41493056.30545  21615822.1174                   21615819.8984
  -7310370.32446  -5688484.17243  23573683.1094                   23573683.6564
 -44950627.40248 -34995089.78146  21192480.6724                   21192478.6884
 -39210434.48448 -30519784.81246  19806913.7114                   19806911.7234
 -11662764.23446  -8916332.00843  24016080.3284                   24016079.3594
 -25859078.12947 -20121318.02745  22296854.0944                   22296853.0594
 -18057792.17647 -14039122.44145  22319049.7664                   22319047.3954
 11  7 25  0  9 30.0000000  0  8G09G28G10G17G04G20G27G02
 -17453391.92247 -13569468.07045  22065776.3754                   22065775.6954
 -53276849.80948 -41490420.81245  21616465.5704                   21616463.4694
  -7449481.29346  -5796882.18043  23547210.6024                   23547212.1134
 -44964973.98848 -35006268.94946  21189750.1564                   21189748.4534
 -39274684.53148 -30569849.76246  19794687.1094                   19794685.4844
 -11677037.70046  -8927454.17443  24013364.7894                   24013363.1524
 -25917811.74247 -20167084.48845  22285677.3054                   22285676.4694
 -18184704.68447 -14138015.22745  22294899.2114                   22294896.5514
 11  7 25  0 10  0.0000000  0  8G09G28G10G17G04G20G27G02
 -15954211.06647 -12401275.20345  22351061.1564                   22351060.1054
 -51697640.45347 -40259868.10545  21916979.0234                   21916977.5594
  -6013112.13346  -4677633.32843  23820542.6804                   23820543.5554
 -43403764.14148 -33789741.79346  21486838.8134                   21486837.0984
 -37762901.65648 -29391837.11746  20082370.1094                   20082367.9304
 -10115354.34446  -7710558.05543  24310542.7664                   24310542.3284
 -24400594.37547 -18984837.21545  22574393.8754                   22574393.4104
 -16735876.98447 -13009058.48845  22570601.3984                   22570598.9344
 11  7 25  0 10 30.0000000  0  8G09G28G10G17G04G20G27G02
 -16029774.61747 -12460155.88345  22336681.9924                   22336681.0314
 -51693432.20347 -40256588.98845  21917779.9064                   21917777.8324
  -6152097.74246  -4785933.69943  23794094.1644                   23794095.3674
 -43417828.74248 -33800701.21946  21484162.1094                   21484160.2154
 -37825919.07448 -29440941.58246  20070378.2114                   20070376.2664
 -10128544.34846  -7720836.01643  24308032.1484                   24308031.5234
 -24458259.00447 -19029770.69545  22563421.0084                   22563420.3594
 -16862145.18048 -13107449.21145  22546573.5004                   22546570.7304
 11  7 25  0 11  0.0000000  0  8G09G28G10G17G04G20G27G02
 -16104668.32047 -12518514.60945  22322429.9224                   22322428.6954
 -51688814.48847 -40252990.80545  21918658.5634                   21918656.5664
  -6291020.01646  -4894184.65643  23767658.2664                   23767659.3554
 -43431756.45348 -33811553.97346  21481512.2114                   21481510.0784
 -37888324.03548 -29489568.82046  20058502.9224                   20058501.0044
 -10141196.87146  -7730695.10943  24305624.9774                   24305624.1954
 -24515392.74647 -19074290.52045  22552548.9454                   22552548.0204
 -16988092.75048 -13205590.10245  22522606.7114                   22522603.3754
 11  7 25  0 11 30.0000000  0  8G09G28G10G17G04G20G27G02
 -16178881.55947 -12576343.10944  22308307.2274                   22308306.8284
 -51683777.19147 -40249065.68045  21919617.7504                   21919615.7854
  -6429865.66446  -5002375.95343  23741236.8984                   23741238.0004
 -43445537.68748 -33822292.59446  21478889.5314                   21478887.4224
 -37950106.60248 -29537711.06646  20046746.0784                   20046744.4264
 -10153302.65646  -7740128.17643  24303321.5314                   24303321.0394
 -24571985.52347 -19118388.79745  22541779.6254                   22541778.7304
 -17113708.34048 -13303472.32045  22498702.7894                   22498699.3014
 11  7 25  0 12  0.0000000  0  8G09G28G10G17G04G20G27G02
 -16252424.86747 -12633649.56645  22294312.9384                   22294311.9534
 -51678331.80547 -40244822.55945  21920653.6334                   21920652.0904
  -6568643.39846  -5110514.29343  23714828.1024                   23714828.6884
 -43459184.46548 -33832926.44546  21476293.0784                   21476290.7734
 -38011278.62548 -29585377.57046  20035105.3054                   20035103.3014
 -10164873.60546  -7749144.51643  24301119.9454                   24301118.3714
 -24628048.87547 -19162074.54345  22531111.1334                   22531110.7274
 -17239002.29748 -13401103.89145  22474859.9224                   22474856.9414
 11  7 25  0 12 30.0000000  0  8G09G28G10G17G04G20G27G02
 -16325298.68747 -12690434.33245  22280445.5704                   22280444.4654
 -51672479.07047 -40240262.01245  21921767.6564                   21921765.6254
  -6707351.30546  -5218598.22243  23688432.5084                   23688433.6524
 -43472698.23848 -33843456.65646  21473721.1954                   21473718.9304
 -38071841.37548 -29632569.30946  20023580.5394                   20023578.6294
 -10175911.52346  -7757745.53143  24299019.1024                   24299018.0434
 -24683583.76247 -19205348.49245  22520543.5084                   22520542.6684
 -17363974.00048 -13498484.35545  22451078.2734                   22451075.6214
 11  7 25  0 13  0.0000000  0  8G09G28G10G17G04G20G27G02
 -16397509.15647 -12746702.19545  22266704.2734                   22266703.5704
 -51666225.65647 -40235389.25845  21922957.7114                   21922955.5514
  -6845992.38746  -5326630.13343  23662049.8594                   23662050.6254
 -43486086.16848 -33853888.78946  21471173.6724                   21471171.5784
 -38131801.51248 -29679291.48446  20012170.5554                   20012168.7384
 -10186423.37146  -7765936.63343  24297018.8914                   24297018.0394
 -24738596.95347 -19248215.93045  22510074.3914                   22510073.6994
 -17488628.96148 -13595618.01645  22427356.8444                   22427354.6604
 11  7 25  0 13 30.0000000  0  8G09G28G10G17G04G20G27G02
 -16469046.52047 -12802445.57045  22253090.8444                   22253090.4184
 -51659562.75447 -40230197.40245  21924225.6334                   21924223.4654
  -6984554.87946  -5434600.75443  23635682.2504                   23635683.0434
 -43499339.51648 -33864216.06646  21468651.5474                   21468649.3094
 -38191150.49248 -29725537.43746  20000876.8364                   20000875.2504
 -10196400.87546  -7773711.32043  24295119.5394                   24295119.6254
 -24793079.32447 -19290669.74245  22499707.2814                   22499706.2464
 -17612956.55148 -13692496.57045  22403698.3134                   22403695.8714
 11  7 25  0 14  0.0000000  0  8G09G28G10G17G04G20G27G02
 -16539910.63747 -12857664.32845  22239606.0394                   22239605.3524
 -51652490.94547 -40224686.92645  21925571.0004                   21925569.2584
  -7123036.09046  -5542508.05543  23609330.1564                   23609330.9144
 -43512459.20348 -33874439.19546  21466154.7814                   21466152.7034
 -38249889.09048 -29771307.76646  19989699.4224                   19989697.3874
 -10205845.36346  -7781070.68443  24293322.9614                   24293321.9064
 -24847031.76647 -19332710.62145  22489440.2584                   22489439.8014
 -17736956.25848 -13789119.63745  22380102.2114                   22380100.2584
 11  7 25  0 14 30.0000000  0  8G09G28G10G17G04G20G27G02
 -16610095.06247 -12912353.47345  22226250.1414                   22226249.5394
 -51645004.21547 -40218853.13745  21926995.9614                   21926994.1024
  -7261427.25846  -5650345.21943  23582995.5634                   23582995.8364
 -43525439.91448 -33884554.04346  21463684.7274                   21463682.4384
 -38308011.89548 -29816598.25046  19978638.8054                   19978637.2974
 -10214751.72346  -7788010.68743  24291628.0864                   24291626.8914
 -24900448.56647 -19374334.12545  22479275.0394                   22479274.6684
 -17860620.80548 -13885481.54745  22356569.6174                   22356567.0664
 11  7 25  0 15  0.0000000  0  8G09G28G10G17G04G20G27G02
 -16679604.98847 -12966517.03545  22213022.7974                   22213022.0634
 -51637108.45347 -40212700.60945  21928498.3984                   21928496.4104
  -7399730.98046  -5758114.23044  23556676.3204                   23556677.6954
 -43538287.69948 -33894565.31646  21461240.2114                   21461237.6644
 -38365525.06648 -29861413.70346  19967694.3134                   19967692.6134
 -10223126.28146  -7794536.32043  24290034.7894                   24290033.8634
 -24953335.63747 -19415544.84845  22469211.0394                   22469210.8094
 -17983954.59448 -13981585.73445  22333099.7424                   22333097.2854
 11  7 25  0 15 30.0000000  0  8G09G28G10G17G04G20G27G02
 -16748447.14847 -13020160.26245  22199923.1024                   22199922.0664
 -51628810.79347 -40206234.92245  21930077.3914                   21930075.2934
  -7537951.32846  -5865818.25043  23530373.9454                   23530375.0164
 -43551010.10948 -33904478.89546  21458818.8834                   21458817.0704
 -38422435.93448 -29905759.82446  19956864.6724                   19956862.8524
 -10230976.94946  -7800653.75043  24288539.6254                   24288539.0554
 -25005700.11347 -19456348.36345  22459246.7034                   22459245.9414
 -18106963.73848 -14077436.94545  22309691.2894                   22309688.9104
 11  7 25  0 16  0.0000000  0  8G09G28G10G17G04G20G27G02
 -16816615.86347 -13073278.71545  22186951.0634                   22186949.9304
 -51620106.31647 -40199452.23445  21931733.5474                   21931731.5234
  -7676079.86346  -5973450.77344  23504089.3984                   23504089.5474
 -43563602.60248 -33914291.22346  21456422.8054                   21456420.4454
 -38478739.76648 -29949632.93446  19946150.6094                   19946148.8404
 -10238299.20346  -7806359.44143  24287147.0084                   24287145.9804
 -25057536.78147 -19496740.59445  22449382.7424                   22449381.9264
 -18229641.58648 -14173030.00445  22286346.9454                   22286344.3444
 11  7 25  0 16 30.0000000  0  8G09G28G10G17G04G20G27G02
 -16884091.65647 -13125857.25045  22174110.5944                   22174109.5394
 -51610975.77347 -40192337.55945  21933471.4384                   21933469.4804
  -7814094.52046  -6080994.56243  23477825.8444                   23477826.3284
 -43576045.89148 -33923987.30146  21454054.4534                   21454052.7854
 -38534417.78548 -29993018.39146  19935555.3984                   19935553.6454
 -10245074.65646  -7811639.06643  24285858.2734                   24285857.4884
 -25108826.72747 -19536706.78945  22439622.3204                   22439621.3164
 -18351967.62148 -14268348.91445  22263069.1094                   22263066.7544
 11  7 25  0 17  0.0000000  0  8G09G28G10G17G04G20G27G02
 -16950876.62947 -13177897.47345  22161402.1804                   22161401.0124
 -51601421.78147 -40184892.90245  21935289.4844                   21935287.6764
  -7951994.99246  -6188449.37544  23451584.0554                   23451584.9574
 -43588342.96948 -33933569.46546  21451714.6884                   21451712.8594
 -38589473.15248 -30035918.66446  19925078.3444                   19925077.0274
 -10251306.69146  -7816495.22343  24284671.9304                   24284671.3444
 -25159572.99247 -19576249.34845  22429965.4844                   22429965.2194
 -18473943.19948 -14363394.74645  22239858.3364                   22239855.0864
 11  7 25  0 17 30.0000000  0  8G09G28G10G17G04G20G27G02
 -17016988.71947 -13229413.38345  22148821.0704                   22148820.6644
 -51591463.09047 -40177132.91445  21937184.4774                   21937183.0474
  -8089796.16846  -6295826.84044  23425360.9614                   23425361.3284
 -43600513.24248 -33943052.82046  21449398.9844                   21449396.7504
 -38643924.76248 -30078348.48846  19914716.6174                   19914715.5514
 -10257014.85546  -7820943.12943  24283585.6414                   24283584.8014
 -25209794.16847 -19615382.74645  22420408.6884                   22420407.5164
 -18595585.60248 -14458180.97745  22216710.1094                   22216706.8054
 11  7 25  0 18  0.0000000  0  8G09G28G10G17G04G20G27G02
 -17082426.12147 -13280403.56645  22136369.1484                   22136367.8244
 -51581098.26247 -40169056.46145  21939157.0704                   21939155.0164
  -8227493.30146  -6403123.19943  23399158.7504                   23399159.2934
 -43612555.07848 -33952436.10246  21447107.4924                   21447105.2774
 -38697771.56648 -30120307.03546  19904470.1564                   19904468.5274
 -10262198.02346  -7824981.94143  24282599.3054                   24282598.8164
 -25259488.94947 -19654105.96945  22410952.2814                   22410951.1524
 -18716892.19548 -14552705.52045  22193626.2894                   22193622.7274
 11  7 25  0 18 30.0000000  0  8G09G28G10G17G04G20G27G02
 -17147185.78547 -13330865.65645  22124045.9694                   22124044.7894
 -51570324.71947 -40160661.51645  21941207.3364                   21941204.8404
  -8365080.47346  -6510333.89144  23372976.7344                   23372976.4964
 -43624465.84048 -33961717.23046  21444841.1724                   21444839.0004
 -38751011.16848 -30161792.43046  19894339.0084                   19894337.2304
 -10266854.37546  -7828610.28143  24281712.9224                   24281712.9534
 -25308654.87147 -19692417.08645  22401596.1804                   22401595.2974
 -18837858.75448 -14646965.09845  22170606.5234                   22170603.8524
 11  7 25  0 19  0.0000000  0  8G09G28G10G17G04G20G27G02
 -17211271.62147 -13380802.66845  22111850.5084                   22111849.7234
 -51559146.71147 -40151951.40245  21943334.2814                   21943332.2304
  -8502559.09446  -6617459.98843  23346815.0234                   23346814.9064
 -43636250.51248 -33970900.10946  21442598.6024                   21442595.9574
 -38803648.73048 -30202808.71546  19884322.3754                   19884321.0274
 -10270989.09446  -7831832.15643  24280926.4844                   24280926.0664
 -25357296.70747 -19730319.82045  22392339.7974                   22392339.2814
 -18958488.54348 -14740962.26645  22147651.4534                   22147648.7234
 11  7 25  0 19 30.0000000  0  8G09G28G10G17G04G20G27G02
 -17274681.48047 -13430212.94545  22099783.5634                   22099783.3794
 -51547562.82847 -40142925.03545  21945538.5084                   21945536.3164
  -8639924.05146  -6724497.51644  23320675.1644                   23320674.9454
 -43647907.26248 -33979983.31646  21440380.0864                   21440377.9494
 -38855682.73448 -30243354.68446  19874420.3364                   19874418.8834
 -10274601.53946  -7834647.05943  24280239.0554                   24280238.1254
 -25405412.77747 -19767812.87145  22383183.1484                   22383182.8794
 -19078778.77048 -14834694.82845  22124761.1954                   22124758.4184
 11  7 25  0 20  0.0000000  0  8G09G28G10G17G04G20G27G02
 -17337400.83247 -13479085.18045  22087848.5554                   22087847.9964
 -51535558.68747 -40133571.19945  21947822.8914                   21947821.0204
  -8777157.74246  -6831432.77044  23294560.4224                   23294560.5204
 -43659422.19948 -33988956.00446  21438189.1334                   21438186.9104
 -38907099.28948 -30283419.52746  19864636.2034                   19864634.7854
 -10277678.00046  -7837044.33243  24279653.3204                   24279652.8164
 -25452989.12947 -19804885.37145  22374130.4694                   22374129.4774
 -19198713.33648 -14928150.25446  22101938.2274                   22101935.7934
 11  7 25  0 20 30.0000000  0  8G09G28G10G17G04G20G27G02
 -17399435.18747 -13527423.64545  22076044.3134                   22076043.0274
 -51523140.28147 -40123894.54745  21950186.0084                   21950184.0274
  -8914262.87846  -6938267.81844  23268469.5474                   23268469.7854
 -43670801.50048 -33997823.00446  21436023.5164                   21436021.4774
 -38957904.88748 -30323008.30146  19854968.5634                   19854966.8054
 -10280225.07846  -7839029.07443  24279168.8364                   24279168.0664
 -25500032.03947 -19841542.19545  22365178.3834                   22365177.7814
 -19318296.67648 -15021331.99646  22079182.3754                   22079179.8634
 11  7 25  0 21  0.0000000  0  8G09G28G10G17G04G20G27G02
 -17460790.79347 -13575233.22345  22064368.5864                   22064367.7464
 -51510314.29747 -40113900.30945  21952626.9534                   21952624.7384
  -9051242.33646  -7045004.96943  23242403.6564                   23242403.4694
 -43682051.53547 -34006589.28146  21433882.5314                   21433880.6994
 -39008106.55948 -30362126.48046  19845415.3594                   19845413.7624
 -10282250.09046  -7840607.00443  24278783.4384                   24278783.0984
 -25546547.90647 -19877788.33645  22356326.4844                   22356325.9574
 -19437534.21148 -15114244.28946  22056492.2274                   22056489.4694
 11  7 25  0 21 30.0000000  0  8G09G28G10G17G04G20G27G02
 -17521463.07447 -13622510.34045  22052823.0704                   22052822.1644
 -51497076.59847 -40103585.26245  21955146.0784                   21955143.7114
  -9188088.76646  -7151638.43644  23216362.4454                   23216363.1844
 -43693168.77747 -34015252.07846  21431767.0634                   21431765.1374
 -39057700.65248 -30400771.21946  19835977.8984                   19835976.2114
 -10283749.62546  -7841775.51643  24278498.1644                   24278497.8404
 -25592532.96547 -19913620.86745  22347576.0234                   22347575.5004
 -19556420.95748 -15206883.23446  22033868.8364                   22033865.8984
 11  7 25  0 22  0.0000000  0  8G09G28G10G17G04G20G27G02
 -17581453.93447 -13669256.48045  22041406.5784                   22041405.6374
 -51483429.25847 -40092951.00845  21957743.0084                   21957740.7624
  -9324801.02046  -7258167.34844  23190346.6334                   23190347.4344
 -43704155.05947 -34023812.82046  21429676.6414                   21429674.8554
 -39106689.66848 -30438944.47746  19826655.5234                   19826653.6484
 -10284726.60246  -7842536.81243  24278312.6564                   24278311.3134
 -25637989.52347 -19949041.58245  22338925.8364                   22338924.8874
 -19674957.18448 -15299249.05546  22011311.7584                   22011309.3634
 11  7 25  0 22 30.0000000  0  8G09G28G10G17G04G20G27G02
 -17640763.41047 -13715471.66445  22030121.0004                   22030120.2704
 -51469372.74647 -40081997.91445  21960417.7734                   21960415.9304
  -9461376.07846  -7364589.36744  23164357.6414                   23164357.6524
 -43715010.68047 -34032271.75846  21427610.7504                   21427608.7344
 -39155074.54748 -30476646.96546  19817448.1644                   19817446.2154
 -10285182.43046  -7842891.97343  24278225.5634                   24278224.6764
 -25682918.12147 -19984050.90645  22330376.2424                   22330375.5944
 -19793141.89548 -15391340.96946  21988821.7114                   21988819.0824
 11  7 25  0 23  0.0000000  0  8G09G28G10G17G04G20G27G02
 -17699386.84447 -13761152.28145  22018965.2034                   22018963.9184
 -51454902.77347 -40070722.64145  21963171.5784                   21963169.8674
  -9597806.05146  -7470898.32044  23138395.6024                   23138396.2074
 -43725731.16047 -34040625.37146  21425570.5314                   21425568.8054
 -39202851.29748 -30513875.59046  19808356.5394                   19808354.6334
 -10285113.54346  -7842838.31643  24278238.6884                   24278238.1454
 -25727314.88747 -20018645.80945  22321927.8914                   22321927.4924
 -19910969.36748 -15483154.52746  21966400.4384                   21966397.6094
 11  7 25  0 23 30.0000000  0  8G09G28G10G17G04G20G27G02
 -17757327.54347 -13806300.88745  22007939.2734                   22007938.4304
 -51440023.07847 -40059128.10545  21966002.9224                   21966001.1644
  -9734091.14146  -7577094.38344  23112461.7974                   23112461.7664
 -43736320.36347 -34048876.69546  21423555.9614                   21423553.7304
 -39250024.16848 -30550633.66446  19799380.0314                   19799378.1134
 -10284524.12946  -7842379.05943  24278350.9454                   24278350.0824
 -25771183.55547 -20052829.22345  22313580.6334                   22313579.5514
 -20028442.11748 -15574691.67246  21944045.8284                   21944042.8244
 11  7 25  0 24  0.0000000  0  8G09G28G10G17G04G20G27G02
 -17814580.08647 -13850913.27745  21997044.5554                   21997043.4264
 -51424728.49247 -40047210.27745  21968913.5234                   21968911.8914
  -9870222.71547  -7683170.82444  23086556.6954                   23086556.8754
 -43746773.35547 -34057021.89146  21421566.6644                   21421564.8324
 -39296588.36748 -30586917.44146  19790518.9224                   19790517.2624
 -10283409.71546  -7841510.66843  24278563.0944                   24278562.4964
 -25814519.22347 -20086597.32045  22305333.3754                   22305332.5204
 -20145553.28948 -15665947.06646  21921760.0784                   21921757.5514
 11  7 25  0 24 30.0000000  0  8G09G28G10G17G04G20G27G02
 -17871150.92247 -13894994.47745  21986279.4924                   21986278.5864
 -51409025.45747 -40034974.17645  21971901.6254                   21971900.0864
 -10006203.91446  -7789130.09044  23060679.8204                   23060680.2544
 -43757096.53947 -34065065.93746  21419601.7034                   21419600.3204
 -39342551.13348 -30622732.57446  19781772.5864                   19781770.6524
 -10281778.02046  -7840239.21543  24278873.9064                   24278873.0864
 -25857328.64147 -20119955.33245  22297186.9924                   22297186.1484
 -20262308.14148 -15756924.82445  21899542.2584                   21899539.3244
 11  7 25  0 25  0.0000000  0  9G12G09G28G10G17G04G20G27G02
   1369918.02356   1094463.62553  24534296.0234                   24534295.6914
 -17927024.44947 -13938532.30545  21975647.0474                   21975646.4694
 -51392898.70347 -40022407.91045  21974970.2194                   21974968.4454
 -10142015.98046  -7894957.59044  23034835.3754                   23034835.7664
 -43767274.55548 -34072996.86746  21417665.1254                   21417663.5744
 -39387897.60248 -30658067.47346  19773143.4144                   19773141.8094
 -10279614.61046  -7838553.44843  24279285.5474                   24279283.8554
 -25899596.82447 -20152891.62945  22289144.1954                   22289142.9614
 -20378690.14148 -15847612.04745  21877395.3594                   21877392.2934
 11  7 25  0 25 30.0000000  0  9G12G09G28G10G17G04G20G27G02
   1229489.05546    985038.48843  24507572.7034                   24507573.4414
 -17982216.50447 -13981539.12945  21965144.5084                   21965143.1884
 -51376364.75047 -40009524.34845  21978116.8134                   21978114.9964
 -10277671.50746  -8000663.09144  23009021.4534                   23009021.7664
 -43777323.28148 -34080827.03946  21415753.4064                   21415751.2894
 -39432644.27748 -30692935.00446  19764628.2424                   19764626.7504
 -10276936.16446  -7836466.37943  24279795.3524                   24279794.5004
 -25941340.05947 -20185418.85945  22281200.5164                   22281199.7114
 -20494713.91848 -15938020.13345  21855317.0634                   21855313.6644
 11  7 25  0 26  0.0000000  0  9G12G09G28G10G17G04G20G27G02
   1089075.52047    875625.33243  24480854.0474                   24480854.3284
 -18036730.32447 -14024017.44945  21954771.0164                   21954769.5124
 -51359426.91047 -39996326.07445  21981340.1724                   21981338.0594
 -10413170.26246  -8106246.44144  22983236.2034                   22983237.1764
 -43787246.35548 -34088559.30546  21413864.7034                   21413862.5514
 -39476795.54748 -30727338.57846  19756226.7114                   19756224.9574
 -10273746.80946  -7833981.16442  24280400.8674                   24280401.3134
 -25982562.14147 -20217540.00045  22273356.0704                   22273355.4264
 -20610381.83648 -16028150.93446  21833306.2274                   21833303.1724
 11  7 25  0 26 30.0000000  0  9G12G09G28G10G17G04G20G27G02
    948673.38347    766221.04743  24454136.2034                   24454136.2234
 -18090571.71947 -14065971.81645  21944525.0234                   21944523.8794
 -51342091.13747 -39982817.72345  21984638.9384                   21984637.2544
 -10548514.78146  -8211709.62544  22957481.3284                   22957480.9574
 -43797049.44947 -34096198.08646  21411999.0944                   21411997.1954
 -39520357.75448 -30761283.14546  19747937.1954                   19747935.3014
 -10270053.57846  -7831103.34443  24281104.6804                   24281104.4344
 -26023269.22747 -20249259.84445  22265610.0164                   22265609.3364
 -20725698.05548 -16118007.67645  21811361.9614                   21811359.3794
 11  7 25  0 27  0.0000000  0  9G12G09G28G10G17G04G20G27G02
    808281.51647    656824.64543  24427420.7034                   24427420.3524
 -18143743.60547 -14107404.47745  21934406.9304                   21934405.6334
 -51324360.63347 -39969001.79345  21988012.9304                   21988010.7894
 -10683704.24646  -8317051.98044  22931755.3444                   22931756.1954
 -43806734.81647 -34103745.13746  21410156.1564                   21410154.3134
 -39563334.36748 -30794771.40646  19739758.9694                   19739757.3954
 -10265860.20346  -7827835.76643  24281902.8134                   24281902.2814
 -26063464.71547 -20280581.03945  22257961.0234                   22257960.0664
 -20840664.15248 -16207591.60245  21789484.7734                   21789481.3794
 11  7 25  0 27 30.0000000  0  9G12G09G28G10G17G04G20G27G02
    667905.53547    547440.73043  24400708.1334                   24400706.8874
 -18196242.60547 -14148312.82845  21924416.5084                   21924415.3364
 -51306232.00047 -39954875.61745  21991462.9304                   21991461.0864
 -10818731.63347  -8422268.03544  22906060.8594                   22906060.6604
 -43816299.71947 -34111198.32046  21408335.8834                   21408333.9884
 -39605722.59848 -30827801.18446  19731692.7504                   19731690.8914
 -10261164.42246  -7824176.71543  24282796.2114                   24282795.9494
 -26103145.55547 -20311501.19545  22250409.9774                   22250409.2894
 -20955275.41048 -16296899.01646  21767674.8444                   21767671.7194
 11  7 25  0 28  0.0000000  0  9G12G09G28G10G17G04G20G27G02
   2102974.45347   1665676.29344  24673792.3914                   24673792.6994
 -16672644.37147 -12961093.44145  22214347.7584                   22214346.7974
 -49712283.55147 -38712837.90645  22294781.3284                   22294779.1054
  -9378166.71547  -7299749.83244  23180190.9224                   23180190.9694
 -42250321.25847 -32890955.36346  21706332.1644                   21706330.3014
 -38072099.44548 -29632770.14146  20023531.4304                   20023529.7734
  -8680544.85246  -6592525.13342  24583578.3834                   24583577.6294
 -24566888.35547 -19114417.67645  22542750.4144                   22542749.1564
 -19494104.68048 -15158324.37146  22045726.5784                   22045723.4924
 11  7 25  0 28 30.0000000  0  9G12G09G28G10G17G04G20G27G02
   1962642.05546   1556326.44943  24647087.4844                   24647088.0234
 -16723791.02047 -13000948.00445  22204615.0784                   22204614.1994
 -49693352.89847 -38698086.79345  22298383.2974                   22298381.9804
  -9512853.76647  -7404700.71544  23154560.7734                   23154560.8874
 -42259638.49647 -32898215.55546  21704559.0704                   21704557.0904
 -38113306.87548 -29664879.81646  20015689.9304                   20015688.1604
  -8674840.56646  -6588080.25842  24584663.8754                   24584662.5864
 -24605534.97747 -19144531.94145  22535395.9454                   22535394.9694
 -19607996.64848 -15247071.30946  22024053.5704                   22024050.5944
 11  7 25  0 29  0.0000000  0  9G12G09G28G10G17G04G20G27G02
   1822338.28546   1446998.94543  24620388.4774                   24620388.6724
 -16774257.39547 -13040272.45345  22195011.5944                   22195010.9104
 -49674017.46547 -38683020.26245  22302062.9694                   22302060.9924
  -9647361.19147  -7509511.61344  23128964.6564                   23128964.6684
 -42268827.53947 -32905375.85946  21702810.1724                   21702808.3284
 -38153920.83248 -29696527.04746  20007961.2424                   20007959.5314
  -8668629.41846  -6583240.44943  24585845.3364                   24585844.7274
 -24643661.01647 -19174240.55945  22528141.2344                   22528140.1884
 -19721522.86748 -15335533.25046  22002450.1884                   22002447.0004
 11  7 25  0 29 30.0000000  0  9G12G09G28G10G17G04G20G27G02
   1682065.28946   1337695.45343  24593694.5314                   24593694.9844
 -16824043.65247 -13079066.95745  22185537.6174                   22185537.0744
 -49654277.11347 -38667638.20745  22305819.1884                   22305817.2154
  -9781685.52047  -7614179.82444  23103402.8594                   23103403.0824
 -42277888.28147 -32912436.19946  21701086.3524                   21701084.4964
 -38193941.88748 -29727712.27346  20000345.5474                   20000343.8404
  -8661912.09446  -6578006.16042  24587123.5394                   24587122.9064
 -24681266.73047 -19203543.71545  22520984.8594                   22520983.4224
 -19834682.19148 -15423709.28146  21980916.8054                   21980913.6994
 11  7 25  0 30  0.0000000  0  9G12G09G28G10G17G04G20G27G02
   1541833.15646   1228423.83243  24567009.6334                   24567009.1454
 -16873141.25447 -13117324.82845  22176194.6174                   22176193.8524
 -49634123.73447 -38651934.31245  22309654.6094                   22309652.2894
  -9915814.29747  -7718695.69944  23077879.5004                   23077879.7734
 -42286811.65247 -32919389.48046  21699388.1644                   21699385.9264
 -38233362.33648 -29758429.48046  19992844.2584                   19992842.3094
  -8654681.54346  -6572371.98043  24588499.9454                   24588499.1454
 -24718344.18047 -19232435.23045  22513929.1564                   22513928.2814
 -19947464.18048 -15511591.30146  21959454.8834                   21959451.9534
 11  7 25  0 30 30.0000000  0  9G12G09G28G10G17G04G20G27G02
   1401631.60546   1119176.01243  24540330.2344                   24540329.3014
 -16921562.88347 -13155055.97745  22166980.2504                   22166979.1214
 -49613569.93747 -38635918.41445  22313565.9774                   22313564.2034
 -10049756.86747  -7823066.45344  23052391.3754                   23052390.9734
 -42295610.64547 -32926245.85946  21697713.8914                   21697711.4804
 -38272195.59848 -29788689.15246  19985454.2344                   19985452.1994
  -8646951.18046  -6566348.33642  24589970.6644                   24589970.3324
 -24754906.46947 -19260925.31245  22506971.7664                   22506970.7854
 -20059880.66048 -15599188.50046  21938062.8984                   21938059.8874
 11  7 25  0 31  0.0000000  0  9G12G09G28G10G17G04G20G27G02
   1261470.30146   1009959.56343  24513657.9614                   24513657.0554
 -16969301.11347 -13192254.59045  22157895.9064                   22157894.7734
 -49592608.70747 -38619585.02045  22317554.7274                   22317553.1884
 -10183501.94947  -7927283.32044  23026940.4064                   23026940.1914
 -42304277.28947 -32932999.09446  21696064.7194                   21696062.5274
 -38310434.85248 -29818485.96546  19978177.6644                   19978175.9344
  -8638714.21146  -6559929.90643  24591538.1414                   24591537.5354
 -24790946.40647 -19289008.36745  22500113.5634                   22500112.8284
 -20171922.83248 -15686494.02746  21916741.7664                   21916738.7234
 11  7 25  0 31 30.0000000  0  9G12G09G28G10G17G04G20G27G02
   1121352.54746    900777.05143  24486995.1484                   24486993.6134
 -17016354.55547 -13228919.60545  22148941.9774                   22148940.8914
 -49571238.44947 -38602932.90645  22321621.4064                   22321619.6724
 -10317044.37147  -8031342.28544  23001528.5864                   23001528.0314
 -42312809.85247 -32939647.86746  21694440.7504                   21694438.6604
 -38348079.20748 -29847819.21546  19971014.0944                   19971012.1804
  -8629970.39546  -6553116.53943  24593203.0084                   24593201.4734
 -24826463.07447 -19316683.68445  22493355.3834                   22493354.0234
 -20283588.14848 -15773505.91046  21895492.5554                   21895489.4104
 11  7 25  0 32  0.0000000  0  9G12G09G28G10G17G04G20G27G02
    981277.94946    791628.07843  24460339.1174                   24460337.1334
 -17062725.79747 -13265053.03145  22140117.6954                   22140116.8404
 -49549461.71947 -38585964.04745  22325765.3754                   22325763.4064
 -10450383.02347  -8135242.45744  22976154.0084                   22976154.4344
 -42321210.42647 -32946193.78946  21692842.2344                   21692840.4614
 -38385131.76648 -29876691.32446  19963962.9454                   19963961.6764
  -8620723.10246  -6545910.85943  24594962.2194                   24594961.1414
 -24861459.42647 -19343953.55545  22486695.4454                   22486694.4574
 -20394877.20348 -15860224.59846  21874314.7974                   21874311.6644
 11  7 25  0 32 30.0000000  0  9G12G09G28G10G17G04G20G27G02
    841242.72747    682509.80943  24433691.8834                   24433690.0824
 -17108420.80547 -13300659.52345  22131422.3674                   22131421.4924
 -49527284.90647 -38568683.45745  22329985.5164                   22329983.3984
 -10583520.25047  -8238985.67644  22950819.1724                   22950819.0474
 -42329484.80147 -32952641.37546  21691267.7114                   21691266.0594
 -38421599.44148 -29905107.68446  19957023.4614                   19957021.9844
  -8610979.03546  -6538318.08243  24596816.8054                   24596815.5984
 -24895941.77047 -19370822.89845  22480133.6334                   22480133.2504
 -20505794.50048 -15946653.61346  21853207.9924                   21853205.1174
 11  7 25  0 33  0.0000000  0  9G12G09G28G10G17G04G20G27G02
    701249.67647    573424.37543  24407051.7504                   24407050.4924
 -17153439.00447 -13335738.64145  22122855.4614                   22122854.5704
 -49504707.69947 -38551090.84845  22334281.4384                   22334279.5044
 -10716451.93047  -8342568.73844  22925523.3204                   22925523.1094
 -42337632.09048 -32958989.91446  21689717.6414                   21689715.2074
 -38457482.53148 -29933068.52046  19950195.2344                   19950193.9654
  -8600739.02346  -6530338.85243  24598764.2584                   24598764.2154
 -24929910.13347 -19397291.73045  22473669.8984                   22473668.8674
 -20616338.63748 -16032791.84046  21832171.8674                   21832168.7544
 11  7 25  0 33 30.0000000  0  9G12G09G28G10G17G04G20G27G02
    561304.04647    464375.95144  24380419.9384                   24380420.6094
 -17197777.69947 -13370288.27745  22114418.8054                   22114417.2194
 -49481726.74647 -38533183.64145  22338655.0704                   22338653.2344
 -10849171.03547  -8445986.14544  22900267.6334                   22900267.6564
 -42345648.98448 -32965236.85246  21688191.8284                   21688189.7704
 -38492778.42648 -29960571.80946  19943479.0784                   19943477.1294
  -8590000.65246  -6521971.32443  24600807.7194                   24600807.4104
 -24963361.77747 -19423357.94545  22467303.9694                   22467302.9614
 -20726505.13348 -16118635.80946  21811207.9454                   21811204.6884
 11  7 25  0 34  0.0000000  0  9G12G09G28G10G17G04G20G27G02
    421402.32047    355361.71944  24353798.5944                   24353798.2584
 -17241442.79747 -13404313.03545  22106109.5164                   22106108.1134
 -49458348.15247 -38514966.58245  22343103.3914                   22343101.4534
 -10981679.67647  -8549239.55544  22875051.8674                   22875051.7154
 -42353540.99647 -32971386.49646  21686689.8134                   21686687.8594
 -38527493.74248 -29987622.69946  19936873.0864                   19936871.1374
  -8578770.82846  -6513220.82043  24602945.6884                   24602944.5474
 -24996302.95347 -19449026.39545  22461035.3834                   22461034.5124
 -20836298.16448 -16204188.78146  21790315.0784                   21790312.0204
 11  7 25  0 34 30.0000000  0  9G12G09G28G10G17G04G20G27G02
    281545.55547    246382.50044  24327185.0704                   24327184.3404
 -17284435.25447 -13437813.64845  22097927.9144                   22097926.8914
 -49434572.82047 -38496440.37945  22347628.2114                   22347626.2384
 -11113974.86347  -8652326.63744  22849877.0784                   22849877.2584
 -42361308.29347 -32977438.95346  21685212.1884                   21685209.6844
 -38561630.03548 -30014222.39546  19930376.6254                   19930374.8954
  -8567051.38346  -6504088.73443  24605175.1564                   24605174.2584
 -25028735.04347 -19474298.15645  22454863.8444                   22454863.0274
 -20945717.38348 -16289450.44146  21769493.1954                   21769489.9734
 11  7 25  0 35  0.0000000  0  9G12G09G28G10G17G04G20G27G02
    141731.83247    137436.78544  24300578.6484                   24300578.9024
 -17326759.80547 -13470793.82845  22089873.8054                   22089872.8094
 -49410405.37147 -38477608.62545  22352226.9774                   22352225.2934
 -11246057.16847  -8755247.85544  22824742.3914                   22824742.4494
 -42368954.58247 -32983397.11746  21683756.9534                   21683755.0124
 -38595192.41848 -30040374.89546  19923990.0164                   19923987.9384
  -8554847.62546  -6494579.32443  24607497.8134                   24607496.3134
 -25060662.79347 -19499176.92645  22448788.0704                   22448787.3484
 -21054765.83648 -16374423.20346  21748742.2664                   21748738.7304
 11  7 25  0 35 30.0000000  0  8G12G09G28G10G17G04G27G02
      1977.85547     28537.61344  24273984.8754                   24273983.9844
 -17368402.16847 -13503242.43445  22081949.5394                   22081948.7234
 -49385831.55547 -38458460.22345  22356903.2034                   22356901.4384
 -11377908.38347  -8857988.97344  22799652.0474                   22799652.0004
 -42376465.42248 -32989249.73446  21682327.8204                   21682325.7304
 -38628167.26248 -30066069.57446  19917715.3914                   19917713.5354
 -25092072.46147 -19523652.00045  22442811.0474                   22442809.7664
 -21163427.67648 -16459094.69946  21728064.1804                   21728060.8794
 11  7 25  0 36  0.0000000  0  8G12G09G28G10G17G04G27G02
   -137719.58647    -80317.50844  24247401.2894                   24247400.0784
 -17409368.08647 -13535163.93445  22074154.0554                   22074153.4574
 -49360857.15647 -38438999.69145  22361655.8054                   22361654.1564
 -11509530.50847  -8960551.60244  22774605.4064                   22774605.2074
 -42383846.11748 -32995000.94546  21680923.4144                   21680921.3364
 -38660560.91448 -30091311.37946  19911550.8834                   19911549.0084
 -25122969.90247 -19547727.94145  22436931.4454                   22436930.7894
 -21271707.18748 -16543468.28946  21707459.3754                   21707456.2544
 11  7 25  0 36 30.0000000  0  8G12G09G28G10G17G04G27G02
   -277357.73846   -189126.42243  24220828.8754                   24220828.1334
 -17449657.74647 -13566558.47745  22066487.1804                   22066486.5234
 -49335482.00447 -38419226.87945  22366484.1884                   22366482.8164
 -11640919.26647  -9062932.38745  22749602.3594                   22749602.8874
 -42391095.68448 -33000649.96546  21679543.9844                   21679541.8364
 -38692373.77748 -30116100.62146  19905497.1484                   19905495.2814
 -25153355.42647 -19571404.98445  22431149.0944                   22431148.2774
 -21379602.87548 -16627542.79746  21686927.2114                   21686924.2074
 11  7 25  0 37  0.0000000  0  8G12G09G28G10G17G04G27G02
   -416922.87547   -297878.44543  24194270.2664                   24194268.8204
 -17489259.17647 -13597416.73845  22058951.5704                   22058950.7194
 -49309694.28947 -38399132.61344  22371391.7114                   22371390.3874
 -11772059.13747  -9165119.23845  22724647.3524                   22724647.5274
 -42398201.96148 -33006187.34046  21678191.6484                   21678189.4384
 -38723594.97748 -30140428.82846  19899555.7974                   19899554.1524
 -25183217.76647 -19594674.34845  22425466.9694                   22425465.5864
 -21487101.50048 -16711307.89146  21666470.9694                   21666467.8914
 11  7 25  0 37 30.0000000  0  8G12G09G28G10G17G04G27G02
   -556424.33246   -406580.85543  24167724.3674                   24167722.2894
 -17528185.15647 -13627748.68445  22051543.9064                   22051543.2854
 -49283506.29747 -38378726.42645  22376374.7424                   22376373.3284
 -11902958.10247  -9267118.37144  22699737.9614                   22699737.4454
 -42405176.20748 -33011621.82446  21676864.3204                   21676862.3164
 -38754237.17648 -30164305.86746  19893724.7424                   19893723.0864
 -25212569.64847 -19617545.97345  22419881.0004                   22419880.4064
 -21594213.58248 -16794771.79346  21646088.1954                   21646084.7424
 11  7 25  0 38  0.0000000  0  8G12G09G28G10G17G04G27G02
   -695862.41847   -515233.85544  24141190.5944                   24141188.9384
 -17566438.45747 -13657556.45345  22044264.7504                   22044264.0904
 -49256920.98447 -38358010.64144  22381434.4304                   22381432.5394
 -12033615.38747  -9368929.19544  22674874.6724                   22674874.2734
 -42412020.72347 -33016955.22346  21675562.1094                   21675559.9964
 -38784303.95348 -30187734.52046  19888003.4064                   19888001.7974
 -25241414.25847 -19640022.29345  22414392.3674                   22414390.8554
 -21700940.57048 -16877935.62946  21625778.8594                   21625775.4384
 11  7 25  0 38 30.0000000  0  8G12G09G28G10G17G04G27G02
   -835235.16047   -623835.92244  24114668.2034                   24114667.4344
 -17604019.72747 -13686840.55545  22037113.4384                   22037112.5664
 -49229938.69147 -38336985.52744  22386568.5944                   22386567.4064
 -12164027.33647  -9470548.83644  22650058.0554                   22650058.0394
 -42418735.14548 -33022187.25846  21674284.2584                   21674282.2304
 -38813796.53548 -30210715.75446  19882390.9924                   19882389.5474
 -25269752.40647 -19662103.99245  22408999.7814                   22408998.7074
 -21807281.47748 -16960798.62146  21605542.7734                   21605538.9454
 11  7 25  0 39  0.0000000  0  8G12G09G28G10G17G04G27G02
   -974541.82446   -732386.42644  24088158.7344                   24088158.4104
 -17640930.86347 -13715602.46945  22030088.8284                   22030088.2894
 -49202561.46147 -38315652.66844  22391778.4384                   22391777.0824
 -12294191.62147  -9571975.50044  22625288.6254                   22625288.6294
 -42425320.66848 -33027318.84846  21673030.8754                   21673029.2274
 -38842717.36748 -30233251.46946  19876887.4384                   19876885.8244
 -25297586.24247 -19683792.71545  22403702.7194                   22403701.9494
 -21913236.63348 -17043361.02346  21585379.8914                   21585376.6994
 11  7 25  0 39 30.0000000  0  8G12G09G28G10G17G04G27G02
  -1113775.01647   -840879.77044  24061663.5394                   24061662.5434
 -17677167.46947 -13743838.76645  22023193.5944                   22023192.3834
 -49174784.45347 -38294008.29744  22397063.9454                   22397062.6484
 -12424099.34447  -9673202.24644  22600568.0004                   22600567.7034
 -42431772.13348 -33032345.97346  21671803.0944                   21671801.3834
 -38871062.30948 -30255338.43446  19871494.2504                   19871491.9224
 -25324911.61347 -19705085.23445  22398502.9614                   22398501.9414
 -22018800.05548 -17125618.18446  21565291.5784                   21565288.6764
 11  7 25  0 40  0.0000000  0  8G12G09G28G10G17G04G27G02
  -1252930.80547   -949312.75044  24035183.2274                   24035181.9654
 -17712728.45747 -13771548.62145  22016426.2664                   22016425.5124
 -49146606.66447 -38272051.61344  22402426.6564                   22402424.8674
 -12553745.50047  -9774225.18044  22575896.9454                   22575896.8984
 -42438087.39548 -33037266.96146  21670601.4144                   21670599.4224
 -38898830.73048 -30276976.16446  19866209.6724                   19866207.8754
 -25351727.48847 -19725980.74245  22393400.3754                   22393399.0864
 -22123968.59848 -17207567.64546  21545278.9454                   21545276.1564
 11  7 25  0 40 30.0000000  0  8G12G09G28G10G17G04G27G02
  -1392009.64846  -1057685.74244  24008716.3594                   24008716.7544
 -17747616.98847 -13798734.47745  22009787.1254                   22009786.3164
 -49118030.49247 -38249784.51644  22407864.7344                   22407862.6994
 -12683128.47747  -9875043.03544  22551276.3134                   22551275.8674
 -42444268.36748 -33042083.30146  21669425.0164                   21669423.1254
 -38926026.07448 -30298167.33246  19861034.6804                   19861032.9574
 -25378037.20747 -19746481.84445  22388393.7734                   22388393.3714
 -22228743.75848 -17289210.58646  21525340.7274                   21525337.2424
 11  7 25  0 41  0.0000000  0  8G12G09G28G10G17G04G27G02
  -1531012.98047  -1165999.91844  23982265.0084                   23982264.3794
 -17781837.99247 -13825400.17645  22003275.4144                   22003274.2814
 -49089060.82847 -38227210.79344  22413376.6644                   22413375.4344
 -12812248.77047  -9975656.18044  22526705.7034                   22526705.6604
 -42450318.96548 -33046798.05546  21668274.1804                   21668272.1024
 -38952653.69948 -30318916.12947  19855967.5634                   19855965.4344
 -25403845.73047 -19766592.41045  22383482.8914                   22383481.7774
 -22333128.66048 -17370549.43046  21505477.1334                   21505473.7304
 11  7 25  0 41 30.0000000  0  8G12G09G28G10G17G04G27G02
  -1669942.97747  -1274256.99243  23955827.6954                   23955826.6174
 -17815395.89847 -13851549.18045  21996889.7974                   21996888.3674
 -49059702.35547 -38204334.10544  22418963.7894                   22418962.3404
 -12941107.12147 -10076065.23444  22502184.5084                   22502184.0394
 -42456242.91447 -33051414.12546  21667146.4774                   21667144.7274
 -38978718.81648 -30339226.60946  19851007.4454                   19851005.6334
 -25429157.98447 -19786316.27345  22378666.2194                   22378665.0434
 -22437126.14848 -17451586.39146  21485686.8444                   21485683.6844
 11  7 25  0 42  0.0000000  0  8G12G09G28G10G17G04G27G02
  -1808800.04347  -1382457.23843  23929404.2344                   23929402.9574
 -17848294.05547 -13877184.09845  21990628.7664                   21990627.7854
 -49029957.96947 -38181156.71944  22424623.7504                   22424622.8984
 -13069702.37947 -10176269.27344  22477713.4064                   22477712.9964
 -42462042.22348 -33055933.07846  21666043.2584                   21666041.3054
 -39004225.38348 -30359101.84846  19846153.6564                   19846152.0354
 -25453977.41047 -19805656.12145  22373942.8834                   22373942.0004
 -22540737.73048 -17532322.64546  21465970.3204                   21465966.9774
 11  7 25  0 42 30.0000000  0  8G12G09G28G10G17G04G27G02
  -1947580.75447  -1490598.01244  23902995.2194                   23902994.3634
 -17880532.55947 -13902305.00045  21984494.3914                   21984493.1334
 -48999827.19947 -38157678.24644  22430357.8754                   22430356.3754
 -13198029.76247 -10276264.57044  22453293.5004                   22453293.0864
 -42467715.53548 -33060353.84846  21664963.7194                   21664961.6414
 -39029173.23848 -30378541.73046  19841406.1254                   19841404.4304
 -25478304.12947 -19824612.04345  22369313.6644                   22369313.1724
 -22643961.73448 -17612756.90246  21446327.3444                   21446324.1764
 11  7 25  0 43  0.0000000  0  8G12G09G28G10G17G04G27G02
  -2086274.72347  -1598671.15244  23876602.7894                   23876601.6764
 -17912103.94547 -13926906.08245  21978486.6174                   21978485.6564
 -48969302.16447 -38133892.55544  22436166.4064                   22436165.3874
 -13326077.71147 -10376042.10944  22428926.5634                   22428926.3284
 -42473254.34848 -33064669.81246  21663909.4694                   21663907.3204
 -39053555.68748 -30397541.04346  19836766.6024                   19836764.5634
 -25502130.78147 -19843178.30545  22364780.3054                   22364779.0944
 -22746788.57448 -17692881.68046  21426760.3204                   21426756.9654
 11  7 25  0 43 30.0000000  0  8G12G09G28G10G17G04G27G02
  -2224887.41047  -1706680.95744  23850225.3834                   23850224.8204
 -17943016.75847 -13950993.96545  21972604.6094                   21972602.8164
 -48938391.56247 -38109806.41044  22442048.6954                   22442047.1844
 -13453850.28947 -10475605.09044  22404612.2584                   22404611.7304
 -42478666.03948 -33068886.72746  21662879.7034                   21662878.0554
 -39077381.36348 -30416106.50046  19832232.4844                   19832230.9064
 -25525465.97747 -19861361.60945  22360338.9144                   22360338.7074
 -22849225.16448 -17772702.37546  21407266.9774                   21407264.0824
 11  7 25  0 44  0.0000000  0  8G12G09G28G10G17G04G27G02
  -2363420.65647  -1814628.85544  23823863.0314                   23823862.6174
 -17973276.07447 -13974572.66445  21966846.2504                   21966845.1334
 -48907099.85947 -38085423.31244  22448002.9384                   22448001.8284
 -13581347.88347 -10574953.79345  22380350.5084                   22380349.8554
 -42483954.61748 -33073007.70346  21661873.5164                   21661871.3594
 -39100655.95748 -30434242.54346  19827803.6484                   19827802.1604
 -25548315.04347 -19879166.12545  22355991.2894                   22355990.3204
 -22951275.04748 -17852221.73046  21387847.6484                   21387844.0434
 11  7 25  0 44 30.0000000  0  8G12G09G28G10G17G04G27G02
  -2501870.23446  -1922511.53944  23797516.8284                   23797516.8984
 -18002881.17647 -13997641.57045  21961212.5634                   21961211.8834
 -48875426.15247 -38060742.55144  22454030.7274                   22454029.2734
 -13708565.23447 -10674084.12945  22356141.5234                   22356141.1844
 -42489117.85248 -33077031.02346  21660891.0084                   21660888.8554
 -39123378.92648 -30451948.74646  19823479.4774                   19823477.6214
 -25570677.32047 -19896591.31645  22351735.6414                   22351735.4574
 -23052935.25048 -17931437.43746  21368502.5784                   21368499.2774
 11  7 25  0 45  0.0000000  0  8G12G09G28G10G17G04G27G02
  -2640224.28546  -2030319.79344  23771188.5784                   23771187.7734
 -18031822.87148 -14020193.55145  21955704.7424                   21955704.1454
 -48843360.68747 -38035756.52344  22460132.4614                   22460131.0274
 -13835488.66047 -10772985.44145  22331988.8364                   22331988.4574
 -42494145.36348 -33080948.57846  21659934.4774                   21659932.1214
 -39145541.39548 -30469218.19946  19819262.3914                   19819260.3204
 -25592543.53147 -19913629.99245  22347574.7814                   22347574.5084
 -23154194.67648 -18010340.85946  21349233.4774                   21349230.1484
 11  7 25  0 45 30.0000000  0  8G12G09G28G10G17G04G27G02
  -2778492.05146  -2138060.84444  23744878.0234                   23744875.9614
 -18060114.28947 -14042238.81645  21950321.5784                   21950320.4574
 -48810916.15247 -38010475.12144  22466306.9614                   22466305.1724
 -13962126.12947 -10871663.91045  22307890.5554                   22307889.7154
 -42499048.35948 -33084769.09846  21659001.2734                   21658999.1174
 -39167156.60948 -30486061.21546  19815148.9534                   19815147.3054
 -25613926.73447 -19930292.28145  22343506.0084                   22343505.9344
 -23255064.39148 -18088940.60946  21330038.4454                   21330035.0234
 11  7 25  0 46  0.0000000  0  8G12G09G28G10G17G04G27G02
  -2916673.99647  -2245735.03544  23718582.7194                   23718580.9844
 -18087758.55147 -14063779.79745  21945060.4384                   21945060.1414
 -48778095.41447 -37984900.58644  22472552.1564                   22472550.4654
 -14088476.75847 -10970118.89145  22283847.2194                   22283846.5784
 -42503828.85948 -33088494.16846  21658091.7894                   21658089.3954
 -39188228.23048 -30502480.66046  19811139.1174                   19811136.8404
 -25634830.36747 -19946580.89545  22339527.7034                   22339527.3914
 -23355545.74248 -18167237.73846  21310917.0474                   21310914.0004
 11  7 25  0 46 30.0000000  0  8G12G09G28G10G17G04G27G02
  -1479329.44946  -1125726.24644  23992099.6484                   23992098.4224
 -16539322.12147 -12857205.96145  22239718.1954                   22239717.5204
 -47169466.84847 -36731423.84844  22778664.2664                   22778663.2344
 -12639098.89147  -9840733.47745  22559654.2734                   22559653.4184
 -40933053.09448 -31864513.05146  21957000.0944                   21956998.2464
 -37633323.46948 -29290866.54746  20107027.4844                   20107025.7624
 -24079821.47347 -18734885.71545  22635436.6484                   22635436.0634
 -21880201.03548 -17017618.45746  21591665.9694                   21591662.8204
 11  7 25  0 47  0.0000000  0  8G12G09G28G10G17G04G27G02
  -1617314.50846  -1233247.00444  23965842.6414                   23965841.9774
 -16565657.22748 -12877726.82445  22234706.5234                   22234705.6414
 -47135878.05547 -36705250.82844  22785055.8674                   22785054.4494
 -12764846.83647  -9938718.80945  22535724.8834                   22535725.0084
 -40937570.14148 -31868032.83246  21956140.2504                   21956138.5984
 -37653294.34448 -29306428.26646  20103227.3524                   20103225.4224
 -24099751.66847 -18750415.79345  22631644.0314                   22631643.4384
 -21979885.37148 -17095294.53146  21572696.7814                   21572693.4924
 11  7 25  0 47 30.0000000  0  8G12G09G28G10G17G04G27G02
  -1755206.03546  -1340694.92644  23939602.2894                   23939600.7344
 -16591348.23848 -12897745.80145  22229817.7814                   22229817.6174
 -47101914.90247 -36678786.11344  22791518.5864                   22791517.4344
 -12890296.79747 -10036471.95745  22511852.7194                   22511851.9884
 -40941963.20747 -31871456.00846  21955304.5704                   21955302.5634
 -37672725.23048 -29321569.21146  20099529.6884                   20099528.0084
 -24119205.16447 -18765574.45345  22627942.3674                   22627941.3244
 -22079178.39148 -17172665.68746  21553801.7734                   21553798.6644
 11  7 25  0 48  0.0000000  0  8G12G09G28G10G17G04G27G02
  -1893005.99646  -1448071.43744  23913379.4384                   23913379.1254
 -16616400.17247 -12917266.80145  22225050.7814                   22225050.1884
 -47067582.22747 -36652033.43444  22798052.3444                   22798051.3014
 -13015449.10547 -10133993.17245  22488037.2664                   22488036.7344
 -40946236.02048 -31874785.49246  21954491.4384                   21954489.6604
 -37691621.83648 -29336293.83246  20095933.5314                   20095932.0824
 -24138187.30547 -18780365.79345  22624330.0944                   22624329.5904
 -22178083.49248 -17249734.56646  21534980.8444                   21534977.6604
 11  7 25  0 48 30.0000000  0  8G12G09G28G10G17G04G27G02
  -2030710.69947  -1555373.71544  23887175.2344                   23887173.9804
 -16640812.84447 -12936289.68045  22220405.3284                   22220404.8674
 -47032879.16447 -36624992.16844  22804655.5554                   22804654.9574
 -13140298.78547 -10231278.57045  22464279.2114                   22464278.7464
 -40950386.82048 -31878019.89146  21953701.5084                   21953699.4064
 -37709984.12148 -29350602.09446  20092439.2274                   20092437.8444
 -24156697.91447 -18794789.71545  22620808.1334                   22620807.0744
 -22276598.50048 -17326499.47746  21516234.3054                   21516230.8164
 11  7 25  0 49  0.0000000  0  8G12G09G28G10G17G04G27G02
  -2168311.87947  -1662595.36744  23860991.7664                   23860989.1214
 -16664581.64847 -12954810.84045  22215882.1564                   22215881.2664
 -46997800.92247 -36597658.53944  22811331.0634                   22811330.1094
 -13264836.68047 -10328321.01245  22440580.3054                   22440579.8524
 -40954409.60548 -31881154.53546  21952936.2034                   21952934.2934
 -37727807.88748 -29364490.73846  20089047.6804                   20089046.0084
 -24174732.49647 -18808842.68745  22617375.8674                   22617374.9534
 -22374716.79748 -17402955.26246  21497562.7114                   21497559.5124
 11  7 25  0 49 30.0000000  0  8G12G09G28G10G17G04G27G02
  -2305811.59447  -1769737.96944  23834825.4224                   23834824.4734
 -16687711.91847 -12972834.44145  22211480.5474                   22211479.8834
 -46962352.05947 -36570036.10944  22818077.2274                   22818076.1914
 -13389062.94147 -10425120.64545  22416940.5394                   22416940.2034
 -40958307.65247 -31884191.97746  21952194.5634                   21952192.5784
 -37745098.55148 -29377963.97746  20085757.4304                   20085755.5354
 -24192296.50047 -18822528.98845  22614034.1804                   22614032.7274
 -22472441.55548 -17479104.39146  21478966.5864                   21478962.9964
 11  7 25  0 50  0.0000000  0  8G12G09G28G10G17G04G27G02
  -2443201.84047  -1876795.27344  23808680.9614                   23808679.5554
 -16710199.42247 -12990357.20345  22207201.2504                   22207200.3444
 -46926528.22347 -36542121.50844  22824894.1174                   22824893.3324
 -13512968.86747 -10521670.65645  22393361.8984                   22393361.4494
 -40962075.58648 -31887128.02746  21951477.2894                   21951475.3524
 -37761852.21948 -29391018.77346  20082569.5394                   20082567.3914
 -24209385.56647 -18835845.19545  22610781.6564                   22610780.2504
 -22569766.56248 -17554942.03546  21460445.9844                   21460442.5204
 11  7 25  0 50 30.0000000  0  8G12G09G28G10G17G04G27G02
  -2580485.29747  -1983769.35244  23782556.9534                   23782555.3244
 -16732050.61347 -13007384.12945  22203043.3524                   22203042.3634
 -46890334.82447 -36513918.91844  22831781.7344                   22831780.4734
 -13636555.90247 -10617972.19545  22369843.9454                   22369844.0204
 -40965717.64147 -31889966.00846  21950784.4384                   21950782.4774
 -37778075.13348 -29403660.00446  20079482.2114                   20079480.4304
 -24226005.89147 -18848796.12945  22607619.3674                   22607618.0904
 -22666695.87548 -17630471.33246  21442000.7894                   21441997.5084
 11  7 25  0 51  0.0000000  0  8G12G09G28G10G17G04G27G02
  -2717669.67646  -2090666.25044  23756451.4064                   23756450.0354
 -16753276.69547 -13023923.95345  22199004.0784                   22199002.9144
 -46853782.85947 -36485436.92644  22838737.4694                   22838735.8954
 -13759830.61747 -10714030.35945  22346385.6884                   22346385.1294
 -40969243.59047 -31892713.51245  21950113.3984                   21950111.7274
 -37793779.08248 -29415896.84846  20076493.7664                   20076492.3444
 -24242169.00047 -18861390.78145  22604543.6954                   22604542.2854
 -22763239.13748 -17705699.82446  21423629.3054                   21423625.5044
 11  7 25  0 51 30.0000000  0  8G12G09G28G10G17G04G27G02
  -2854750.26646  -2197482.25044  23730365.9614                   23730364.0824
 -16773876.60247 -13039975.85945  22195084.0864                   22195083.0984
 -46816870.86347 -36456674.37544  22845761.9614                   22845760.4304
 -13882787.00847 -10809840.49245  22322987.7734                   22322987.3484
 -40972650.26647 -31895368.08245  21949465.2894                   21949463.3834
 -37808963.27348 -29427728.67246  20073604.3754                   20073602.6844
 -24257873.66047 -18873628.21145  22601554.9384                   22601553.7584
 -22859393.15248 -17780624.98846  21405331.7194                   21405327.8054
 11  7 25  0 52  0.0000000  0  8G12G09G28G10G17G04G27G02
  -2991717.53946  -2304209.98044  23704301.9844                   23704299.6844
 -16793845.18747 -13055535.83245  22191284.3284                   22191283.3204
 -46779592.85947 -36427626.65644  22852855.4774                   22852854.6484
 -14005414.40247 -10905394.25045  22299652.6724                   22299651.6174
 -40975930.83647 -31897924.37945  21948840.7814                   21948838.9924
 -37823622.22748 -29439151.23046  20070814.7584                   20070813.1764
 -24273114.75447 -18885504.41045  22598654.2274                   22598653.3594
 -22955150.38748 -17855240.97746  21387109.8284                   21387105.9494
 11  7 25  0 52 30.0000000  0  8G12G09G28G10G17G04G27G02
  -3128571.46947  -2410849.39144  23678259.7424                   23678257.7154
 -16813185.73047 -13070606.43045  22187603.7114                   22187603.2624
 -46741951.75047 -36398295.94544  22860017.9614                   22860016.9844
 -14127711.55547 -11000690.66845  22276380.0394                   22276379.5204
 -40979086.79347 -31900383.57446  21948240.1954                   21948238.5984
 -37837759.69148 -29450167.43046  20068124.7034                   20068123.2034
 -24287895.27047 -18897021.70745  22595841.8284                   22595840.7974
 -23050511.92648 -17929548.63346  21368963.1024                   21368959.2304
 11  7 25  0 53  0.0000000  0  8G12G09G28G10G17G04G27G02
  -3265307.85547  -2517397.25044  23652239.9064                   23652238.3674
 -16831897.60947 -13085187.15645  22184042.8674                   22184042.7274
 -46703946.03947 -36368681.16444  22867250.2584                   22867249.2464
 -14249672.97347 -11095725.50445  22253171.8834                   22253170.9304
 -40982115.51647 -31902743.62545  21947663.8364                   21947662.2854
 -37851374.94548 -29460776.72746  20065533.8674                   20065532.1644
 -24302214.66447 -18908179.69945  22593116.9614                   22593116.4694
 -23145475.41848 -18003546.11746  21350892.0634                   21350888.3524
 11  7 25  0 53 30.0000000  0  8G12G09G28G10G17G04G27G02
  -3401926.18047  -2623853.05544  23626241.7274                   23626240.5084
 -16849984.39547 -13099280.80945  22180601.4534                   22180600.7154
 -46665579.30947 -36338785.05544  22874551.2344                   22874550.6604
 -14371297.27747 -11190497.64145  22230027.7274                   22230026.6214
 -40985019.08647 -31905006.16446  21947111.5084                   21947109.5784
 -37864472.12148 -29470982.32446  20063041.2974                   20063039.9614
 -24316076.65247 -18918981.26645  22590479.1804                   22590478.3794
 -23240042.34048 -18077234.58246  21332896.5004                   21332893.1524
 11  7 25  0 54  0.0000000  0  8G12G09G28G10G17G04G27G02
  -3538418.20347  -2730210.46944  23600267.7664                   23600267.4104
 -16867441.67647 -13112883.93745  22177279.2194                   22177278.8014
 -46626846.30547 -36308603.53544  22881921.9144                   22881921.1724
 -14492574.89847 -11284999.64145  22206948.7894                   22206948.4534
 -40987790.64548 -31907165.82846  21946583.8914                   21946581.9224
 -37877046.66848 -29480780.67246  20060648.4224                   20060646.7194
 -24329476.59047 -18929422.78545  22587929.0554                   22587928.5354
 -23334205.71548 -18150608.59446  21314977.7194                   21314974.0784
 11  7 25  0 54 30.0000000  0  8G12G09G28G10G17G04G27G02
  -3674793.89547  -2836477.28144  23574316.3914                   23574315.0434
 -16884283.66847 -13126007.62545  22174074.5394                   22174073.7814
 -46587760.40647 -36278147.01244  22889359.5164                   22889358.3554
 -14613514.88747 -11379238.53945  22183934.5234                   22183934.0004
 -40990442.65247 -31909232.34846  21946079.3984                   21946077.5004
 -37889112.84448 -29490182.89146  20058352.0944                   20058350.6334
 -24342428.46947 -18939515.16045  22585464.2424                   22585464.0784
 -23427977.60248 -18223677.55146  21297133.4844                   21297129.9614
 11  7 25  0 55  0.0000000  0  8G12G09G28G10G17G04G27G02
  -3811052.32847  -2942652.70744  23548387.4844                   23548386.1414
 -16900513.44947 -13138654.26245  22170986.1174                   22170985.1524
 -46548323.95747 -36247417.34444  22896864.2894                   22896863.3014
 -14734115.24647 -11473212.79745  22160985.3984                   22160984.4844
 -40992976.28147 -31911206.61746  21945597.4694                   21945595.6804
 -37900673.72748 -29499191.37546  20056152.6254                   20056150.5664
 -24354935.37947 -18949260.80545  22583084.8754                   22583084.2854
 -23521359.05148 -18296442.26646  21279363.6174                   21279360.3204
 11  7 25  0 55 30.0000000  0  8G12G09G28G10G17G04G27G02
  -3947182.18047  -3048727.93444  23522483.4304                   23522481.4654
 -16916123.19147 -13150817.75045  22168015.8834                   22168014.7384
 -46508528.81247 -36216408.18444  22904437.1644                   22904436.1374
 -14854363.36747 -11566912.57445  22138102.6884                   22138101.8634
 -40995381.28147 -31913080.65246  21945139.3914                   21945137.8714
 -37911721.81648 -29507800.27746  20054050.2974                   20054048.1684
 -24366989.41447 -18958653.55945  22580791.0704                   22580790.6484
 -23614340.11748 -18368895.00446  21261670.0164                   21261666.0084
 11  7 25  0 56  0.0000000  0  8G12G09G28G10G17G04G27G02
  -4083188.09447  -3154706.56244  23496602.1094                   23496600.6564
 -16931121.48047 -13162504.78545  22165161.7504                   22165160.7704
 -46468383.15647 -36185125.88744  22912076.6954                   22912075.6094
 -14974262.89847 -11660340.73845  22115286.7194                   22115285.9614
 -40997664.76247 -31914860.01245  21944705.1644                   21944703.3834
 -37922265.77748 -29516016.36346  20052043.6954                   20052042.3524
 -24378599.36747 -18967700.28945  22578581.6254                   22578581.1094
 -23706927.14548 -18441040.68446  21244051.3134                   21244047.7704
 11  7 25  0 56 30.0000000  0  8G12G09G28G10G17G04G27G02
  -4219061.38747  -3260581.85544  23470745.9144                   23470744.7114
 -16945504.14547 -13173712.10545  22162424.5634                   22162424.0204
 -46427881.92647 -36153566.52344  22919784.2114                   22919782.4804
 -15093804.23047 -11753489.77345  22092538.7274                   22092538.1914
 -40999820.28148 -31916539.65646  21944295.0164                   21944292.9264
 -37932301.31648 -29523836.27046  20050133.8284                   20050132.3524
 -24389760.78147 -18976397.49245  22576457.6724                   22576457.6094
 -23799113.94148 -18512874.50446  21226508.2664                   21226504.9694
 11  7 25  0 57  0.0000000  0  8G12G09G28G10G17G04G27G02
  -4354800.99247  -3366352.96944  23444915.8284                   23444914.9694
 -16959274.02047 -13184441.93445  22159804.7424                   22159804.0164
 -46387027.31647 -36121731.77744  22927558.2424                   22927557.0594
 -15212984.94547 -11846357.82045  22069859.3284                   22069858.4614
 -41001848.34847 -31918119.99245  21943908.8914                   21943907.0044
 -37941831.57848 -29531262.45746  20048320.1484                   20048318.8984
 -24400476.11747 -18984747.10545  22574418.4844                   22574418.3914
 -23890900.96948 -18584396.82446  21209042.2344                   21209038.3484
 11  7 25  0 57 30.0000000  0  8G12G09G28G10G17G04G27G02
  -4490413.87147  -3472025.30544  23419109.2894                   23419108.2424
 -16972442.13747 -13194702.84445  22157298.5944                   22157298.3014
 -46345829.43447 -36089629.58644  22935397.7114                   22935397.4384
 -15331810.94547 -11938949.45345  22047247.0004                   22047246.2074
 -41003757.77047 -31919607.87146  21943545.9144                   21943543.4494
 -37950867.24648 -29538303.25046  20046600.7974                   20046599.1334
 -24410756.14147 -18992757.53145  22572462.1334                   22572462.1764
 -23982296.80548 -18655614.30546  21191649.8204                   21191646.3984
 11  7 25  0 58  0.0000000  0  8G12G09G28G10G17G04G27G02
  -4625886.25847  -3577588.20744  23393329.7894                   23393328.4844
 -16984999.14847 -13204487.57045  22154909.3834                   22154908.8594
 -46304278.52047 -36057252.30944  22943304.9144                   22943303.8874
 -15450267.75047 -12031253.41445  22024705.5084                   22024705.0554
 -41005536.96547 -31920994.28145  21943207.0944                   21943205.4104
 -37959399.01248 -29544951.38746  20044977.6254                   20044975.9964
 -24420591.48047 -19000421.44545  22570590.7274                   22570590.4924
 -24073289.80948 -18726517.90646  21174334.6414                   21174330.8204
 11  7 25  0 58 30.0000000  0  8G12G09G28G10G17G04G27G02
  -4761217.56247  -3683041.10944  23367576.8054                   23367575.7234
 -16996948.76247 -13213799.01645  22152635.7504                   22152634.8524
 -46262377.44547 -36024602.17244  22951278.7814                   22951277.4734
 -15568353.93047 -12123268.55945  22002234.4694                   22002234.1564
 -41007187.71547 -31922280.60245  21942892.8134                   21942891.0784
 -37967430.84848 -29551209.96546  20043449.1414                   20043447.2304
 -24429985.70747 -19007741.63745  22568802.8984                   22568803.1564
 -24163881.71948 -18797108.95346  21157095.5944                   21157091.7814
 11  7 25  0 59  0.0000000  0  8G12G09G28G10G17G04G27G02
  -4896407.21147  -3788383.62144  23341851.4534                   23341849.7304
 -17008294.52747 -13222639.91845  22150476.5314                   22150475.7344
 -46220129.23447 -35991681.53144  22959317.9454                   22959316.8484
 -15686068.20747 -12214993.92245  21979834.3914                   21979833.3204
 -41008711.02347 -31923467.63746  21942603.2114                   21942601.2774
 -37974966.13748 -29557081.62146  20042015.2504                   20042013.5084
 -24438942.32047 -19014720.85245  22567098.4694                   22567098.3714
 -24254073.88348 -18867388.52346  21139932.4454                   21139928.3714
 11  7 25  0 59 30.0000000  0  8G12G09G28G10G17G04G27G02
  -5031459.76247  -3893619.29344  23316151.2344                   23316150.3164
 -17019044.95747 -13231016.91845  22148430.6094                   22148430.2034
 -46177541.37147 -35958496.24244  22967422.4454                   22967421.5514
 -15803413.34447 -12306431.65245  21957504.0944                   21957502.8444
 -41010113.46147 -31924560.46145  21942336.3054                   21942334.2814
 -37982013.26648 -29562572.88746  20040674.1884                   20040672.9924
 -24447469.58247 -19021365.49245  22565475.5314                   22565475.1804
 -24343872.28148 -18937361.26246  21122844.4064                   21122840.3714
 11  7 25  1  0  0.0000000  0  8G12G09G28G10G17G04G27G02
  -5166363.16847  -3998738.70745  23290479.8984                   23290479.4414
 -17029192.61747 -13238924.22745  22146499.5784                   22146499.6804
 -46134605.73047 -35925039.95344  22975592.4304                   22975591.8484
 -15920376.39847 -12397571.64145  21935246.6564                   21935245.6994
 -41011384.82448 -31925551.15646  21942094.6564                   21942092.5314
 -37988564.62548 -29567677.84846  20039427.6564                   20039425.6884
 -24455559.84047 -19027669.62145  22563936.1174                   22563936.6134
 -24433267.08648 -19007019.52046  21105832.9774                   21105828.7544
 11  7 25  1  0 30.0000000  0  8G12G09G28G10G17G04G27G02
  -5301120.50047  -4103744.31645  23264837.0474                   23264835.1024
 -17038745.05147 -13246367.70745  22144681.9534                   22144682.0234
 -46091329.18747 -35891318.04344  22983828.1724                   22983827.3204
 -16036960.16447 -12488416.08245  21913061.4454                   21913060.9844
 -41012530.60948 -31926444.01245  21941876.4924                   21941874.9964
 -37994628.03548 -29572402.59446  20038273.3204                   20038271.8524
 -24463220.40647 -19033638.93045  22562478.6334                   22562478.6054
 -24522263.56248 -19076367.38746  21088897.5784                   21088893.5044
 11  7 25  1  1  0.0000000  0  9G12G09G28G10G17G05G04G27G02
  -5435734.39847  -4208638.15644  23239220.3054                   23239219.2034
 -17047708.63747 -13253352.33645  22142976.0944                   22142975.6524
 -46047717.25047 -35857334.77344  22992126.8204                   22992126.5234
 -16153165.45747 -12578965.60545  21890948.7274                   21890947.9804
 -41013554.83647 -31927242.12945  21941681.6484                   21941679.6844
   4512678.85256   3524699.04753  24587113.4924                   24587115.8134
 -38000209.85248 -29576752.05146  20037211.3524                   20037209.6684
 -24470457.56247 -19039278.29745  22561101.6254                   22561101.5234
 -24610865.91848 -19145408.13746  21072036.7974                   21072033.0234
 11  7 25  1  1 30.0000000  0  9G12G09G28G10G17G05G04G27G02
  -5570204.04747  -4313419.62544  23213631.5704                   23213630.8094
 -17056087.23447 -13259881.13345  22141382.2424                   22141381.5904
 -46003773.06647 -35823092.63744  23000489.0164                   23000488.7504
 -16268990.92247 -12669219.17645  21868907.8054                   21868906.8674
 -41014458.90647 -31927946.63745  21941509.3984                   21941508.1524
   4366843.66046   3411061.40243  24559361.3594                   24559364.3284
 -38005313.58648 -29580728.99646  20036240.3674                   20036238.5744
 -24477274.75447 -19044590.44545  22559804.4144                   22559804.6994
 -24699075.66848 -19214142.98046  21055251.2504                   21055247.5274
 11  7 25  1  2  0.0000000  0  9G12G09G28G10G17G05G04G27G02
  -5704527.33647  -4418087.03544  23188070.8054                   23188068.7734
 -17063883.10247 -13265955.85545  22139898.8914                   22139897.8204
 -45959498.12547 -35788592.73844  23008914.3134                   23008914.2704
 -16384433.50447 -12759174.38345  21846939.6024                   21846939.1994
 -41015242.66847 -31928557.38345  21941360.1724                   21941358.5824
   4220948.59846   3297377.18043  24531598.2504                   24531600.6334
 -38009941.32448 -29584335.01246  20035359.5864                   20035357.7304
 -24483674.24247 -19049577.09445  22558586.8754                   22558586.7814
 -24786892.47348 -19282571.62946  21038540.1724                   21038536.3954
 11  7 25  1  2 30.0000000  0  9G12G09G28G10G17G05G04G27G02
  -5838702.09847  -4522638.70344  23162537.7894                   23162536.2664
 -17071098.60947 -13271578.34845  22138525.7034                   22138524.6764
 -45914894.12947 -35753836.43044  23017402.2664                   23017402.1134
 -16499490.69947 -12848829.29745  21825044.4774                   21825043.8244
 -41015905.98847 -31929074.27345  21941233.9534                   21941232.3204
   4074995.93446   3183648.06643  24503824.1804                   24503826.5354
 -38014095.72348 -29587572.20346  20034569.0784                   20034567.0314
 -24489658.10947 -19054239.88745  22557447.9304                   22557448.0084
 -24874316.56648 -19350694.26646  21021903.7424                   21021900.1414
 11  7 25  1  3  0.0000000  0  9G12G09G28G10G17G05G04G27G02
  -5972730.50047  -4627076.31644  23137032.6954                   23137031.5164
 -17077740.13347 -13276753.59045  22137261.6024                   22137261.2464
 -45869966.59047 -35718828.03144  23025952.0164                   23025951.2774
 -16614163.03547 -12938184.31245  21803223.3754                   21803222.5554
 -41016452.78947 -31929500.36345  21941129.9614                   21941128.1644
   3928983.84846   3069872.72343  24476039.2274                   24476041.3524
 -38017783.02048 -29590445.41846  20033866.9694                   20033865.2114
 -24495232.52047 -19058583.62945  22556387.5864                   22556386.8554
 -24961352.12148 -19418514.13346  21005341.5474                   21005338.1764
 11  7 25  1  3 30.0000000  0  9G12G09G28G10G17G05G04G27G02
  -6106607.40647  -4731395.87545  23111557.1174                   23111556.6294
 -17083807.21947 -13281481.20345  22136107.2344                   22136106.8444
 -45824714.37147 -35683566.60244  23034563.4064                   23034562.4454
 -16728444.86347 -13027235.03945  21781476.4774                   21781475.6844
 -41016880.05547 -31929833.31245  21941048.8364                   21941047.1334
   3782918.05546   2956055.49243  24448243.6094                   24448245.9574
 -38021002.35248 -29592953.99646  20033254.5944                   20033253.1644
 -24500396.86347 -19062607.82045  22555404.6804                   22555404.1914
 -25047996.30148 -19486029.03946  20988853.6804                   20988849.4654
 11  7 25  1  4  0.0000000  0  9G12G09G28G10G17G05G04G27G02
  -6240322.19947  -4835589.16045  23086112.3984                   23086111.1294
 -17089294.26647 -13285756.84445  22135063.2194                   22135062.3244
 -45779130.58247 -35648046.82843  23043237.5704                   23043236.6564
 -16842324.89547 -13115972.66845  21759805.8594                   21759804.7074
 -41017179.69947 -31930066.81245  21940991.9614                   21940989.8834
   3636809.07046   2842204.58243  24420438.8054                   24420441.1954
 -38023747.86348 -29595093.35946  20032732.4384                   20032730.5274
 -24505144.87147 -19066307.59845  22554501.0314                   22554500.4924
 -25134240.69148 -19553232.43746  20972441.5554                   20972438.0904
 11  7 25  1  4 30.0000000  0  9G12G09G28G10G17G05G04G27G02
  -6373879.57847  -4939659.75845  23060697.0234                   23060695.4654
 -17094210.32447 -13289587.56245  22134126.8984                   22134126.3984
 -45733223.26247 -35612274.93043  23051973.8914                   23051972.5984
 -16955807.11747 -13204400.34045  21738210.7194                   21738209.5704
 -41017357.86347 -31930205.64545  21940957.7734                   21940956.2114
   3490652.16446   2728316.41443  24392626.1414                   24392628.1094
 -38026028.55148 -29596870.52346  20032298.1724                   20032296.5904
 -24509485.62947 -19069690.04745  22553675.1564                   22553674.5204
 -25220091.97748 -19620129.51246  20956104.8754                   20956101.4344
 11  7 25  1  5  0.0000000  0  9G12G09G28G10G17G05G04G27G02
  -6507272.86347  -5043602.52044  23035312.6644                   23035310.8244
 -17098553.12947 -13292971.58645  22133301.3674                   22133300.8364
 -45686990.03147 -35576249.07844  23060771.7814                   23060770.5084
 -17068883.84047 -13292512.01645  21716692.6884                   21716691.6994
 -41017410.18447 -31930246.41445  21940948.1484                   21940946.0514
   3344455.01646   2614396.85544  24364805.9844                   24364808.2074
 -38027842.19948 -29598283.75446  20031953.4384                   20031951.4344
 -24513416.66047 -19072753.21545  22552926.8674                   22552926.4064
 -25305545.96148 -19686717.00046  20939843.5944                   20939839.8984
 11  7 25  1  5 30.0000000  0  9G12G09G28G10G17G05G04G27G02
  -5065076.17647  -3919812.84844  23309753.6954                   23309751.9184
 -15526905.84847 -12068311.38745  22432375.9384                   22432375.0904
 -44065014.56247 -34312372.10243  23369423.6254                   23369422.4494
 -15606128.75847 -12152702.81645  21995045.7504                   21995044.9144
 -39441917.17647 -30702589.52345  22240754.3914                   22240752.6294
   4773643.60546   3728050.59043  24636771.5164                   24636773.8364
 -36453771.81248 -28371735.40246  20331489.0704                   20331487.0354
 -22941520.74247 -17847899.28145  22852049.0164                   22852048.7774
 -23815180.16048 -18525392.96146  21223450.5634                   21223447.1054
 11  7 25  1  6  0.0000000  0  9G12G09G28G10G17G05G04G27G02
  -5198135.21547  -4023495.16845  23284434.1024                   23284431.7274
 -15530109.95747 -12070808.11745  22431765.8204                   22431765.7814
 -44018134.08247 -34275841.87944  23378344.4064                   23378343.2384
 -15718385.48447 -12240175.54745  21973684.3984                   21973682.7384
 -39441717.39547 -30702433.84445  22240792.1644                   22240790.2384
   4627371.83246   3614072.88344  24608936.4534                   24608939.2664
 -36454658.14548 -28372426.05146  20331320.2894                   20331318.1414
 -22944639.06647 -17850329.18745  22851455.7894                   22851454.8754
 -23899839.30548 -18591361.10546  21207340.6644                   21207336.8134
 11  7 25  1  6 30.0000000  0  9G12G09G28G10G17G05G04G27G02
  -5331027.42647  -4127047.49245  23259144.9064                   23259142.5204
 -15532751.95347 -12072866.84845  22431263.3524                   22431263.2274
 -43970935.96947 -34239064.14544  23387325.7664                   23387324.7504
 -15830231.37547 -12327328.14145  21952400.6334                   21952399.2704
 -39441394.57847 -30702182.29745  22240853.6954                   22240851.9224
   4481063.12146   3500066.33644  24581094.6174                   24581097.2974
 -36455087.88748 -28372760.91046  20331238.4144                   20331236.9304
 -22947357.91047 -17852447.77344  22850937.7894                   22850937.0274
 -23984104.70348 -18657022.43046  21191305.4224                   21191301.7894
 11  7 25  1  7  0.0000000  0  9G12G09G28G10G17G05G04G27G02
  -5463750.38347  -4230467.93745  23233888.8834                   23233887.3094
 -15534834.16847 -12074489.36345  22430866.8054                   22430866.2734
 -43923421.65647 -34202040.00444  23396367.8204                   23396366.9844
 -15941663.51647 -12414158.34045  21931195.6174                   21931194.4614
 -39440948.53547 -30701834.72345  22240938.5004                   22240936.6484
   4334720.53947   3386033.38344  24553246.6484                   24553248.4104
 -36455063.14148 -28372741.62946  20331243.1414                   20331241.2734
 -22949679.33647 -17854256.68045  22850496.4844                   22850495.5204
 -24067976.39848 -18722376.97746  21175345.1884                   21175341.3594
 11  7 25  1  7 30.0000000  0  9G12G09G28G10G17G05G04G27G02
  -5596305.39147  -4333757.50845  23208664.4924                   23208663.0204
 -15536362.87547 -12075680.59845  22430575.8134                   22430575.9344
 -43875596.36747 -34164773.57443  23405468.8834                   23405467.8914
 -16052682.37947 -12500666.49645  21910069.6804                   21910068.2384
 -39440382.71947 -30701393.81645  22241046.4614                   22241044.6414
   4188342.55546   3271972.85244  24525391.6484                   24525393.6414
 -36454589.90648 -28372372.87546  20331333.3364                   20331331.1054
 -22951609.16047 -17855760.46145  22850129.1024                   22850128.1954
 -24151457.91848 -18787427.48446  21159459.1804                   21159455.7114
 11  7 25  1  8  0.0000000  0  9G12G09G28G10G17G05G04G27G02
  -5728678.30547  -4436905.19145  23183474.0084                   23183472.9734
 -15537328.76247 -12076433.25045  22430392.0864                   22430392.0554
 -43827449.82046 -34127256.79743  23414630.0784                   23414629.4844
 -16163273.48447 -12586841.34045  21889024.5554                   21889023.3204
 -39439685.14547 -30700850.25045  22241179.3364                   22241177.4414
   4041943.02346   3157895.49644  24497532.2114                   24497534.6174
 -36453658.52348 -28371647.14146  20331510.3134                   20331508.7154
 -22953137.69147 -17856951.54745  22849838.1414                   22849837.7344
 -24234537.68048 -18852164.94946  21143649.8914                   21143645.8714
 11  7 25  1  8 30.0000000  0  9G12G09G28G10G17G05G04G27G02
  -5860872.00847  -4539913.23444  23158318.4064                   23158317.6054
 -15537739.10247 -12076753.01645  22430314.3134                   22430314.6564
 -43778988.47347 -34089494.73444  23423852.5634                   23423851.8714
 -16273438.93447 -12672684.50045  21868060.4774                   21868059.7034
 -39438860.39547 -30700207.59845  22241336.2194                   22241334.5084
   3895519.94146   3043799.79344  24469668.6484                   24469671.0744
 -36452276.10548 -28370569.93446  20331773.4384                   20331771.8674
 -22954272.07847 -17857835.49245  22849622.6174                   22849621.7934
 -24317220.49248 -18916593.09446  21127915.6804                   21127912.1094
 11  7 25  1  9  0.0000000  0  9G12G09G28G10G17G05G04G27G02
  -5992875.21147  -4642772.84044  23133199.3914                   23133197.5944
 -15537587.39147 -12076634.82845  22430343.2034                   22430343.7114
 -43730204.95346 -34051481.65244  23433135.4924                   23433135.1524
 -16383166.17648 -12758186.19545  21847180.3364                   21847179.3094
 -39437899.03547 -30699458.48445  22241519.0784                   22241517.1604
   3749085.09446   2929694.92244  24441803.0704                   24441804.6524
 -36450436.05548 -28369136.13346  20332123.5554                   20332122.1454
 -22955005.51247 -17858407.01245  22849482.8284                   22849482.9344
 -24399497.52048 -18980705.04746  21112258.9614                   21112255.3164
 11  7 25  1  9 30.0000000  0  9G12G09G28G10G17G05G04G27G02
  -6124699.34447  -4745492.93445  23108114.0554                   23108112.3444
 -15536890.41047 -12076091.73045  22430475.8754                   22430475.9184
 -43681114.77746 -34013229.62143  23442477.1094                   23442476.5474
 -16492466.16047 -12843354.97345  21826381.2274                   21826380.4024
 -39436814.96947 -30698613.76245  22241725.2194                   22241723.5744
   3602626.76646   2815571.76243  24413932.4844                   24413934.5084
 -36448154.49248 -28367358.29746  20332557.8204                   20332556.4614
 -22955354.21547 -17858678.74245  22849416.9064                   22849416.3674
 -24481382.64548 -19044511.62546  21096676.4534                   21096672.9224
 11  7 25  1 10  0.0000000  0  9G12G09G28G10G17G05G04G27G02
  -6256338.02747  -4848068.52345  23083064.2344                   23083062.3324
 -15535646.49247 -12075122.46545  22430712.0084                   22430712.5274
 -43631715.82046 -33974736.96944  23451876.9844                   23451877.2114
 -16601332.26647 -12928185.64845  21805664.8284                   21805663.4184
 -39435603.60247 -30697669.84445  22241955.5784                   22241954.1214
   3456152.01246   2701435.80143  24386060.1254                   24386061.6094
 -36445429.52348 -28365234.94946  20333076.3444                   20333074.5234
 -22955316.29347 -17858649.21945  22849423.5864                   22849424.0084
 -24562871.77348 -19108009.62146  21081169.5864                   21081165.8954
 11  7 25  1 10 30.0000000  0  9G12G09G28G10G17G05G04G27G02
  -6387791.92247  -4950500.07845  23058049.2814                   23058047.6414
 -15533861.16447 -12073731.32045  22431052.4774                   22431052.4144
 -43582012.60546 -33936007.22744  23461335.6414                   23461335.4304
 -16709764.51247 -13012678.26245  21785030.7584                   21785029.3594
 -39434267.95747 -30696629.10245  22242210.0554                   22242208.1094
   3309660.29346   2587286.60243  24358182.5634                   24358184.7384
 -36442266.64148 -28362770.37546  20333677.9694                   20333676.2274
 -22954897.21947 -17858322.68045  22849503.3134                   22849503.2774
 -24643968.25448 -19171201.66846  21065737.4614                   21065733.8754
 11  7 25  1 11  0.0000000  0  9G12G09G28G10G17G05G04G27G02
  -6519052.51647  -5052780.99645  23033071.0164                   23033069.6914
 -15531530.75447 -12071915.43745  22431495.7974                   22431496.3484
 -43532000.33647 -33897036.66844  23470852.7034                   23470852.1844
 -16817753.51647 -13096825.50045  21764480.9844                   21764479.5904
 -39432801.37547 -30695486.33645  22242489.0554                   22242487.2384
   3163160.55146   2473131.17243  24330304.8524                   24330305.8634
 -36438661.87948 -28359961.46946  20334364.3444                   20334362.6374
 -22954092.87547 -17857695.94145  22849656.5944                   22849657.3324
 -24724665.71148 -19234082.77746  21050381.0554                   21050377.4304
 11  7 25  1 11 30.0000000  0  9G12G09G28G10G17G05G04G27G02
  -6650112.25047  -5154905.38745  23008130.8674                   23008129.7584
 -15528652.58647 -12069672.72345  22432043.4534                   22432043.3364
 -43481675.34847 -33857822.41844  23480429.7114                   23480428.3204
 -16925290.85947 -13180620.78545  21744016.8364                   21744015.8444
 -39431197.93047 -30694236.92245  22242794.1094                   22242792.5704
   3016660.56346   2358975.52743  24302426.2894                   24302427.7974
 -36434611.77048 -28356805.55546  20335135.0474                   20335133.1644
 -22952900.07447 -17856766.52044  22849883.1644                   22849883.8134
 -24804959.01248 -19296648.96946  21035101.9454                   21035098.4494
 11  7 25  1 12  0.0000000  0  9G12G09G28G10G17G05G04G27G02
  -6780973.41447  -5256875.07045  22983228.5944                   22983227.2424
 -15525234.20347 -12067009.05145  22432693.8674                   22432693.5514
 -43431044.21947 -33818369.60943  23490064.5234                   23490063.5594
 -17032378.89147 -13264065.95345  21723639.0004                   21723638.1214
 -39429462.30947 -30692884.52345  22243124.1724                   22243122.6564
   2870157.84846   2244817.75843  24274547.2504                   24274549.6914
 -36430123.81648 -28353308.45346  20335988.9454                   20335987.3204
 -22951325.92247 -17855539.93044  22850183.1644                   22850183.4884
 -24884853.14848 -19358904.12146  21019898.6644                   21019895.0664
 11  7 25  1 12 30.0000000  0  9G12G09G28G10G17G05G04G27G02
  -6911630.34047  -5358685.64545  22958365.8984                   22958364.2464
 -15521274.60547 -12063923.65645  22433447.2814                   22433447.2624
 -43380104.78947 -33778676.57043  23499757.9144                   23499756.7544
 -17139010.59847 -13347155.54345  21703347.7894                   21703346.5004
 -39427590.72347 -30691426.16445  22243481.2894                   22243478.6994
   2723659.58246   2130663.44944  24246669.8444                   24246671.2774
 -36425196.60548 -28349469.08246  20336926.5944                   20336925.0004
 -22949368.99247 -17854015.07444  22850555.3364                   22850555.3594
 -24964344.43748 -19420845.36346  21004771.6564                   21004768.2034
 11  7 25  1 13  0.0000000  0  9G12G09G28G10G17G05G04G27G02
  -7042087.58247  -5460340.61345  22933540.5784                   22933538.8834
 -15516783.78547 -12060424.31245  22434302.5394                   22434301.6844
 -43328866.04747 -33738750.27343  23509507.7814                   23509506.4844
 -17245190.69947 -13429893.22745  21683142.3524                   21683141.1414
 -39425589.77347 -30689867.00445  22243861.4924                   22243859.4694
   2577160.48046   2016508.46944  24218792.3054                   24218793.2384
 -36419839.62948 -28345294.82846  20337945.7664                   20337944.5824
 -22947038.85947 -17852199.41444  22850999.0314                   22850998.7344
 -25043440.27748 -19482478.46946  20989720.3754                   20989717.1094
 11  7 25  1 13 30.0000000  0  9G12G09G28G10G17G05G04G27G02
  -7172337.35947  -5561833.92245  22908755.0234                   22908752.7194
 -15511758.88747 -12056508.80145  22435258.2424                   22435258.8984
 -43277324.68746 -33698588.18443  23519315.9614                   23519315.5314
 -17350911.04747 -13512272.68045  21663024.1024                   21663023.2704
 -39423454.07047 -30688202.86345  22244268.2114                   22244265.9304
   2430668.17246   1902358.77344  24190915.3834                   24190916.1914
 -36414049.88748 -28340783.35246  20339047.7504                   20339046.2464
 -22944332.52047 -17850090.60544  22851514.1644                   22851513.2504
 -25122135.78948 -19543799.62546  20974744.8284                   20974741.7544
 11  7 25  1 14  0.0000000  0  9G12G09G28G10G17G05G04G27G02
  -7302379.50447  -5663165.38745  22884008.5314                   22884007.1454
 -15506204.39547 -12052180.64845  22436315.3914                   22436315.7774
 -43225483.96146 -33658192.80543  23529181.0864                   23529180.3674
 -17456170.33647 -13594292.85945  21642994.0704                   21642992.7894
 -39421184.88347 -30686434.69545  22244699.8364                   22244698.1174
   2284183.85946   1788215.32844  24163039.8444                   24163041.6954
 -36407831.43748 -28335937.82046  20340231.1564                   20340229.4884
 -22941254.15247 -17847691.89545  22852100.0634                   22852099.4774
 -25200432.76248 -19604810.23446  20959845.3444                   20959841.7774
 11  7 25  1 14 30.0000000  0  9G12G09G28G10G17G05G04G27G02
  -7432213.78147  -5764334.88345  22859301.8754                   22859300.3244
 -15500125.52747 -12047443.86345  22437471.8674                   22437471.5634
 -43173347.65646 -33617567.15243  23539102.2344                   23539101.3634
 -17560968.25047 -13675953.52045  21623051.7344                   21623050.6994
 -39418784.24647 -30684564.09045  22245156.6334                   22245155.0234
   2137708.05546   1674078.51644  24135167.3984                   24135168.3524
 -36401189.01648 -28330761.91446  20341495.2194                   20341493.2664
 -22937808.22747 -17845006.79745  22852755.8914                   22852755.2894
 -25278333.67648 -19665512.22746  20945021.3594                   20945018.1094
 11  7 25  1 15  0.0000000  0  9G12G09G28G10G17G05G04G27G02
  -7561831.45347  -5865335.60245  22834636.8444                   22834634.8874
 -15493518.64547 -12042295.63345  22438729.3204                   22438728.5354
 -43120911.26646 -33576707.59043  23549081.1174                   23549079.8484
 -17665295.71147 -13757247.59045  21603198.7194                   21603197.4534
 -39416245.63747 -30682585.99245  22245639.4304                   22245638.0234
   1991249.57046   1559955.19544  24107296.3834                   24107297.9224
 -36394118.60248 -28325252.50046  20342840.6334                   20342838.6254
 -22933990.94147 -17842032.33645  22853482.1564                   22853482.0124
 -25355832.43448 -19725900.84446  20930273.8674                   20930270.4534
 11  7 25  1 15 30.0000000  0  9G12G09G28G10G17G05G04G27G02
  -7691228.80147  -5966164.64845  22810012.9614                   22810010.9224
 -15486385.27047 -12036737.15245  22440086.3364                   22440086.2114
 -43068175.38346 -33535614.71143  23559116.2274                   23559115.2624
 -17769148.27047 -13838171.60545  21583436.3284                   21583435.0044
 -39413567.26247 -30680498.97345  22246149.1644                   22246147.7854
   1844812.55547   1445848.60544  24079430.3914                   24079432.3244
 -36386620.99248 -28319410.21146  20344267.3444                   20344265.5904
 -22929803.27347 -17838769.25845  22854279.1484                   22854278.8914
 -25432927.57448 -19785974.96546  20915603.3054                   20915599.9494
 11  7 25  1 16  0.0000000  0  9G12G09G28G10G17G05G04G27G02
  -7820414.50447  -6066828.80145  22785429.6954                   22785427.5394
 -15478739.21547 -12030779.19145  22441541.5634                   22441541.7814
 -43015152.85246 -33494298.45343  23569205.8524                   23569205.4574
 -17872534.20747 -13918732.01645  21563762.5944                   21563761.1054
 -39410759.99647 -30678311.52045  22246683.7194                   22246681.7234
   1698388.49646   1331752.10244  24051566.5474                   24051568.4804
 -36378709.80948 -28313245.66446  20345772.8674                   20345771.0514
 -22925258.73847 -17835228.10245  22855144.3914                   22855143.5394
 -25509630.68048 -19845743.59046  20901006.9924                   20901003.3714
 11  7 25  1 16 30.0000000  0  9G12G09G28G10G17G05G04G27G02
  -7949379.48047  -6167320.96145  22760888.4064                   22760886.4964
 -15470576.66447 -12024418.76645  22443094.9224                   22443095.0824
 -42961838.48046 -33452754.80143  23579351.1334                   23579350.7154
 -17975443.76647 -13998921.22745  21544179.6414                   21544178.0314
 -39407816.61748 -30676018.00045  22247243.5314                   22247241.9384
   1551986.85246   1217673.07444  24023706.9384                   24023708.7384
 -36370380.63748 -28306755.40646  20347357.6804                   20347356.2704
 -22920352.85247 -17831405.38745  22856077.5554                   22856077.2704
 -25585935.32448 -19905201.73446  20886486.8914                   20886483.4534
 11  7 25  1 17  0.0000000  0  9G12G09G28G10G17G05G04G27G02
  -8078114.26647  -6267633.73045  22736391.2424                   22736389.1954
 -15461893.59047 -12017652.72345  22444747.2344                   22444746.9414
 -42908227.14146 -33410979.75843  23589552.8134                   23589552.2894
 -18077867.60947 -14078731.95345  21524688.5634                   21524687.0784
 -39404729.71548 -30673612.64845  22247831.2194                   22247829.7464
   1405617.29346   1103619.05144  23995853.4454                   23995854.9224
 -36361628.86348 -28299935.85546  20349023.1024                   20349021.4064
 -22915080.94947 -17827297.47344  22857080.6724                   22857081.0744
 -25661834.62548 -19964344.01646  20872043.6564                   20872039.6804
 11  7 25  1 17 30.0000000  0  9G12G09G28G10G17G05G04G27G02
  -8206623.34847  -6367770.62145  22711936.8134                   22711935.1724
 -15452699.58247 -12010488.54745  22446497.0634                   22446496.3444
 -42854327.55946 -33368980.10243  23599809.9144                   23599809.3834
 -18179809.42647 -14158167.07045  21505289.5634                   21505288.4384
 -39401505.62548 -30671100.36745  22248444.8364                   22248443.1524
   1259275.94547    989587.00444  23968005.4614                   23968006.6914
 -36352463.70348 -28292794.15646  20350767.1564                   20350765.1374
 -22909452.35247 -17822911.59044  22858151.9454                   22858151.8594
 -25737335.62948 -20023175.92246  20857676.5004                   20857672.8444
 11  7 25  1 18  0.0000000  0  9G12G09G28G10G17G05G04G27G02
  -8334905.27047  -6467730.53545  22687525.4844                   22687524.1484
 -15442998.24647 -12002929.10245  22448342.9534                   22448342.7424
 -42800142.23046 -33326757.79343  23610121.3284                   23610120.4774
 -18281267.82847 -14237225.53545  21485983.0784                   21485981.8244
 -39398145.33248 -30668481.98045  22249084.0314                   22249082.4144
   1112964.21147    875578.01644  23940163.5474                   23940164.8324
 -36342888.36748 -28285332.87146  20352589.3914                   20352587.3404
 -22903470.53547 -17818250.51644  22859290.0944                   22859289.9304
 -25812439.51648 -20081698.42246  20843384.3054                   20843380.6914
 11  7 25  1 18 30.0000000  0  9G12G09G28G10G17G05G04G27G02
  -8462956.51247  -6567510.69145  22663157.8834                   22663156.1884
 -15432791.19147 -11994975.56645  22450285.7194                   22450285.1054
 -42745671.96946 -33284313.44543  23620486.5314                   23620485.8054
 -18382238.47747 -14315903.91045  21466769.0474                   21466767.6054
 -39394646.82447 -30665755.87945  22249749.4924                   22249748.2704
    966685.91847    761595.12544  23912327.3984                   23912328.9224
 -36332903.78148 -28277552.67646  20354489.2034                   20354487.6454
 -22897136.62547 -17813315.05144  22860495.5394                   22860495.6134
 -25887145.41448 -20139910.78146  20829168.3054                   20829164.5634
 11  7 25  1 19  0.0000000  0  9G12G09G28G10G17G05G04G27G02
  -8590777.78947  -6667111.64545  22638834.6884                   22638832.5204
 -15422084.59047 -11986632.77345  22452322.8524                   22452322.3014
 -42690921.44946 -33241650.75043  23630904.9774                   23630904.2894
 -18482721.86347 -14394202.60945  21447647.1334                   21447645.6484
 -39391013.43447 -30662924.67645  22250441.0634                   22250439.5394
    820440.61347    647637.90244  23884497.9064                   23884499.1294
 -36322515.69948 -28269458.05546  20356466.0234                   20356464.0944
 -22890456.25047 -17808109.62144  22861766.8594                   22861766.4534
 -25961456.84448 -20197815.76246  20815027.5944                   20815023.5314
 11  7 25  1 19 30.0000000  0  9G12G09G28G10G17G05G04G27G02
  -8718366.92247  -6766531.72345  22614554.7734                   22614553.0474
 -15410881.48047 -11977903.08645  22454454.8204                   22454453.5474
 -42635892.56646 -33198771.11343  23641376.9384                   23641376.1564
 -18582715.69947 -14472119.84845  21428619.1954                   21428617.6254
 -39387244.72347 -30659988.03545  22251158.2344                   22251156.7114
    674231.02747    533708.49644  23856674.9844                   23856675.5594
 -36311726.84848 -28261051.14846  20358518.9844                   20358517.4534
 -22883432.00447 -17802636.25844  22863103.8444                   22863103.3914
 -26035374.29748 -20255413.75046  20800961.4384                   20800957.3754
 11  7 25  1 20  0.0000000  0  9G12G09G28G10G17G05G04G27G02
  -8845716.27047  -6865764.96145  22590321.1724                   22590318.8714
 -15399179.79347 -11968784.89545  22456681.2114                   22456680.2704
 -42580582.75446 -33155672.57843  23651901.4614                   23651901.0704
 -18682212.18747 -14549649.53545  21409685.4534                   21409684.4344
 -39383335.50447 -30656941.90645  22251902.4844                   22251900.7464
    528064.77747    419812.86344  23828860.1564                   23828861.0664
 -36300534.41048 -28252329.76646  20360649.0004                   20360647.3014
 -22876061.44547 -17796893.02345  22864506.1724                   22864506.5744
 -26108893.07448 -20312701.07446  20786971.2194                   20786967.3754
 11  7 25  1 20 30.0000000  0  9G12G09G28G10G17G05G04G27G02
  -8972818.86347  -6964805.91845  22566134.3444                   22566132.3054
 -15386977.93747 -11959276.97744  22459003.2034                   22459002.1174
 -42524989.02746 -33112352.82843  23662480.9614                   23662480.3284
 -18781204.10947 -14626786.05545  21390848.0704                   21390846.4454
 -39379280.49647 -30653782.17645  22252673.9384                   22252672.0634
    381949.38747    305956.85944  23801055.6174                   23801055.8674
 -36288936.19548 -28243292.19946  20362855.9304                   20362854.5004
 -22868342.34847 -17790878.20744  22865975.0704                   22865975.0784
 -26182008.98048 -20369674.47746  20773057.3204                   20773053.7664
 11  7 25  1 21  0.0000000  0  9G12G09G28G10G17G05G04G27G02
  -9099678.61747  -7063657.65245  22541993.6484                   22541991.6764
 -15374284.98447 -11949386.39145  22461418.9534                   22461417.3364
 -42469119.34046 -33068818.05543  23673112.5704                   23673111.8554
 -18879694.70747 -14703531.92245  21372105.5004                   21372104.5744
 -39375085.44947 -30650513.31645  22253472.3674                   22253470.8524
    235880.97747    192137.45344  23773259.4774                   23773259.8284
 -36276940.80948 -28233945.15246  20365138.6804                   20365136.7074
 -22860283.17247 -17784598.39544  22867508.7584                   22867508.1684
 -26254728.46948 -20426338.98446  20759219.5164                   20759215.8014
 11  7 25  1 21 30.0000000  0  9G12G09G28G10G17G05G04G27G02
  -9226287.25447  -7162313.69545  22517900.5784                   22517899.1484
 -15361098.20747 -11939110.98444  22463928.6804                   22463926.9384
 -42412969.55946 -33025064.99643  23683798.3444                   23683796.7664
 -18977675.64847 -14779880.66045  21353460.8594                   21353459.3404
 -39370744.62947 -30647130.84445  22254298.3284                   22254296.2464
     89868.28547     78361.47344  23745474.6724                   23745474.6524
 -36264545.06248 -28224286.10946  20367497.5784                   20367495.4694
 -22851880.77047 -17778051.10244  22869107.6644                   22869107.1914
 -26327045.97748 -20482690.25446  20745457.6724                   20745453.9454
 11  7 25  1 22  0.0000000  0  9G12G09G28G10G17G05G04G27G02
  -9352647.89847  -7260776.50845  22493854.9614                   22493853.4964
 -15347426.59447 -11928457.82045  22466529.6254                   22466528.3054
 -42356547.49646 -32981099.80543  23694533.8524                   23694533.4884
 -19075150.17247 -14855834.79745  21334911.7194                   21334910.4804
 -39366263.05947 -30643638.70345  22255151.1564                   22255149.4844
    -56091.51247    -35373.32844  23717698.4924                   23717699.6994
 -36251756.80148 -28214321.23046  20369931.0864                   20369929.4454
 -22843143.53547 -17771242.94944  22870770.2194                   22870769.9104
 -26398967.48448 -20538732.96946  20731771.7034                   20731768.3054
 11  7 25  1 22 30.0000000  0  9G12G09G28G10G17G05G04G27G02
  -9478755.31247  -7359042.00845  22469857.6724                   22469855.8444
 -15333269.95747 -11917426.71545  22469223.3284                   22469222.8554
 -42299851.49646 -32936921.18043  23705323.4694                   23705322.7894
 -19172112.69947 -14931389.97345  21316460.2194                   21316458.7624
 -39361637.39548 -30640034.28145  22256031.5634                   22256029.3834
   -201992.68047   -149062.40244  23689934.6024                   23689935.7234
 -36238575.39548 -28204050.00046  20372439.6724                   20372437.5944
 -22834070.79347 -17764173.32445  22872496.4614                   22872497.0004
 -26470490.50848 -20594465.17246  20718161.2194                   20718157.7424
 11  7 25  1 23  0.0000000  0  9G12G09G28G10G17G05G04G27G02
  -9604613.32847  -7457113.17645  22445907.4774                   22445905.4774
 -15318637.36747 -11906024.71945  22472008.1094                   22472007.6524
 -42242890.36546 -32892535.95743  23716162.6884                   23716162.3874
 -19268566.39147 -15006548.64145  21298105.7424                   21298104.7384
 -39356873.69147 -30636322.28945  22256937.9614                   22256936.0004
   -347839.01247   -262708.75044  23662180.3524                   23662181.7974
 -36225009.69948 -28193479.32046  20375020.7974                   20375019.0314
 -22824671.40247 -17756849.18744  22874285.7274                   22874285.3874
 -26541621.95348 -20649892.24646  20704625.2504                   20704621.8984
 11  7 25  1 23 30.0000000  0  9G12G09G28G10G17G05G04G27G02
  -9730214.18047  -7554983.95345  22422006.7424                   22422004.7774
 -15303526.68447 -11894250.21545  22474883.4774                   22474883.3324
 -42185660.74646 -32847941.50043  23727053.2504                   23727052.5314
 -19364503.89847 -15081305.09445  21279849.2664                   21279848.7974
 -39351966.25447 -30632498.31245  22257871.8524                   22257869.9024
   -493622.34446   -376306.01644  23634438.3674                   23634439.9344
 -36211056.62948 -28182606.79746  20377676.0164                   20377674.5944
 -22814942.69547 -17749268.45344  22876136.5634                   22876136.9184
 -26612356.86748 -20705010.33646  20691165.2344                   20691161.5944
 11  7 25  1 24  0.0000000  0  9G12G09G28G10G17G05G04G27G02
  -9855561.41447  -7652657.10245  22398153.5554                   22398151.7424
 -15287946.89547 -11882110.16445  22477848.6334                   22477847.6764
 -42128170.46546 -32803143.95743  23737993.6724                   23737992.7154
 -19459928.72348 -15155662.05146  21261690.8984                   21261689.5944
 -39346920.70347 -30628566.72745  22258831.8204                   22258830.2424
   -639346.01647   -489856.77044  23606707.9064                   23606709.3874
 -36196724.81248 -28171439.15646  20380403.2504                   20380401.3444
 -22804893.37547 -17741437.87144  22878049.0944                   22878049.4804
 -26682701.59448 -20759824.38746  20677778.8524                   20677775.5904
 11  7 25  1 24 30.0000000  0  9G12G09G28G10G17G05G04G27G02
  -9980647.94147  -7750127.10245  22374350.7034                   22374349.1134
 -15271896.56647 -11869603.45745  22480902.8204                   22480902.3284
 -42070416.60946 -32758141.06243  23748983.6024                   23748983.0474
 -19554833.55948 -15229613.82845  21243630.7894                   21243629.9454
 -39341731.95747 -30624523.55945  22259819.5474                   22259817.7934
   -785002.60947   -603355.27344  23578990.7194                   23578992.0824
 -36182012.04348 -28159974.65646  20383202.9844                   20383201.6524
 -22794521.18047 -17733355.70744  22880022.9844                   22880023.0744
 -26752651.82448 -20814331.04346  20664467.6884                   20664463.8164
 11  7 25  1 25  0.0000000  0  9G12G09G28G10G17G05G04G27G02
  -8530044.96947  -6619787.09445  22650391.3134                   22650389.4304
 -13679957.31647 -10629131.35945  22783838.5314                   22783837.9454
 -40436980.84446 -31485334.03543  24059816.4694                   24059815.2544
 -18073790.83648 -14075554.51645  21525463.7814                   21525462.5784
 -37760977.46947 -29392766.84445  22560626.7504                   22560624.7584
    644837.74647    510806.18444  23851080.2734                   23851081.3244
 -34591498.98448 -26920613.82446  20685867.5784                   20685865.9024
 -21208406.83247 -16497422.51644  23181850.4774                   23181851.2274
 -25246783.46948 -19640927.11346  20951024.9454                   20951021.3554
 11  7 25  1 25 30.0000000  0  9G12G09G28G10G17G05G04G27G02
  -8654596.48447  -6716840.19145  22626689.8834                   22626687.7704
 -13662968.77747 -10615893.59445  22787071.2584                   22787071.2464
 -40378699.09046 -31439919.74643  24070906.9384                   24070905.9654
 -18167642.02748 -14148685.25845  21507604.6884                   21507603.3524
 -37755494.55947 -29388494.44945  22561670.3204                   22561668.5784
    499330.09847    397423.74244  23823390.9774                   23823391.6564
 -34576024.88348 -26908556.08246  20688811.9614                   20688810.9574
 -21197390.10947 -16488838.11344  23183946.5084                   23183948.0044
 -25315939.63748 -19694815.00846  20937864.8284                   20937861.1684
 11  7 25  1 26  0.0000000  0  9G12G09G28G10G17G05G04G27G02
  -8778879.78147  -6813684.29345  22603039.4304                   22603037.3134
 -13645518.59847 -10602296.10245  22790392.6564                   22790391.9304
 -40320159.33246 -31394304.40243  24082046.6174                   24082045.9344
 -18260965.61748 -14221404.89145  21489845.7114                   21489844.2974
 -37749867.19547 -29384109.50045  22562740.9614                   22562739.1454
    353898.17647    284100.30144  23795716.6644                   23795716.8674
 -34560176.65648 -26896206.81646  20691827.8914                   20691826.4534
 -21186057.85947 -16480007.84844  23186103.1804                   23186104.0164
 -25384702.50848 -19748396.45746  20924780.1024                   20924775.9804
 11  7 25  1 26 30.0000000  0  9G12G09G28G10G17G05G04G27G02
  -8902890.69547  -6910316.13745  22579441.1644                   22579438.9774
 -13627608.53147 -10588340.25845  22793800.4534                   22793800.3164
 -40261362.04746 -31348488.34843  24093234.7894                   24093234.6024
 -18353757.62948 -14293710.30945  21472187.7814                   21472186.2114
 -37744093.18047 -29379610.28545  22563839.6724                   22563838.0784
    208546.18047    170839.14844  23768056.6804                   23768057.0354
 -34543955.41848 -26883566.88746  20694914.7894                   20694913.2384
 -21174411.20347 -16470932.60244  23188320.0784                   23188319.7114
 -25453071.15648 -19801670.70346  20911769.6254                   20911765.9884
 11  7 25  1 27  0.0000000  0  9G12G09G28G10G17G05G04G27G02
  -9026625.85547  -7006733.11345  22555894.8134                   22555893.1684
 -13609240.97347 -10574027.92645  22797295.5864                   22797295.6294
 -40202308.46946 -31302472.60543  24104472.8674                   24104472.5044
 -18446014.39848 -14365598.65246  21454631.9614                   21454630.8244
 -37738171.43747 -29374995.96145  22564967.1334                   22564964.9104
     63277.89847     57643.23044  23740412.9534                   23740412.8914
 -34527362.63748 -26870637.44146  20698072.5004                   20698070.8674
 -21162452.08247 -16461613.84444  23190595.2344                   23190596.3364
 -25521044.91048 -19854637.23846  20898834.7114                   20898830.2974
 11  7 25  1 27 30.0000000  0  9G12G09G28G10G17G05G04G27G02
  -9150088.41447  -7102937.65645  22532400.4924                   22532398.5004
 -13590424.35247 -10559365.66045  22800876.2344                   22800876.6134
 -40143005.64546 -31256262.62543  24115757.6334                   24115757.6374
 -18537739.12548 -14437072.41845  21437177.1094                   21437176.1564
 -37732106.84447 -29370270.32445  22566121.0004                   22566118.7624
    -81909.35247    -55489.57844  23712784.8054                   23712784.9064
 -34510406.02048 -26857424.49246  20701298.9614                   20701297.3914
 -21150188.36347 -16452057.76244  23192929.2504                   23192929.5594
 -25588629.62948 -19907300.63746  20885973.6724                   20885969.5434
 11  7 25  1 28  0.0000000  0  9G12G09G28G10G17G05G04G27G02
  -9273270.35547  -7198923.53145  22508960.0634                   22508958.0864
 -13571156.24647 -10544351.60245  22804542.9304                   22804542.9224
 -40083450.41446 -31209855.97343  24127090.7894                   24127090.2814
 -18628923.93048 -14508125.46945  21419825.2814                   21419823.8794
 -37725893.59847 -29365428.84845  22567303.0474                   22567301.1134
   -227007.41847   -168552.89544  23685173.3834                   23685173.0004
 -34493082.58648 -26843925.71546  20704595.5784                   20704593.8674
 -21137617.02347 -16442261.97344  23195321.4304                   23195321.9884
 -25655820.57448 -19959657.19146  20873187.7424                   20873183.5744
 11  7 25  1 28 30.0000000  0  9G12G09G28G10G17G05G04G27G02
  -9396165.45747  -7294685.90245  22485573.5474                   22485572.0634
 -13551436.40247 -10528985.53545  22808296.2344                   22808295.8284
 -40023640.68746 -31163250.99642  24138472.2504                   24138471.7934
 -18719562.80948 -14578753.13345  21402577.3444                   21402576.0164
 -37719527.68047 -29360468.41445  22568514.5394                   22568512.9774
   -372009.70747   -281541.56644  23657580.4384                   23657580.0864
 -34475391.07848 -26830140.12946  20707962.2664                   20707960.4964
 -21124737.15647 -16432225.77344  23197772.6094                   23197773.3524
 -25722614.55548 -20011704.43046  20860477.1024                   20860473.3674
 11  7 25  1 29  0.0000000  0  9G12G09G28G10G17G05G04G27G02
  -9518778.73047  -7390228.66845  22462241.1174                   22462239.2934
 -13531274.88347 -10513275.30545  22812132.1804                   22812131.7194
 -39963585.85546 -31116455.01243  24149899.7504                   24149899.8524
 -18809660.45747 -14648959.03945  21385432.3204                   21385430.8554
 -37713015.47347 -29355393.98445  22569753.5784                   22569752.1174
   -516920.66447   -394459.08244  23630004.2194                   23630004.1374
 -34457341.13348 -26816075.23846  20711397.0164                   20711395.6374
 -21111558.76647 -16421956.96144  23200281.0004                   23200280.6174
 -25789019.33248 -20063448.39546  20847840.6884                   20847836.5824
 11  7 25  1 29 30.0000000  0  9G12G09G28G10G17G05G04G27G02
  -9641103.14547  -7485546.33645  22438963.1724                   22438961.3984
 -13510670.66047 -10497220.11344  22816053.3524                   22816052.9494
 -39903283.50846 -31069466.18043  24161374.7814                   24161375.0704
 -18899210.25848 -14718738.06646  21368391.5164                   21368389.7074
 -37706352.93047 -29350202.41845  22571021.8134                   22571019.8324
   -661733.01647   -507299.75444  23602446.8204                   23602447.5124
 -34438930.86348 -26801729.57046  20714900.4224                   20714898.6024
 -21098079.94147 -16411454.03144  23202845.2814                   23202845.5904
 -25855031.02348 -20114886.05546  20835279.0084                   20835275.1484
 11  7 25  1 30  0.0000000  0  9G12G09G28G10G17G05G04G27G02
  -9763141.10247  -7580640.79345  22415740.4224                   22415737.8984
 -13489632.00847 -10480826.39844  22820056.7974                   22820056.6414
 -39842740.74246 -31022289.98443  24172896.5084                   24172895.7154
 -18988214.81648 -14788092.22346  21351454.5234                   21351453.1334
 -37699544.31247 -29344897.01245  22572317.4924                   22572315.9344
   -806449.23847   -620065.52344  23574908.2504                   23574908.4804
 -34420167.78548 -26787108.98446  20718470.6024                   20718469.2234
 -21084308.43047 -16400723.03944  23205466.4064                   23205466.1994
 -25920655.23848 -20166021.78546  20822791.3054                   20822787.3244
 11  7 25  1 30 30.0000000  0  9G12G09G28G10G17G05G04G27G02
  -9884891.57447  -7675511.23845  22392572.1564                   22392570.0904
 -13468163.03147 -10464097.36744  22824142.2894                   22824142.1214
 -39781960.79746 -30974928.98443  24184462.8524                   24184462.8054
 -19076673.07048 -14857020.68745  21334621.6094                   21334620.2814
 -37692590.12547 -29339478.18445  22573640.7894                   22573639.1054
   -951067.43447   -732754.90244  23547388.1254                   23547388.2734
 -34401055.37548 -26772216.19146  20722107.9774                   20722105.9804
 -21070248.10947 -16389766.99244  23208141.9304                   23208142.2194
 -25985893.61748 -20216856.86346  20810376.9454                   20810372.7934
 11  7 25  1 31  0.0000000  0  9G12G09G28G10G17G05G04G27G02
 -10006347.07447  -7770151.84445  22369460.0554                   22369457.7304
 -13446262.30547 -10447031.91044  22828309.9224                   22828309.9344
 -39720940.61346 -30927380.84443  24196074.1644                   24196074.4774
 -19164577.80148 -14925517.84846  21317893.8674                   21317892.3594
 -37685485.25447 -29333941.92645  22574993.2664                   22574991.2584
  -1095579.98447   -845361.95344  23519888.4224                   23519888.8954
 -34381591.19548 -26757049.30146  20725811.6884                   20725810.0594
 -21055896.60547 -16378584.05544  23210872.9064                   23210873.1484
 -26050741.92648 -20267387.99646  20798036.7274                   20798032.9384
 11  7 25  1 31 30.0000000  0  9G12G09G28G10G17G05G04G27G02
 -10127505.29747  -7864560.80145  22346404.1644                   22346402.0354
 -13423933.43047 -10429632.83644  22832559.1254                   22832558.2544
 -39659682.52346 -30879647.28542  24207731.6954                   24207730.9344
 -19251926.73448 -14993581.91446  21301271.6484                   21301270.5704
 -37678229.44547 -29328288.05145  22576373.8284                   22576371.9344
  -1239984.37947   -957884.71544  23492409.3134                   23492409.9454
 -34361777.94548 -26741610.39546  20729581.8834                   20729580.6684
 -21041256.63347 -16367176.33644  23213658.8054                   23213659.4964
 -26115200.66848 -20317615.56646  20785770.5084                   20785766.8714
 11  7 25  1 32  0.0000000  0  9G12G09G28G10G17G05G04G27G02
 -10248359.14147  -7958732.59445  22323406.5004                   22323404.2814
 -13401174.94147 -10411898.99644  22836889.8524                   22836889.5514
 -39598183.85946 -30831726.25843  24219434.3444                   24219433.5594
 -19338713.03148 -15061207.55546  21284756.7894                   21284755.1764
 -37670817.56647 -29322512.55945  22577783.8284                   22577782.2894
  -1384272.93746  -1070317.22344  23464951.6414                   23464952.3594
 -34341613.22748 -26725897.62946  20733419.2814                   20733417.5864
 -21026326.53947 -16355542.50844  23216500.3134                   23216500.4774
 -26179265.94148 -20367536.53946  20773579.4144                   20773575.4534
 11  7 25  1 32 30.0000000  0  9G12G09G28G10G17G05G04G27G02
 -10368912.48047  -8052670.23045  22300465.8914                   22300463.3954
 -13377996.20347 -10393837.68744  22841300.2194                   22841300.7544
 -39536452.87546 -30783624.20343  24231181.1174                   24231180.4574
 -19424940.70748 -15128397.91046  21268347.8134                   21268346.7974
 -37663255.73447 -29316620.23845  22579223.1564                   22579221.4614
  -1528449.08647  -1182662.12944  23437516.1484                   23437516.3094
 -34321105.78548 -26709917.80146  20737321.4614                   20737320.1174
 -21011114.98447 -16343689.39144  23219394.8674                   23219394.9304
 -26242944.69548 -20417156.32046  20761461.7734                   20761457.9024
 11  7 25  1 33  0.0000000  0  9G12G09G28G10G17G05G04G27G02
 -10489168.05947  -8146375.84045  22277582.1564                   22277579.6334
 -13354405.97347 -10375455.74644  22845789.6024                   22845789.7274
 -39474496.99246 -30735346.93743  24242970.1414                   24242970.2504
 -19510613.30148 -15195155.73446  21252045.1884                   21252043.5004
 -37655548.37147 -29310614.50445  22580689.9924                   22580688.2114
  -1672515.46147  -1294921.49645  23410100.8834                   23410101.0084
 -34300263.47348 -26693677.05146  20741287.9304                   20741286.3714
 -20995630.02747 -16331623.24644  23222341.4924                   23222341.5474
 -26306242.77048 -20466479.46546  20749416.5084                   20749412.8094
 11  7 25  1 33 30.0000000  0  9G12G09G28G10G17G05G04G27G02
 -10609111.68747  -8239838.36745  22254757.5004                   22254755.0784
 -13330395.91447 -10356746.67245  22850359.1724                   22850358.4774
 -39412306.76246 -30686887.04343  24254805.1334                   24254805.3444
 -19595716.71948 -15261470.04346  21235850.6564                   21235849.2384
 -37647684.39147 -29304486.73445  22582185.9844                   22582184.5784
  -1816457.71147  -1407084.14545  23382709.5004                   23382709.8284
 -34279077.39548 -26677168.41446  20745319.7274                   20745317.6644
 -20979863.02347 -16319337.30544  23225341.5634                   23225342.5744
 -26369149.65648 -20515497.78946  20737445.4224                   20737441.3524
 11  7 25  1 34  0.0000000  0  9G12G09G28G10G17G05G04G27G02
 -10728743.69947  -8333058.08645  22231992.3204                   22231989.9344
 -13305971.68447 -10337714.86744  22855006.4924                   22855006.5474
 -39349886.98846 -30638248.31643  24266684.2584                   24266682.5124
 -19680251.18748 -15327341.02046  21219764.2274                   21219762.9024
 -37639665.15247 -29298237.97345  22583712.0084                   22583710.3754
  -1960275.34447  -1519149.68745  23355341.6334                   23355341.8674
 -34257551.91048 -26660395.31646  20749415.6884                   20749414.0044
 -20963819.02047 -16306835.52044  23228394.7974                   23228395.7304
 -26431667.93748 -20564213.30146  20725548.9064                   20725544.2274
 11  7 25  1 34 30.0000000  0  9G12G09G28G10G17G05G04G27G02
 -10848069.47748  -8426039.18445  22209284.8204                   22209283.3524
 -13281144.72747 -10318369.21144  22859731.1414                   22859730.5004
 -39287247.27046 -30589438.15243  24278603.6484                   24278602.7704
 -19764222.46948 -15392773.14546  21203784.7344                   21203783.3204
 -37631498.20747 -29291874.12545  22585266.2974                   22585264.8204
  -2103973.60247  -1631122.21545  23327997.1564                   23327997.1134
 -34235697.83648 -26643366.17646  20753574.2814                   20753572.7344
 -20947508.59047 -16294126.14844  23231497.9384                   23231499.7234
 -26493806.10248 -20612632.62146  20713724.3204                   20713719.7664
 11  7 25  1 35  0.0000000  0  9G12G09G28G10G17G05G04G27G02
 -10967080.98847  -8518775.37945  22186637.9924                   22186636.0984
 -13255913.16847 -10298708.29344  22864532.3134                   22864531.6804
 -39224384.69946 -30540454.30943  24290565.2034                   24290565.2194
 -19847623.38748 -15457760.84046  21187914.0474                   21187912.7234
 -37623178.10947 -29285390.93045  22586849.4614                   22586848.0554
  -2247544.25047  -1742995.28945  23300676.8524                   23300676.4804
 -34213512.38748 -26626078.83646  20757796.0474                   20757794.4534
 -20930929.44147 -16281207.37544  23234653.8054                   23234653.7854
 -26555560.04348 -20660752.54746  20701972.8284                   20701968.7194
 11  7 25  1 35 30.0000000  0  9G12G09G28G10G17G05G04G27G02
 -11085772.95747  -8611262.60245  22164051.6564                   22164049.6644
 -13230276.59847 -10278731.80944  22869410.6954                   22869410.6414
 -39161298.00846 -30491295.84843  24302571.5234                   24302569.7424
 -19930448.37548 -15522299.75045  21172153.2424                   21172152.0004
 -37614700.74247 -29278785.18045  22588462.4924                   22588461.3554
  -2390981.21147  -1854764.22345  23273380.8364                   23273380.7584
 -34190994.42648 -26608532.39146  20762081.1954                   20762079.5554
 -20914080.85547 -16268078.65644  23237860.1644                   23237860.5864
 -26616926.93748 -20708570.87946  20690294.9144                   20690291.1094
 11  7 25  1 36  0.0000000  0  9G12G09G28G10G17G05G04G27G02
 -11204145.91447  -8703501.25045  22141525.8834                   22141523.9694
 -13204242.11747 -10258445.25044  22874364.9144                   22874365.4774
 -39097992.45346 -30441966.80942  24314617.4844                   24314616.8014
 -20012699.06648 -15586391.16046  21156501.2114                   21156499.6294
 -37606069.55547 -29272059.56645  22590105.4304                   22590103.2384
  -2534285.29347  -1966429.58644  23246111.5394                   23246110.9884
 -34168149.77348 -26590731.38346  20766428.5004                   20766426.7814
 -20896969.00847 -16254744.77744  23241115.9224                   23241116.4654
 -26677910.90248 -20756090.82446  20678690.2734                   20678686.1764
 11  7 25  1 36 30.0000000  0  8G12G09G10G17G05G04G27G02
 -11322198.21548  -8795490.02345  22119061.5784                   22119059.1454
 -13177813.82047 -10237851.84044  22879393.7814                   22879394.4264
 -20094373.94548 -15650033.87945  21140959.3754                   21140957.6764
 -37597284.68047 -29265214.18745  22591777.1564                   22591774.8754
  -2677454.12147  -2077989.57845  23218867.0554                   23218866.7464
 -34144981.72748 -26572678.37546  20770837.2274                   20770835.6094
 -20879597.37547 -16241208.47744  23244422.0554                   23244422.2734
 -26738513.16448 -20803313.33246  20667157.9844                   20667154.1524
 11  7 25  1 37  0.0000000  0  8G12G09G10G17G05G04G27G02
 -11439924.44147  -8887224.72345  22096658.8914                   22096656.9024
 -13150991.84047 -10216951.62144  22884498.0704                   22884498.2504
 -20175468.21548 -15713224.18446  21125527.2734                   21125525.5744
 -37588342.60247 -29258246.32445  22593478.5704                   22593476.9804
  -2820481.61347  -2189439.42644  23191649.3204                   23191649.4104
 -34121489.62948 -26554372.85946  20775307.2584                   20775305.5554
 -20861965.69547 -16227469.56644  23247777.2814                   23247778.2814
 -26798731.59848 -20850236.76246  20655698.6024                   20655694.9304
 11  7 25  1 37 30.0000000  0  8G12G09G10G17G05G04G27G02
 -11557326.65247  -8978706.92245  22074317.8284                   22074315.8164
 -13123784.18046 -10195750.88744  22889675.4614                   22889675.6644
 -20255984.33248 -15775963.97346  21110205.7114                   21110204.0744
 -37579247.62147 -29251159.32045  22595209.0084                   22595207.5984
  -2963370.08647  -2300780.96944  23164458.6804                   23164457.9774
 -34097680.78948 -26535820.53146  20779838.3754                   20779836.5314
 -20844081.41047 -16213533.81644  23251180.7974                   23251181.0554
 -26858571.77748 -20896865.44946  20644311.5004                   20644307.8914
 11  7 25  1 38  0.0000000  0  8G12G09G10G17G05G04G27G02
 -11674392.37148  -9069926.92245  22052041.0314                   22052039.0394
 -13096184.11746 -10174244.39544  22894928.1804                   22894928.0004
 -20335909.82448 -15838243.53146  21094996.0554                   21094994.7624
 -37569989.21547 -29243944.99645  22596970.3914                   22596969.3014
  -3106106.38747  -2412003.92645  23137296.9064                   23137296.5394
 -34073547.10948 -26517015.09046  20784430.6254                   20784429.1884
 -20825936.98047 -16199395.35244  23254633.2584                   23254633.7344
 -26918023.72348 -20943191.61746  20632998.1174                   20632994.0664
 11  7 25  1 38 30.0000000  0  8G12G09G10G17G05G04G27G02
 -11791120.23848  -9160883.65645  22029828.1414                   22029826.3404
 -13068196.25847 -10152435.70744  22900254.2194                   22900253.7464
 -20415244.02748 -15900062.35246  21079899.0234                   21079897.8794
 -37560568.16047 -29236603.92645  22598763.6174                   22598761.9144
  -3248688.68047  -2523106.88745  23110163.8834                   23110163.8244
 -34049092.39548 -26497959.48046  20789084.2274                   20789082.8794
 -20807536.51247 -16185057.37144  23258135.5234                   23258135.2894
 -26977089.59848 -20989216.94946  20621758.1414                   20621754.4304
 11  7 25  1 39  0.0000000  0  8G12G09G10G17G05G04G27G02
 -11907509.05148  -9251576.19545  22007679.9844                   22007678.0084
 -13039825.54747 -10130328.69144  22905652.1334                   22905652.6414
 -20493986.51248 -15961420.10246  21064915.1024                   21064913.7114
 -37550985.30547 -29229136.78545  22600586.9384                   22600585.3054
  -3391115.63747  -2634088.79745  23083061.5554                   23083061.0904
 -34024320.59048 -26478656.77746  20793798.3364                   20793796.6094
 -20788884.19947 -16170523.14544  23261683.3594                   23261684.0784
 -27035771.71148 -21034943.25446  20610591.5784                   20610587.3204
 11  7 25  1 39 30.0000000  0  8G12G09G10G17G05G04G27G02
 -12023559.04347  -9342004.71145  21985596.7504                   21985594.2774
 -13011077.98047 -10107928.03144  22911123.0554                   22911122.9144
 -20572138.07848 -16022317.38746  21050043.3204                   21050041.6454
 -37541242.84047 -29221545.25445  22602441.1094                   22602439.4384
  -3533386.65247  -2744949.22345  23055987.6804                   23055987.0394
 -33999236.63748 -26459110.85546  20798571.4064                   20798569.9024
 -20769985.19147 -16155796.73044  23265281.2194                   23265281.2814
 -27094073.59048 -21080373.25846  20599497.0164                   20599492.5824
 11  7 25  1 40  0.0000000  0  8G12G09G10G17G05G04G27G02
 -12139269.97748  -9432169.01646  21963577.6024                   21963575.0904
 -12981959.06647 -10085237.98444  22916664.9064                   22916664.1884
 -20649698.87148 -16082754.32446  21035284.0004                   21035282.4654
 -37531342.54747 -29213830.74645  22604324.7344                   22604323.4264
  -3675501.40247  -2855687.85245  23028944.3134                   23028943.9224
 -33973845.09448 -26439325.22346  20803403.6884                   20803402.1134
 -20750844.61746 -16140882.07844  23268923.0944                   23268923.9454
 -27151997.52348 -21125508.75446  20588474.2194                   20588470.1644
 11  7 25  1 40 30.0000000  0  8G12G09G10G17G05G04G27G02
 -12254635.54747  -9522064.21946  21941624.2814                   21941621.7854
 -12952468.58647 -10062258.42644  22922276.3364                   22922276.2584
 -20726663.25048 -16142726.53946  21020638.2584                   21020636.5434
 -37521280.26247 -29205990.01645  22606240.0394                   22606238.4384
  -3817453.18447  -2966299.52345  23001931.7584                   23001931.2154
 -33948144.50848 -26419298.79746  20808294.0314                   20808292.8134
 -20731461.56246 -16125778.47344  23272611.7894                   23272612.5084
 -27209540.83648 -21170347.68446  20577523.9774                   20577520.2544
 11  7 25  1 41  0.0000000  0  8G12G09G10G17G05G04G27G02
 -12369661.99247  -9611695.17245  21919735.3984                   21919732.9304
 -12922618.53947 -10038998.68444  22927956.3754                   22927956.7774
 -20803038.25448 -16202239.50046  21006104.6414                   21006103.3164
 -37511064.55147 -29198029.74245  22608184.1804                   22608182.5274
  -3959247.67247  -3076788.61345  22974948.8754                   22974948.3324
 -33922146.30148 -26399040.46146  20813241.1254                   20813240.0204
 -20711847.57446 -16110494.94544  23276343.7194                   23276344.7074
 -27266713.16848 -21214897.53146  20566644.3594                   20566640.5864
 11  7 25  1 41 30.0000000  0  8G12G09G10G17G05G04G27G02
 -12484336.32447  -9701051.75846  21897913.5474                   21897911.2464
 -12892401.94147 -10015453.32444  22933706.8134                   22933707.2344
 -20878811.67648 -16261283.69946  20991685.5314                   20991683.7424
 -37500684.16847 -29189941.15645  22610159.2734                   22610157.5204
  -4100871.80547  -3187144.94945  22947998.9224                   22947997.7274
 -33895842.08248 -26378543.68746  20818246.9614                   20818245.1954
 -20691994.80547 -16095025.33244  23280121.7504                   23280122.4734
 -27323504.36748 -21259150.40246  20555837.6884                   20555833.4064
 11  7 25  1 42  0.0000000  0  8G12G09G10G17G05G04G27G02
 -12598661.14847  -9790135.99246  21876158.1644                   21876155.9104
 -12861826.89847  -9991628.65644  22939524.5234                   22939525.0124
 -20953986.35948 -16319861.34046  20977380.0314                   20977378.3364
 -37490143.66447 -29181727.80145  22612165.1094                   22612163.4104
  -4242327.62947  -3297370.15245  22921080.7664                   22921079.8284
 -33869239.64548 -26357814.51246  20823309.1024                   20823307.2814
 -20671911.03147 -16079375.73044  23283944.3834                   23283944.4024
 -27379920.84448 -21303111.27346  20545102.1254                   20545097.8524
 11  7 25  1 42 30.0000000  0  8G12G09G10G17G05G04G27G02
 -12712633.17647  -9878945.31646  21854470.1414                   21854468.0274
 -12830896.23447  -9967526.87944  22945411.0864                   22945411.3364
 -21028559.83648 -16377970.50446  20963189.4384                   20963187.5824
 -37479441.78947 -29173388.71145  22614201.5234                   22614199.8014
  -4383611.20347  -3407461.13745  22894195.0784                   22894194.4534
 -33842340.09448 -26336853.82046  20828428.1724                   20828426.4734
 -20651598.21547 -16063547.61344  23287809.3204                   23287809.5274
 -27435962.20748 -21346779.85946  20534437.3204                   20534434.0664
 11  7 25  1 43  0.0000000  0  8G12G09G10G17G05G04G27G02
 -12826252.45747  -9967479.77346  21832849.1644                   21832846.9774
 -12799615.77347  -9943152.52344  22951363.4144                   22951363.9224
 -21102532.67648 -16435611.64546  20949112.7974                   20949111.3444
 -37468580.77747 -29164925.60245  22616268.7734                   22616266.9224
  -4524722.36347  -3517417.76645  22867342.5314                   22867341.6804
 -33815148.46148 -26315665.53546  20833602.4384                   20833601.0514
 -20631061.67647 -16047545.19144  23291717.3754                   23291718.8554
 -27491632.09848 -21390158.97746  20523843.7734                   20523839.7734
 11  7 25  1 43 30.0000000  0  8G12G09G10G17G05G04G27G02
 -12939517.87947 -10055738.50046  21811295.1724                   21811293.0474
 -12767990.20747  -9918509.27344  22957381.1804                   22957381.7504
 -21175904.58248 -16492784.52346  20935150.3834                   20935148.7704
 -37457561.36747 -29156339.05945  22618365.4924                   22618364.2464
  -4665659.48047  -3627238.77345  22840522.7734                   22840522.3284
 -33787668.59848 -26294252.66046  20838831.7034                   20838830.2544
 -20610305.60546 -16031371.73844  23295667.1644                   23295668.4844
 -27546932.06648 -21433249.84446  20513320.6174                   20513316.6334
 11  7 25  1 44  0.0000000  0  8G12G09G10G17G05G04G27G02
 -13052427.52347 -10143720.00446  21789809.2504                   21789806.9574
 -12736023.85247  -9893600.48044  22963464.6024                   22963464.8954
 -21248674.60548 -16549488.40646  20921303.2194                   20921300.9534
 -37446383.74247 -29147629.23445  22620491.9224                   22620490.8954
  -4806420.51247  -3736922.56245  22813736.3524                   22813736.0044
 -33759903.66448 -26272617.67646  20844115.1484                   20844114.2584
 -20589333.26246 -16015029.73044  23299658.6954                   23299659.0124
 -27601863.84448 -21476053.80146  20502867.5474                   20502863.4614
 11  7 25  1 44 30.0000000  0  8G12G09G10G17G05G04G27G02
 -13164972.53147 -10231417.37146  21768392.2974                   21768390.3204
 -12703713.73447  -9868423.79744  22969612.9924                   22969612.8634
 -21320834.67648 -16605716.99246  20907571.0474                   20907569.2074
 -37435041.31247 -29138790.98845  22622650.7814                   22622649.3714
  -4946996.15647  -3846461.92245  22786985.8444                   22786985.0824
 -33731849.45748 -26250757.26646  20849453.4304                   20849452.3204
 -20568141.48846 -15998516.71144  23303691.8284                   23303691.1994
 -27656422.12948 -21518566.73446  20492485.3524                   20492481.3484
 11  7 25  1 45  0.0000000  0  8G12G09G10G17G05G04G27G02
 -13277160.89148 -10318836.83246  21747043.9924                   21747042.0514
 -12671073.09447  -9842989.58244  22975824.0704                   22975824.6374
 -21392393.22748 -16661476.85546  20893953.7034                   20893952.1054
 -37423543.38347 -29129831.56645  22624838.9844                   22624837.1954
  -5087393.37147  -3955862.23045  22760269.1094                   22760268.3484
 -33703518.38348 -26228681.11746  20854844.7584                   20854843.2584
 -20546742.85546 -15981842.50044  23307763.0084                   23307763.7304
 -27710617.43748 -21560796.82046  20482172.6024                   20482168.2854
 11  7 25  1 45 30.0000000  0  8G12G09G10G17G05G04G27G02
 -11813560.77347  -9178369.16846  22025557.4224                   22025555.6914
 -11062681.68747  -8589697.62544  23281891.4224                   23281890.8204
 -19887921.04348 -15489160.82046  21180245.1884                   21180243.6684
 -35836464.91047 -27893147.04345  22926849.6484                   22926848.4224
  -3652179.71147  -2837513.81645  23033381.0164                   23033380.0744
 -32099488.96548 -24978788.07046  21160081.4304                   21160080.2424
 -18949715.98046 -14737406.05144  23611667.2894                   23611667.7734
 -26189024.09048 -20375139.64846  20771721.9144                   20771717.8054
 11  7 25  1 46  0.0000000  0  8G12G09G10G17G05G04G27G02
 -11925013.73047  -9265215.59446  22004349.0784                   22004346.6334
 -11029377.12547  -8563746.06644  23288229.3674                   23288228.1454
 -19958257.74248 -15543968.58646  21166860.8134                   21166858.7704
 -35824641.20347 -27883933.77745  22929099.4144                   22929097.7544
  -3792197.82447  -2946618.73445  23006736.3134                   23006735.7304
 -32070597.73448 -24956275.42246  21165579.1804                   21165578.0044
 -18927898.71547 -14720405.64544  23615819.3054                   23615820.1524
 -26242482.70348 -20416795.70746  20761549.2584                   20761544.9734
 11  7 25  1 46 30.0000000  0  8G12G09G10G17G05G04G27G02
 -12036099.61348  -9351775.98446  21983209.6484                   21983207.5084
 -10995750.12947  -8537543.26244  23294627.8524                   23294627.5784
 -20027985.22748 -15598301.64846  21153592.0164                   21153590.1524
 -35812658.02747 -27874596.23445  22931379.8754                   22931378.6524
  -3932026.13747  -3055575.75445  22980128.5234                   22980127.3674
 -32041434.18448 -24933550.58246  21171129.1024                   21171127.4654
 -18905880.40646 -14703248.57444  23620009.0084                   23620009.4614
 -26295578.37548 -20458168.94547  20751445.2114                   20751441.3524
 11  7 25  1 47  0.0000000  0  8G12G09G10G17G05G04G27G02
 -12146810.09447  -9438043.84846  21962142.0554                   21962139.9884
 -10961797.96147  -8511087.09044  23301088.9844                   23301088.5864
 -20097095.84048 -15652154.02346  21140440.6644                   21140438.7304
 -35800509.10247 -27865129.55545  22933691.9224                   22933690.3674
  -4071655.84847  -3164378.01245  22953557.0784                   22953556.5704
 -32011994.54348 -24910610.59846  21176731.3284                   21176729.8524
 -18883657.82847 -14685932.30944  23624238.2814                   23624237.9304
 -26348306.01248 -20499255.40646  20741411.4064                   20741407.6334
 11  7 25  1 47 30.0000000  0  8G12G09G10G17G05G04G27G02
 -12257141.03948  -9524015.97746  21941146.6254                   21941144.8204
 -10927522.59447  -8484379.07044  23307611.6024                   23307611.3164
 -20165586.54748 -15705523.36746  21127407.4774                   21127405.3794
 -35788191.81247 -27855531.64845  22936035.9064                   22936034.1524
  -4211082.41847  -3273021.98845  22927025.4694                   22927024.4264
 -31982279.57848 -24887456.08246  21182385.7974                   21182384.4614
 -18861232.23847 -14668457.85944  23628505.2814                   23628506.1914
 -26400664.85948 -20540054.49646  20731447.9454                   20731443.9264
 11  7 25  1 48  0.0000000  0  8G12G09G10G17G05G04G27G02
 -12367093.59847  -9609693.26646  21920223.3674                   21920221.3484
 -10892930.98447  -8457424.63344  23314193.9614                   23314194.0164
 -20233459.35548 -15758411.22746  21114491.3444                   21114489.5044
 -35775710.05947 -27845805.60945  22938410.9774                   22938409.6724
  -4350306.62547  -3381508.27045  22900531.3754                   22900530.6094
 -31952295.15248 -24864091.59046  21188091.8444                   21188090.1454
 -18838609.89147 -14650830.10244  23632810.2584                   23632811.0634
 -26452659.20748 -20580569.56246  20721553.7034                   20721549.8164
 11  7 25  1 48 30.0000000  0  8G12G09G10G17G05G04G27G02
 -12476667.52747  -9695075.51246  21899372.3984                   21899370.2624
 -10858029.06246  -8430228.39544  23320835.5474                   23320836.0004
 -20300715.69548 -15810818.73046  21101693.1094                   21101691.3634
 -35763066.04347 -27835953.14145  22940816.9774                   22940815.2854
  -4489328.05547  -3489836.55945  22874077.0084                   22874075.7194
 -31922046.44148 -24840521.16446  21193847.9144                   21193846.1684
 -18815796.38347 -14633053.39144  23637151.7424                   23637152.6684
 -26504292.79348 -20620803.51246  20711728.1484                   20711724.4884
 11  7 25  1 49  0.0000000  0  8G12G09G10G17G05G04G27G02
 -12585858.44147  -9780159.30546  21878594.0784                   21878591.7664
 -10822818.12547  -8402791.38344  23327536.3984                   23327536.1214
 -20367351.87948 -15862742.98846  21089012.5084                   21089010.6334
 -35750256.77347 -27825971.88745  22943254.6644                   22943252.9454
  -4628141.58647  -3598002.84445  22847660.8754                   22847660.3674
 -31891533.46148 -24816744.80946  21199653.8524                   21199653.1374
 -18792792.31647 -14615128.17644  23641528.7194                   23641530.2234
 -26555564.27048 -20660755.30546  20701971.4774                   20701967.6684
 11  7 25  1 49 30.0000000  0  8G12G09G10G17G05G04G27G02
 -12694665.31647  -9864943.84846  21857888.6484                   21857886.5784
 -10787302.85947  -8375117.22344  23334294.0944                   23334295.0904
 -20433367.09848 -15914183.38346  21076449.9384                   21076447.7504
 -35737282.76647 -27815862.27745  22945723.8524                   22945722.1764
  -4766745.48047  -3706005.76245  22821285.3444                   22821285.2344
 -31860759.50448 -24792765.08646  21205510.1644                   21205508.8444
 -18769601.43746 -14597057.37543  23645941.3444                   23645941.8714
 -26606475.48448 -20700426.35946  20692283.1954                   20692279.5354
 11  7 25  1 50  0.0000000  0  8G12G09G10G17G05G04G27G02
 -12803083.11348  -9949425.20746  21837257.5784                   21837255.1994
 -10751484.68047  -8347207.03544  23341110.3674                   23341111.2624
 -20498758.10948 -15965137.37146  21064006.2424                   21064004.4344
 -35724141.62547 -27805622.44945  22948224.3524                   22948222.9384
  -4905134.44547  -3813841.20745  22794950.6954                   22794950.3524
 -31829724.84448 -24768582.21946  21211416.3054                   21211414.5824
 -18746224.55146 -14578841.63743  23650390.2974                   23650391.0274
 -26657025.39548 -20739815.89146  20682664.1954                   20682660.0864
 11  7 25  1 50 30.0000000  0  8G12G09G10G17G05G04G27G02
 -12911108.52348 -10033600.80946  21816701.1644                   21816698.1254
 -10715365.85247  -8319062.53544  23347984.3524                   23347984.4694
 -20563522.10248 -16015602.78946  21051682.3054                   21051680.5824
 -35710831.81647 -27795251.18445  22950756.8594                   22950755.3794
  -5043304.46547  -3921506.03545  22768658.0234                   22768657.2464
 -31798430.58248 -24744197.05946  21217370.9694                   21217369.4654
 -18722663.38746 -14560482.34443  23654874.0784                   23654874.1484
 -26707213.49248 -20778923.48846  20673113.7034                   20673109.7194
 11  7 25  1 51  0.0000000  0  8G12G09G10G17G05G04G27G02
 -13018740.57048 -10117469.89546  21796219.2274                   21796216.6094
 -10678951.38347  -8290687.68044  23354912.8754                   23354913.3594
 -20627659.11748 -16065579.64846  21039477.6484                   21039475.5594
 -35697354.23847 -27784749.18045  22953321.4224                   22953320.2584
  -5181254.46547  -4028999.43445  22742406.7034                   22742406.2814
 -31766880.74248 -24719612.75446  21223374.9224                   21223373.3794
 -18698922.43047 -14541982.91443  23659392.5554                   23659392.6604
 -26757042.25848 -20817751.09447  20663631.4924                   20663627.6094
 11  7 25  1 51 30.0000000  0  8G12G09G10G17G05G04G27G02
 -13125978.00448 -10201031.48846  21775812.5234                   21775810.1454
 -10642246.20347  -8262086.28944  23361897.8364                   23361898.5204
 -20691169.29748 -16115068.07846  21027391.9534                   21027389.7034
 -35683709.74247 -27774117.11745  22955918.4304                   22955916.7194
  -5318982.82847  -4136320.12545  22716198.2734                   22716197.1174
 -31735078.76248 -24694831.98046  21229426.4384                   21229425.1414
 -18675005.59846 -14523346.46544  23663943.1414                   23663944.3914
 -26806514.02348 -20856300.50847  20654217.0474                   20654213.4694
 11  7 25  1 52  0.0000000  0  9G12G09G25G10G17G05G04G27G02
 -13232816.20747 -10284281.99246  21755482.0234                   21755479.6094
 -10605251.39847  -8233259.24644  23368937.3054                   23368938.4454
   9245609.74655   7236694.78553  24695064.5004                   24695066.8954
 -20754049.49648 -16164065.60546  21015426.1884                   21015424.4494
 -35669895.76647 -27763352.98445  22958546.6024                   22958545.1334
  -5456484.24647  -4243463.98045  22690032.5164                   22690031.1054
 -31703024.87548 -24669854.92646  21235526.0864                   21235524.7464
 -18650913.80146 -14504573.67244  23668526.8364                   23668528.5784
 -26855627.68048 -20894570.88346  20644871.4384                   20644867.5124
 11  7 25  1 52 30.0000000  0  9G12G09G25G10G17G05G04G27G02
 -13339259.35248 -10367224.65246  21735226.2274                   21735224.1884
 -10567977.10547  -8204214.40644  23376030.6804                   23376030.7704
   9104403.33646   7126664.00443  24668192.2734                   24668196.4144
 -20816304.80948 -16212576.20346  21003579.1024                   21003577.2504
 -35655918.39847 -27752461.52745  22961206.9694                   22961205.1094
  -5593762.32447  -4350433.81245  22663909.5554                   22663907.8754
 -31670727.68748 -24644688.28546  21241672.0944                   21241670.5744
 -18626655.92647 -14485671.51644  23673143.8914                   23673145.4884
 -26904390.49248 -20932567.86746  20635591.8914                   20635588.3914
 11  7 25  1 53  0.0000000  0  9G12G09G25G10G17G05G04G27G02
 -13445308.15647 -10449860.03146  21715045.9924                   21715043.4774
 -10530429.54347  -8174956.58644  23383176.2894                   23383175.1374
   8963324.96546   7016732.94543  24641346.5084                   24641349.9414
 -20877936.85248 -16260601.14546  20991850.7734                   20991849.2424
 -35641780.10247 -27741444.67645  22963896.8984                   22963895.8484
  -5730817.14847  -4457229.67645  22637828.5084                   22637827.2854
 -31638192.50848 -24619336.20746  21247863.3754                   21247862.0274
 -18602238.06246 -14466644.64844  23677791.0944                   23677792.2664
 -26952806.17648 -20970294.35547  20626379.0554                   20626375.1914
 11  7 25  1 53 30.0000000  0  9G12G09G25G10G17G05G04G27G02
 -13550956.90648 -10532183.68446  21694941.3594                   21694938.8954
 -10492609.21547  -8145486.22344  23390373.2194                   23390372.7664
   8822380.01246   6906905.78543  24614526.4844                   24614527.0274
 -20938941.24648 -16308137.01246  20980242.3444                   20980240.3554
 -35627477.44947 -27730299.76245  22966618.9694                   22966617.3794
  -5867642.72747  -4563846.90645  22611791.2814                   22611789.9184
 -31605418.78548 -24593798.25046  21254099.9924                   21254098.2624
 -18577660.02046 -14447493.00444  23682467.8524                   23682468.9614
 -27000873.23848 -21007749.19146  20617232.0864                   20617228.1294
 11  7 25  1 54  0.0000000  0  9G12G09G25G10G17G05G04G27G02
 -13656206.17248 -10614196.05946  21674913.3054                   21674911.3404
 -10454522.48847  -8115808.26644  23397620.6414                   23397620.6214
   8681568.00047   6797182.16843  24587730.1564                   24587730.1414
 -20999319.61748 -16355185.05946  20968752.5864                   20968751.1484
 -35613012.57847 -27719028.44945  22969371.7114                   22969369.6764
  -6004239.10947  -4670285.55545  22585798.1254                   22585796.6174
 -31572411.49248 -24568078.28946  21260381.0474                   21260379.5474
 -18552927.44146 -14428220.93444  23687173.9924                   23687174.9454
 -27048594.95748 -21044934.92646  20608150.8364                   20608146.7624
 11  7 25  1 54 30.0000000  0  9G12G09G25G10G17G05G04G27G02
 -13761047.41448 -10695890.49646  21654962.4534                   21654960.6454
 -10416166.75447  -8085920.69144  23404919.5944                   23404920.0984
   8540897.66446   6687569.05943  24560960.9144                   24560962.4534
 -21059064.71148 -16401739.64846  20957383.2274                   20957381.4224
 -35598379.01647 -27707625.67245  22972156.2344                   22972154.6054
  -6140597.07047  -4776538.42245  22559849.7274                   22559848.5864
 -31539166.50448 -24542173.10946  21266707.2664                   21266705.9964
 -18528037.00446 -14408825.88344  23691910.2734                   23691911.0394
 -27095965.99248 -21081847.40246  20599136.6884                   20599132.2734
 11  7 25  1 55  0.0000000  0  9G12G09G25G10G17G05G04G27G02
 -13865483.50447 -10777269.22346  21635088.9534                   21635086.6214
 -10377550.63747  -8055830.22744  23412267.6094                   23412268.3714
   8400365.83246   6578063.87543  24534218.4924                   24534221.2304
 -21118180.82848 -16447804.11346  20946133.9534                   20946132.1524
 -35583581.68447 -27696095.28144  22974971.6334                   22974969.7664
  -6276719.05947  -4882607.41045  22533946.5704                   22533944.9224
 -31505691.65648 -24516088.83246  21273077.0554                   21273076.3404
 -18502997.03546 -14389314.30544  23696674.9844                   23696676.5124
 -27142992.85548 -21118491.68747  20590187.3444                   20590183.3524
 11  7 25  1 55 30.0000000  0  9G12G09G25G10G17G05G04G27G02
 -13969507.29748 -10858326.68446  21615294.0554                   21615291.8594
 -10338672.96547  -8025535.95344  23419665.8594                   23419667.4454
   8259979.80946   6468672.32843  24507504.9534                   24507505.9224
 -21176661.92248 -16493373.76246  20935005.6024                   20935003.4694
 -35568615.75047 -27684433.50045  22977820.1414                   22977817.9844
  -6412597.48447  -4988486.62945  22508089.6414                   22508088.4494
 -31471984.54348 -24489823.56646  21279491.9534                   21279490.4104
 -18477805.32847 -14369684.48044  23701470.1414                   23701470.2424
 -27189671.93448 -21154864.96946  20581305.0234                   20581300.8244
 11  7 25  1 56  0.0000000  0  9G12G09G25G10G17G05G04G27G02
 -14073116.04348 -10939060.74646  21595577.8444                   21595575.4344
 -10299537.16447  -7995040.53944  23427113.5634                   23427114.6484
   8119742.23046   6359396.42643  24480817.7584                   24480819.4694
 -21234506.75048 -16538447.62146  20923997.7274                   20923996.1174
 -35553479.94547 -27672639.35944  22980699.7114                   22980697.9534
  -6548229.19947  -5094173.61345  22482279.4774                   22482278.0784
 -31438047.13348 -24463378.85946  21285949.8524                   21285948.5824
 -18452464.63747 -14349938.58243  23706291.5784                   23706293.0824
 -27236003.89548 -21190967.77046  20572487.9064                   20572483.8094
 11  7 25  1 56 30.0000000  0  9G12G09G25G10G17G05G04G27G02
 -14176307.88747 -11019469.94946  21575941.0084                   21575938.8204
 -10260147.43447  -7964347.26244  23434609.2424                   23434609.4844
   7979654.87147   6250237.50844  24454160.6094                   24454162.0474
 -21291714.84448 -16583025.31246  20913111.6954                   20913109.4654
 -35538174.87147 -27660713.30544  22983613.0944                   22983610.8204
  -6683612.04347  -5199666.64845  22456517.0634                   22456515.5824
 -31403882.14848 -24436756.82846  21292451.3364                   21292449.4734
 -18426978.37146 -14330079.24643  23711141.3134                   23711143.3444
 -27281990.22348 -21226801.24246  20563737.4304                   20563733.0274
 11  7 25  1 57  0.0000000  0  9G12G09G25G10G17G05G04G27G02
 -14279080.64847 -11099552.59046  21556384.0394                   21556381.6724
 -10220506.89847  -7933458.52344  23442152.8054                   23442153.3914
   7839720.37047   6141197.72143  24427531.4384                   24427533.8244
 -21348285.21148 -16627106.08246  20902346.2814                   20902344.3874
 -35522699.61347 -27648654.64844  22986557.6254                   22986555.8164
  -6818742.71947  -5304963.21145  22430802.4614                   22430801.5004
 -31369491.81648 -24409959.18746  21298995.3364                   21298993.8364
 -18401348.98046 -14310108.39843  23716018.9384                   23716020.4734
 -27327631.91048 -21262366.16047  20555051.6644                   20555047.7814
 11  7 25  1 57 30.0000000  0  9G12G09G25G10G17G05G04G27G02
 -14381429.89548 -11179305.22746  21536907.7734                   21536905.1094
 -10180617.04747  -7902375.53944  23449742.4064                   23449743.6844
   7699943.40247   6032280.64843  24400932.8914                   24400935.2504
 -21404214.35548 -16670687.19146  20891703.5164                   20891701.3404
 -35507051.80147 -27636461.54744  22989535.0704                   22989533.2504
  -6953616.39547  -5410059.50445  22405136.9144                   22405135.6524
 -31334876.05948 -24382985.88746  21305582.7504                   21305581.0204
 -18375577.27746 -14290026.61344  23720923.0394                   23720923.8954
 -27372927.89848 -21297661.69547  20546432.2034                   20546428.1414
 11  7 25  1 58  0.0000000  0  9G12G09G25G10G17G05G04G27G02
 -14483354.48047 -11258726.96946  21517512.3364                   21517509.4454
 -10140482.84847  -7871102.18044  23457380.7734                   23457380.2624
   7560324.75847   5923486.83643  24374364.2424                   24374365.0984
 -21459502.83248 -16713769.07446  20881182.3524                   20881180.3364
 -35491232.43446 -27624134.74644  22992544.3204                   22992543.3014
  -7088231.51647  -5514954.33245  22379520.4534                   22379519.0004
 -31300038.48448 -24355839.73046  21312212.0474                   21312210.6454
 -18349667.79346 -14269837.48444  23725853.7504                   23725854.0944
 -27417880.36748 -21332689.55946  20537877.8204                   20537873.7034
 11  7 25  1 58 30.0000000  0  9G12G09G25G10G17G05G04G27G02
 -14584851.12148 -11337815.25046  21498197.8444                   21498195.3244
 -10100106.48047  -7839640.07044  23465064.2424                   23465064.1054
   7420867.98447   5814819.07843  24347826.3754                   24347827.4414
 -21514148.68448 -16756350.22746  20870783.5314                   20870781.7974
 -35475239.96147 -27611673.07844  22995588.5004                   22995586.4494
  -7222583.93447  -5619644.44145  22353954.4304                   22353953.1724
 -31264980.55148 -24328521.86346  21318883.3984                   21318882.0434
 -18323622.29346 -14249542.36343  23730809.5164                   23730810.9844
 -27462489.52348 -21367449.90246  20529389.1094                   20529385.0314
 11  7 25  1 59  0.0000000  0  9G12G09G25G10G17G05G04G27G02
 -14685919.39548 -11416569.74646  21478965.2974                   21478962.5234
 -10059493.50047  -7807993.64144  23472792.1254                   23472792.4304
   7281573.61746   5706277.81643  24321319.6094                   24321320.7814
 -21568152.88348 -16798431.37146  20860507.1804                   20860505.2424
 -35459076.00047 -27599077.77044  22998664.7664                   22998662.7934
  -7356673.16047  -5724129.48845  22328437.8914                   22328436.2854
 -31229706.41048 -24301035.54346  21325595.9924                   21325594.4224
 -18297445.46946 -14229144.95343  23735790.7584                   23735792.7814
 -27506758.23848 -21401944.98446  20520965.0474                   20520960.5354
 11  7 25  1 59 30.0000000  0  9G12G09G25G10G17G05G04G27G02
 -14786554.73448 -11494986.88346  21459814.7894                   21459812.4264
 -10018645.34047  -7776163.90644  23480565.6094                   23480565.2894
   7142446.15246   5597866.68443  24294844.7034                   24294845.7854
 -21621512.35548 -16840010.14146  20850353.0864                   20850351.3594
 -35442737.75847 -27586346.65644  23001773.4384                   23001772.1564
  -7490493.85547  -5828405.28145  22302972.2034                   22302970.7344
 -31194215.91448 -24273380.61345  21332349.4454                   21332348.0124
 -18271138.03146 -14208645.75044  23740797.7344                   23740799.3324
 -27550685.03148 -21436173.61746  20512606.2664                   20512601.7584
 11  7 25  2  0  0.0000000  0  9G12G09G25G10G17G05G04G27G02
 -14886757.05948 -11573066.61346  21440747.0704                   21440744.3094
  -9977567.58646  -7744155.34044  23488381.9694                   23488382.9804
   7003486.32046   5489586.12544  24268402.2034                   24268402.9654
 -21674228.33248 -16881087.48046  20840321.4224                   20840319.7504
 -35426227.12947 -27573481.21944  23004915.2974                   23004913.9064
  -7624045.14547  -5932471.14145  22277557.9384                   22277556.8204
 -31158513.41048 -24245560.50045  21339143.6254                   21339141.6844
 -18244704.58247 -14188048.35544  23745827.8134                   23745829.1254
 -27594273.70348 -21470138.77346  20504311.7974                   20504307.2304
 11  7 25  2  0 30.0000000  0  9G12G09G25G10G17G05G04G27G02
 -14986523.88748 -11650807.00846  21421762.2584                   21421759.3324
  -9936263.87946  -7711970.68744  23496242.3134                   23496242.7854
   6864696.57046   5381438.16843  24241990.6024                   24241992.8524
 -21726299.82448 -16921662.63746  20830412.5394                   20830410.7344
 -35409543.53547 -27560481.02345  23008089.5944                   23008088.3554
  -7757324.09447  -6036324.80145  22252195.9454                   22252194.5554
 -31122601.03548 -24217576.83246  21345977.5394                   21345975.6644
 -18218148.15646 -14167355.10944  23750881.2664                   23750882.9184
 -27637525.03148 -21503841.07846  20496080.8134                   20496077.0944
 11  7 25  2  1  0.0000000  0  9G12G09G25G10G17G05G04G27G02
 -15085851.71948 -11728205.32046  21402860.9064                   21402858.0984
  -9894736.24246  -7679611.55144  23504144.6174                   23504144.8324
   6726080.59046   5273425.64144  24215613.6804                   24215615.1684
 -21777725.19548 -16961734.32446  20820626.5084                   20820624.5944
 -35392685.38347 -27547344.78545  23011298.1884                   23011296.5594
  -7890326.87547  -6139963.24645  22226886.1884                   22226885.2854
 -31086479.84048 -24189430.45345  21352851.2194                   21352849.5234
 -18191470.55946 -14146567.46143  23755957.9064                   23755959.0044
 -27680438.68748 -21537280.26246  20487914.6884                   20487910.7584
 11  7 25  2  1 30.0000000  0  9G12G09G25G10G17G05G04G27G02
 -15184738.75048 -11805260.14546  21384043.1564                   21384040.5634
  -9852988.59846  -7647080.99244  23512089.2894                   23512089.4964
   6587640.51246   5165550.17644  24189269.3054                   24189270.9494
 -21828503.96148 -17001302.15246  20810963.7504                   20810961.6524
 -35375652.50847 -27534072.41445  23014539.8284                   23014538.2304
  -8023050.80547  -6243384.40245  22201629.8444                   22201628.3594
 -31050152.17248 -24161123.18045  21359763.8444                   21359762.4884
 -18164674.85247 -14125687.72344  23761057.5554                   23761057.5164
 -27723016.14148 -21570457.47346  20479812.6254                   20479808.1054
 11  7 25  2  2  0.0000000  0  9G12G09G25G10G17G05G04G27G02
 -15283183.58248 -11881970.40246  21365309.5554                   21365307.5124
  -9811025.48047  -7614382.53144  23520074.8444                   23520075.4964
   6449377.94946   5057813.09444  24162958.5474                   24162961.0944
 -21878636.14148 -17040366.15646  20801423.9454                   20801422.1524
 -35358445.69147 -27520664.50845  23017813.8834                   23017812.0274
  -8155494.07047  -6346586.86745  22176427.0004                   22176425.2854
 -31013621.44148 -24132657.67645  21366715.1954                   21366713.8554
 -18137764.77347 -14104718.85243  23766177.6644                   23766178.8204
 -27765259.30948 -21603374.20746  20471773.9454                   20471769.5474
 11  7 25  2  2 30.0000000  0  9G12G09G25G10G17G05G04G27G02
 -15381180.58248 -11958331.69946  21346661.2894                   21346659.3594
  -9768847.27046  -7581516.47744  23528100.9454                   23528101.2464
   6311298.33246   4950218.62144  24136683.3524                   24136685.3554
 -21928117.96148 -17078923.39546  20792007.5944                   20792005.9774
 -35341061.30147 -27507118.21945  23021121.9064                   23021120.0004
  -8287650.60247  -6449565.90245  22151278.2504                   22151276.6024
 -30976886.54348 -24104033.06645  21373706.0234                   21373704.1844
 -18110740.44546 -14083660.99644  23771320.6174                   23771323.0634
 -27807166.32848 -21636029.01646  20463799.5164                   20463795.3634
 11  7 25  2  3  0.0000000  0  9G12G09G25G10G17G05G04G27G02
 -15478728.07448 -12034342.71946  21328098.5084                   21328096.6644
  -9726457.68446  -7548485.72744  23536167.1724                   23536167.6724
   6173403.98446   4842768.50043  24110441.9924                   24110444.6684
 -21976949.01648 -17116973.53146  20782715.5474                   20782713.5784
 -35323499.23047 -27493433.47345  23024463.8204                   23024462.6994
  -8419517.75447  -6552319.45745  22126184.6954                   22126182.5434
 -30939949.88348 -24075251.23045  21380734.7344                   21380732.8794
 -18083604.60246 -14062516.28943  23776484.7274                   23776487.2464
 -27848738.50048 -21668422.89146  20455888.1724                   20455884.1764
 11  7 25  2  3 30.0000000  0  9G12G09G25G10G17G05G04G27G02
 -15575824.22348 -12110002.03146  21309622.1334                   21309619.5904
  -9683861.15246  -7515293.69944  23544273.4384                   23544273.5314
   6035696.51646   4735463.98843  24084237.7424                   24084240.2384
 -22025129.46948 -17154516.72346  20773547.0084                   20773544.9454
 -35305760.05147 -27479610.73845  23027839.7664                   23027838.1844
  -8551093.79747  -6654846.16845  22101146.6804                   22101144.4024
 -30902814.68448 -24046314.69145  21387801.5164                   21387799.3524
 -18056360.94146 -14041287.51243  23781668.5474                   23781669.9064
 -27889977.70348 -21700557.32446  20448040.4694                   20448036.4384
 11  7 25  2  4  0.0000000  0  9G12G09G25G10G17G05G04G27G02
 -15672470.17648 -12185310.54346  21291231.0944                   21291228.4884
  -9641064.01647  -7481945.41044  23552416.9144                   23552417.9304
   5898175.65246   4628304.89843  24058068.9304                   24058070.9734
 -22072661.71548 -17191554.81246  20764502.2114                   20764500.1524
 -35287845.68047 -27465651.48045  23031248.9384                   23031247.2734
  -8682378.84847  -6757146.12545  22076163.1884                   22076161.7034
 -30865485.66848 -24017227.13745  21394904.6564                   21394903.3164
 -18029015.24246 -14019979.24643  23786872.5784                   23786872.7344
 -27930887.98448 -21732435.46146  20440255.8594                   20440251.4184
 11  7 25  2  4 30.0000000  0  9G12G09G25G10G17G05G04G27G02
 -15768663.46948 -12260266.33646  21272925.9454                   21272923.9654
  -9598069.47346  -7448443.27744  23560598.9774                   23560598.9414
   5760844.00846   4521293.31344  24031934.5004                   24031937.9184
 -22119544.65647 -17228086.96146  20755580.3364                   20755578.1884
 -35269755.91847 -27451555.55945  23034691.3364                   23034689.4144
  -8813369.22747  -6859216.46945  22051236.8134                   22051235.6174
 -30827964.92648 -23987990.18045  21402044.7114                   21402043.0124
 -18001570.33246 -13998593.66443  23792094.8364                   23792096.3984
 -27971470.13348 -21764057.91046  20432533.3444                   20432529.1024
 11  7 25  2  5  0.0000000  0  9G12G09G25G10G17G05G04G27G02
 -15864401.11348 -12334867.05546  21254707.4774                   21254705.4224
  -9554880.32446  -7414789.49244  23568817.5234                   23568818.3284
   5623704.75847   4414431.64544  24005838.6094                   24005840.6134
 -22165777.31248 -17264112.38346  20746782.4304                   20746780.8524
 -35251489.87147 -27437322.27345  23038167.0234                   23038165.7274
  -8944061.59847  -6961054.59445  22026366.7114                   22026365.2154
 -30790253.94148 -23958604.98045  21409220.8134                   21409219.4734
 -17974028.16046 -13977132.30144  23797336.1644                   23797337.8874
 -28011724.61348 -21795425.02746  20424873.3834                   20424868.5904
 11  7 25  2  5 30.0000000  0  9G12G09G25G10G17G05G04G27G02
 -15959680.00448 -12409110.30946  21236576.2814                   21236574.5204
  -9511499.42646  -7380986.31244  23577073.2034                   23577073.7074
   5486761.05946   4307722.35944  23979778.8524                   23979781.1134
 -22211358.48048 -17299630.15246  20738108.6174                   20738106.6414
 -35233046.43747 -27422950.77345  23041676.5164                   23041675.1644
  -9074452.85247  -7062658.08646  22001554.2424                   22001552.6334
 -30752354.23448 -23929072.73045  21416432.7734                   21416431.5394
 -17946391.02346 -13955596.98044  23802595.0474                   23802597.0634
 -28051651.79748 -21826537.10946  20417275.2344                   20417270.8094
 11  7 25  2  6  0.0000000  0  9G12G09G25G10G17G05G04G27G02
 -14479072.14848 -11255389.85946  21518326.5554                   21518324.8054
  -7892509.02046  -6119435.44944  23885157.0394                   23885157.5394
   6925442.74247   5428773.12944  24253550.9924                   24253552.6174
 -20680863.12947 -16107036.34846  21029352.5084                   21029350.5164
 -33639003.05147 -26180839.03944  23345012.7974                   23345011.3554
  -7629112.78947  -5936419.00045  22276593.2034                   22276591.4884
 -29138846.37948 -22671793.87945  21723472.8524                   21723471.5944
 -16343239.91846 -12706388.43444  24107665.6024                   24107666.4144
 -26515828.98448 -20629792.05146  20709532.3444                   20709527.9104
 11  7 25  2  6 30.0000000  0  9G12G09G25G10G17G05G04G27G02
 -14573429.37948 -11328914.93446  21500371.0394                   21500369.1764
  -7848757.41447  -6085343.35544  23893482.7584                   23893483.8914
   6788895.68846   5322372.97344  24227565.8674                   24227568.5784
 -20725141.64848 -16141539.06646  21020926.3914                   21020924.1484
 -33620205.40246 -26166191.52044  23348589.6724                   23348588.5314
  -7758894.98447  -6037547.91046  22251896.4384                   22251895.1844
 -29100577.55548 -22641974.00445  21730755.2814                   21730754.0124
 -16315423.40646 -12684713.32444  24112959.0554                   24112960.3364
 -26555107.30948 -20660398.53146  20702058.1024                   20702053.9304
 11  7 25  2  7  0.0000000  0  9G12G09G25G10G17G05G04G27G02
 -14667320.58648 -11402076.85246  21482504.4144                   21482502.1954
  -7804823.72346  -6051109.37544  23901843.3984                   23901843.9104
   6652552.58246   5216131.72744  24201621.5004                   24201622.6764
 -20768766.61348 -16175532.50046  21012624.5944                   21012622.7854
 -33601228.39546 -26151404.22744  23352201.1804                   23352199.5084
  -7888366.70747  -6138434.88346  22227258.8444                   22227257.2894
 -29062125.43048 -22612011.29345  21738072.6254                   21738070.8324
 -16287519.59446 -12662970.16444  24118269.1484                   24118271.1644
 -26594060.82848 -20690751.90647  20694645.5474                   20694641.2934
 11  7 25  2  7 30.0000000  0  9G12G09G25G10G17G05G04G27G02
 -14760747.83248 -11474877.26646  21464725.8674                   21464723.6334
  -7760715.57846  -6016739.46943  23910235.8204                   23910236.4774
   6516411.67646   5110047.99244  24175714.5084                   24175715.7384
 -20811741.32448 -16209019.27346  21004446.8444                   21004445.0744
 -33582075.78546 -26136480.09844  23355846.0944                   23355844.0314
  -8017528.93747  -6239080.72746  22202679.8444                   22202678.6334
 -29023496.46948 -22581910.81245  21745423.6954                   21745421.9964
 -16259535.52046 -12641164.47343  24123594.2734                   24123595.4104
 -26632695.04348 -20720856.49247  20687293.5554                   20687289.4884
 11  7 25  2  8  0.0000000  0  9G12G09G25G10G17G05G04G27G02
 -14853706.19948 -11547312.31246  21447036.2424                   21447033.6024
  -7716433.57846  -5982234.07444  23918662.2734                   23918662.6644
   6380478.60947   5004126.19944  24149847.0314                   24149848.4804
 -20854062.68047 -16241996.93446  20996393.5314                   20996391.2274
 -33562743.98446 -26121416.35244  23359524.4144                   23359523.3244
  -8146376.10547  -6339481.04346  22178161.4144                   22178159.4144
 -28984689.67248 -22551671.75845  21752808.5554                   21752806.5044
 -16231470.88346 -12619296.02743  24128933.3914                   24128934.8594
 -26671008.12948 -20750710.82446  20680002.9844                   20679998.5044
 11  7 25  2  8 30.0000000  0  9G12G09G25G10G17G05G04G27G02
 -14946198.84048 -11619384.46146  21429435.4454                   21429432.9574
  -7671986.99646  -5947600.45344  23927120.1724                   23927121.4104
   6244750.31647   4898363.97344  24124018.6724                   24124019.9844
 -20895735.73048 -16274469.41846  20988463.2974                   20988461.0314
 -33543238.42646 -26106217.21544  23363235.9384                   23363234.5084
  -8274911.07447  -6439638.09446  22153701.6174                   22153700.0824
 -28945712.68448 -22521300.09845  21760225.3674                   21760223.4694
 -16203334.26646 -12597371.49643  24134288.1024                   24134289.4694
 -26709006.44148 -20780319.87946  20672772.2034                   20672767.6914
 11  7 25  2  9  0.0000000  0  9G12G09G25G10G17G05G04G27G02
 -15038220.36748 -11691089.50446  21411924.2814                   21411921.8364
  -7627375.89846  -5912838.66444  23935610.1884                   23935611.2154
   6109232.68047   4792765.88344  24098230.8834                   24098232.0904
 -20936757.11747 -16306434.10246  20980657.2194                   20980655.2734
 -33523555.39146 -26090879.79744  23366981.1484                   23366979.9344
  -8403127.62547  -6539547.02746  22129302.7814                   22129301.3674
 -28906564.19548 -22490794.79745  21767674.9384                   21767673.3404
 -16175125.16446 -12575390.44143  24139656.5634                   24139658.4844
 -26746688.02748 -20809682.14146  20665601.4844                   20665597.0044
 11  7 25  2  9 30.0000000  0  9G12G09G25G10G17G05G04G27G02
 -15129767.14548 -11762424.60946  21394503.5944                   21394500.8834
  -7582602.23446  -5877950.16844  23944130.8134                   23944131.5434
   5973929.43447   4687334.82844  24072483.4304                   24072483.9454
 -20977124.97348 -16337889.54746  20972975.4064                   20972973.5864
 -33503693.28146 -26075402.83644  23370760.8834                   23370759.4844
  -8531021.88747  -6639204.83245  22104964.8054                   22104963.4774
 -28867245.13748 -22460156.59445  21775157.2734                   21775155.5784
 -16146845.07046 -12553354.09843  24145037.6174                   24145039.8874
 -26784052.80148 -20838797.52047  20658491.4064                   20658487.0514
 11  7 25  2 10  0.0000000  0  9G12G09G25G10G17G05G04G27G02
 -15220834.33248 -11833386.01646  21377173.6884                   21377171.2424
  -7537666.34847  -5842935.24244  23952681.1254                   23952681.8674
   5838846.38347   4582075.36744  24046777.6094                   24046778.5314
 -21016835.82847 -16368833.03946  20965418.5944                   20965416.7034
 -33483648.41047 -26059783.44944  23374575.9924                   23374573.8484
  -8658587.66047  -6738606.65646  22080690.2114                   22080688.3834
 -28827754.24248 -22429384.48445  21782671.9924                   21782670.0394
 -16118493.67646 -12531262.14143  24150433.3364                   24150433.9224
 -26821098.87548 -20867664.56246  20651441.3524                   20651437.5124
 11  7 25  2 10 30.0000000  0  9G12G09G25G10G17G05G04G27G02
 -15311420.09048 -11903972.28146  21359935.9614                   21359933.5744
  -7492572.12147  -5807796.97344  23961262.7274                   23961263.3244
   5703985.80147   4476989.25844  24021114.4774                   24021115.5004
 -21055890.09847 -16399264.91446  20957986.7894                   20957984.7034
 -33463420.66446 -26044021.55944  23378425.2114                   23378422.7274
  -8785822.48847  -6837750.61745  22056477.7194                   22056476.4064
 -28788094.00448 -22398480.41845  21790219.0394                   21790217.3634
 -16090074.00846 -12509116.96943  24155840.9844                   24155841.4494
 -26857827.29748 -20896284.09047  20644452.1094                   20644448.1094
 11  7 25  2 11  0.0000000  0  9G12G09G25G10G17G05G04G27G02
 -15401524.83248 -11974183.73846  21342789.8914                   21342787.2624
  -7447326.25047  -5772540.51243  23969872.5474                   23969873.5434
   5569347.10247   4372076.03144  23995493.3054                   23995494.9534
 -21094290.62548 -16429187.36746  20950679.6414                   20950677.3554
 -33443013.27346 -26028119.68044  23382308.7584                   23382306.5124
  -8912726.66447  -6936636.91446  22032329.3284                   22032327.5824
 -28748269.35948 -22367448.24245  21797797.6564                   21797795.8524
 -16061592.03546 -12486923.34443  24161261.5474                   24161263.8914
 -26894242.50848 -20924659.55547  20637522.6024                   20637518.1024
 11  7 25  2 11 30.0000000  0  9G12G09G25G10G17G05G04G27G02
 -15491145.88348 -12044018.29346  21325735.6724                   21325732.9224
  -7401930.86347  -5737167.55144  23978511.2344                   23978512.1914
   5434934.04747   4267338.64144  23969915.9224                   23969917.5234
 -21132035.78547 -16458599.16046  20943497.0554                   20943494.6954
 -33422424.25447 -26012076.27044  23386226.4534                   23386224.4414
  -9039296.01647  -7035262.32446  22008243.7274                   22008241.8914
 -28708281.40248 -22336288.81645  21805406.8914                   21805405.1954
 -16033049.41446 -12464682.46944  24166693.7584                   24166695.9304
 -26930344.44548 -20952790.89846  20630652.8834                   20630648.5204
 11  7 25  2 12  0.0000000  0  9G12G09G25G10G17G05G04G27G02
 -15580279.77748 -12113473.24246  21308773.5944                   21308770.9844
  -7356387.85247  -5701679.56244  23987178.1644                   23987179.5554
   5300750.53147   4162780.05544  23944381.2034                   23944382.4734
 -21169124.10247 -16487499.12146  20936438.8914                   20936436.9104
 -33401652.02747 -25995890.10944  23390178.6564                   23390177.5274
  -9165526.78147  -7133623.88346  21984223.0314                   21984221.0234
 -28668130.69548 -22305002.58245  21813047.3444                   21813046.0554
 -16004447.71146 -12442395.50044  24172136.1174                   24172137.7664
 -26966133.17648 -20980678.17646  20623842.5084                   20623837.7624
 11  7 25  2 12 30.0000000  0  9G12G09G25G10G17G05G04G27G02
 -15668930.31248 -12182551.54746  21291903.9064                   21291901.4384
  -7310706.77047  -5666083.95744  23995870.6564                   23995871.8444
   5166793.14847   4058397.63344  23918890.3754                   23918891.0164
 -21205561.74648 -16515892.06646  20929505.0784                   20929503.3404
 -33380702.21146 -25979565.57844  23394166.2424                   23394164.1884
  -9291422.28947  -7231724.21146  21960265.2974                   21960263.7734
 -28627825.13348 -22273595.67645  21820717.5004                   21820715.8554
 -15975795.59446 -12420069.24643  24177587.4534                   24177589.6214
 -27001615.57448 -21008326.75446  20617090.0554                   20617085.9224
 11  7 25  2 13  0.0000000  0  9G12G09G25G10G17G05G04G27G02
 -15757097.46948 -12251253.20746  21275126.1484                   21275123.7114
  -7264893.23446  -5630385.21143  24004588.4844                   24004588.9184
   5033062.43047   3954191.87944  23893442.1094                   23893443.7934
 -21241350.06248 -16543779.05546  20922695.0474                   20922692.8794
 -33359576.55947 -25963104.02344  23398185.5554                   23398184.1214
  -9416981.65247  -7329562.60546  21936372.2664                   21936370.5474
 -28587368.96148 -22242071.39545  21828416.1644                   21828414.2304
 -15947097.85945 -12397707.50843  24183048.5554                   24183050.8634
 -27036794.88348 -21035739.15246  20610395.9064                   20610391.6524
 11  7 25  2 13 30.0000000  0  9G12G09G25G10G17G05G04G27G02
 -15844777.39148 -12319575.19546  21258441.3674                   21258438.8524
  -7218948.96547  -5594584.47343  24013331.7974                   24013330.8554
   4899562.85547   3850166.23444  23868038.0084                   23868039.1564
 -21276487.79348 -16571159.08646  20916008.7424                   20916006.4064
 -33338272.74647 -25946503.63744  23402240.1724                   23402238.2074
  -9542200.12147  -7427135.35946  21912543.9924                   21912542.0704
 -28546762.10548 -22210429.68745  21836143.2424                   21836141.7974
 -15918355.41446 -12375310.88743  24188518.8054                   24188521.2114
 -27071670.13348 -21062914.64547  20603759.1644                   20603755.1764
 11  7 25  2 14  0.0000000  0  9G12G09G25G10G17G05G04G27G02
 -15931965.62148 -12387514.05546  21241850.0084                   21241847.0164
  -7172874.73447  -5558682.54743  24022099.4774                   24022099.7424
   4766299.53147   3746324.60944  23842678.5944                   23842679.8954
 -21310972.07047 -16598029.93046  20909446.2274                   20909443.9694
 -33316788.19947 -25929762.41044  23406328.8284                   23406325.8984
  -9667072.71547  -7524438.60546  21888781.3444                   21888779.7814
 -28506004.06648 -22178670.18745  21843899.5474                   21843897.8714
 -15889568.64146 -12352879.71543  24193996.3054                   24193999.4144
 -27106240.37148 -21089852.45346  20597181.0164                   20597176.3834
 11  7 25  2 14 30.0000000  0  9G12G09G25G10G17G05G04G27G02
 -16018656.96148 -12455065.73046  21225352.9924                   21225350.4924
  -7126670.64546  -5522679.44943  24030891.3134                   24030893.4574
   4633278.24247   3642671.68444  23817365.4454                   23817367.3404
 -21344799.82048 -16624389.19546  20903008.9384                   20903007.2154
 -33295119.28947 -25912877.51644  23410452.2974                   23410450.1134
  -9791593.32047  -7621467.58646  21865085.9774                   21865083.9574
 -28465093.69948 -22146791.97345  21851684.0084                   21851682.6804
 -15860737.09846 -12330413.65243  24199483.4064                   24199485.1334
 -27140503.74648 -21116551.15246  20590660.4454                   20590656.1094
 11  7 25  2 15  0.0000000  0  9G12G09G25G10G17G05G04G27G02
 -16104853.39848 -12522231.76246  21208950.1484                   21208947.6994
  -7080344.34446  -5486581.10243  24039706.1804                   24039709.0044
   4500497.48847   3539206.19144  23792098.0554                   23792100.5744
 -21377975.12548 -16650240.07046  20896695.9774                   20896693.7344
 -33273269.57447 -25895851.75844  23414609.6174                   23414607.7734
  -9915762.97748  -7718223.10246  21841457.0314                   21841455.2194
 -28424037.14548 -22114799.84045  21859497.1954                   21859494.9694
 -15831867.83646 -12307918.16843  24204977.4144                   24204978.8324
 -27174465.22348 -21143014.59446  20584197.8364                   20584193.3794
 11  7 25  2 15 30.0000000  0  9G12G09G25G10G17G05G04G27G02
 -16190553.16448 -12589010.77746  21192642.1724                   21192639.6764
  -7033899.16046  -5450390.12543  24048545.0004                   24048546.1294
   4367959.70347   3435930.00444  23766877.4304                   23766878.9964
 -21410498.23847 -16675582.73846  20890506.9224                   20890504.8794
 -33251239.01647 -25878685.09045  23418802.5164                   23418800.7464
 -10039579.56647  -7814703.49246  21817895.7114                   21817893.6414
 -28382836.42248 -22082695.35545  21867337.4304                   21867335.7854
 -15802963.85546 -12285395.69543  24210477.7424                   24210479.5704
 -27208126.21148 -21169243.90646  20577792.1484                   20577788.0634
 11  7 25  2 16  0.0000000  0  9G12G09G25G10G17G05G04G27G02
 -16275751.37948 -12655398.98046  21176429.8054                   21176427.3834
  -6987335.78547  -5414107.06244  24057406.6644                   24057406.7854
   4235670.44947   3332847.50444  23741703.4144                   23741704.7344
 -21442366.09448 -16700414.82046  20884442.7034                   20884440.8134
 -33229024.24647 -25861374.87545  23423029.4224                   23423027.5004
 -10163037.30947  -7910904.27346  21794402.1254                   21794400.7424
 -28341490.50848 -22050477.74645  21875205.2424                   21875203.7304
 -15774024.75446 -12262845.85943  24215984.6724                   24215986.2624
 -27241484.69548 -21195237.49646  20571444.1954                   20571440.1954
 11  7 25  2 16 30.0000000  0  9G12G09G25G10G17G05G04G27G02
 -16360445.69148 -12721394.52346  21160312.9224                   21160310.5744
  -6940657.44947  -5377734.40643  24066288.9774                   24066289.3444
   4103632.60947   3229960.90644  23716577.7034                   23716579.0084
 -21473578.43048 -16724736.10546  20878503.0474                   20878501.1174
 -33206624.64547 -25843920.64844  23427291.7974                   23427290.1684
 -10286133.20347  -8006823.08246  21770977.8914                   21770975.7034
 -28300001.11748 -22018148.32445  21883100.2344                   21883098.7974
 -15745053.09046 -12240270.60543  24221498.3984                   24221497.5634
 -27274541.68748 -21220996.16846  20565154.1174                   20565149.7974
 11  7 25  2 17  0.0000000  0  9G12G09G25G10G17G05G04G27G02
 -16444635.43748 -12786996.91446  21144291.8984                   21144289.8404
  -6893868.63747  -5341275.66844  24075192.9224                   24075194.4024
   3971847.70747   3127271.44944  23691499.6024                   23691501.5234
 -21504136.54747 -16748547.60546  20872688.2894                   20872686.3984
 -33184041.12547 -25826323.09444  23431589.3364                   23431587.6844
 -10408865.60547  -8102458.66046  21747622.4304                   21747620.3914
 -28258371.21548 -21985709.43445  21891021.9774                   21891020.7074
 -15716052.75846 -12217672.91043  24227016.2034                   24227017.9384
 -27307299.46948 -21246521.68446  20558920.4694                   20558916.0004
 11  7 25  2 17 30.0000000  0  9G12G09G25G10G17G05G04G27G02
 -16528323.96148 -12852208.73846  21128366.5944                   21128364.2504
  -6846978.03147  -5304737.60244  24084116.5394                   24084117.4494
   3840312.94547   3024776.88744  23666468.5234                   23666470.0044
 -21534046.26648 -16771853.86746  20866996.7194                   20866994.1804
 -33161278.80547 -25808586.23444  23435920.2344                   23435919.2234
 -10531237.21147  -8197813.09446  21724336.1884                   21724334.5004
 -28216607.96948 -21953166.63745  21898969.7504                   21898967.9534
 -15687031.71546 -12195059.21143  24232539.2034                   24232542.6374
 -27339764.73048 -21271819.26246  20552742.1484                   20552737.9534
 11  7 25  2 18  0.0000000  0  9G12G09G25G10G17G05G04G27G02
 -16611506.96548 -12917026.64546  21112537.3914                   21112534.8444
  -6799986.84847  -5268121.16444  24093058.1884                   24093058.5514
   3709033.05147   2922480.95744  23641487.2584                   23641488.4884
 -21563305.44548 -16794653.21146  20861428.6024                   20861426.6334
 -33138335.17247 -25790708.07044  23440286.7504                   23440285.2274
 -10653243.21547  -8292882.64546  21701119.2194                   21701117.1054
 -28174711.24248 -21920519.81645  21906942.0234                   21906940.0634
 -15657990.59445 -12172429.87943  24238065.2974                   24238068.3164
 -27371936.48048 -21296888.13746  20546619.6884                   20546615.4734
 11  7 25  2 18 30.0000000  0  9G12G09G25G10G17G05G04G27G02
 -16694183.90648 -12981450.21946  21096804.4224                   21096802.0394
  -6752899.34446  -5231429.70744  24102019.1884                   24102019.9384
   3578009.75447   2820384.97744  23616553.8284                   23616555.5984
 -21591915.44548 -16816946.69146  20855984.4144                   20855982.1844
 -33115210.67647 -25772688.99644  23444687.0704                   23444685.5514
 -10774881.70747  -8387665.82046  21677971.8524                   21677970.1884
 -28132683.98448 -21887771.28145  21914939.6414                   21914937.9534
 -15628933.11746 -12149787.78143  24243595.1024                   24243596.0824
 -27403816.55148 -21321729.72746  20540553.6414                   20540549.1414
 11  7 25  2 19  0.0000000  0  9G12G09G25G10G17G05G04G27G02
 -16776350.16848 -13045475.85246  21081168.8674                   21081166.1804
  -6705716.44146  -5194663.91844  24110997.4064                   24110999.2814
   3447248.20347   2718493.00044  23591671.3674                   23591672.9804
 -21619873.71548 -16838732.34046  20850663.9844                   20850662.0164
 -33091902.62547 -25754526.88344  23449122.5084                   23449120.8634
 -10896147.51648  -8482158.58646  21654895.7424                   21654893.8984
 -28090525.35248 -21854920.37145  21922962.1954                   21922960.5664
 -15599859.61346 -12127133.16943  24249127.7194                   24249128.6214
 -27435403.91048 -21346343.22346  20534543.0634                   20534538.6294
 11  7 25  2 19 30.0000000  0  9G12G09G25G10G17G05G04G27G02
 -16858002.04748 -13109100.66446  21065630.5634                   21065628.6524
  -6658439.81647  -5157825.06644  24119993.9224                   24119996.0274
   3316752.61347   2616808.27044  23566838.8284                   23566839.9774
 -21647178.99648 -16860009.16846  20845467.9694                   20845465.9694
 -33068409.09847 -25736220.23444  23453593.0314                   23453591.0044
 -11017036.46948  -8576357.69146  21631891.3754                   21631889.3094
 -28048235.66047 -21821967.34045  21931009.5004                   21931008.0084
 -15570771.37546 -12104467.14143  24254663.0084                   24254665.1764
 -27466697.88348 -21370728.11746  20528587.5704                   20528583.6884
 11  7 25  2 20  0.0000000  0  9G12G09G25G10G17G05G04G27G02
 -16939139.59048 -13172324.69546  21050191.0314                   21050188.4774
  -6611074.73846  -5120917.27043  24129007.7424                   24129009.3404
   3186523.63347   2515331.27044  23542056.9064                   23542057.9654
 -21673833.59048 -16880778.95746  20840395.9224                   20840393.8794
 -33044731.56647 -25717770.21944  23458098.9304                   23458097.2734
 -11137547.84848  -8670262.59846  21608958.9384                   21608956.9304
 -28005818.86747 -21788915.26645  21939081.3364                   21939079.8594
 -15541672.92646 -12081793.16843  24260200.5004                   24260203.9104
 -27497701.79348 -21394887.00046  20522687.6884                   20522683.3714
 11  7 25  2 20 30.0000000  0  9G12G09G25G10G17G05G04G27G02
 -17019764.01648 -13235148.88746  21034848.6954                   21034846.2194
  -6563626.93046  -5083945.03943  24138035.5314                   24138036.9064
   3056561.28147   2414062.05544  23517325.3364                   23517327.0944
 -21699840.27048 -16901043.89146  20835446.8364                   20835444.7894
 -33020872.51646 -25699178.75844  23462639.2424                   23462638.3094
 -11257681.64148  -8763873.28146  21586098.0234                   21586096.4344
 -27963279.26247 -21755767.51245  21947176.4774                   21947174.5904
 -15512569.37946 -12059115.14543  24265738.9614                   24265741.2934
 -27528419.32448 -21418822.71946  20516842.1954                   20516837.8794
 11  7 25  2 21  0.0000000  0  9G12G09G25G10G17G05G04G27G02
 -17099869.36348 -13297568.59446  21019605.3364                   21019602.5944
  -6516096.05546  -5046908.02343  24147080.9304                   24147080.9844
   2926872.12547   2313005.72344  23492646.5474                   23492647.4304
 -21725195.71148 -16920801.37146  20830621.7734                   20830620.1564
 -32996827.68047 -25680442.51244  23467215.2974                   23467213.0984
 -11377431.16448  -8857184.53546  21563310.3364                   21563308.1804
 -27920614.62147 -21722522.32845  21955294.8674                   21955293.5004
 -15483459.75446 -12036432.40243  24271277.0474                   24271279.1844
 -27558847.81248 -21442533.21146  20511052.3594                   20511047.5354
 11  7 25  2 21 30.0000000  0  9G12G09G25G10G17G05G04G27G02
 -17179454.07848 -13359582.61346  21004460.6334                   21004457.9344
  -6468486.14546  -5009809.46943  24156140.4224                   24156142.3284
   2797458.35547   2212163.93844  23468019.5944                   23468020.3284
 -21749900.64848 -16940051.95746  20825920.7114                   20825918.6294
 -32972597.15646 -25661561.57044  23471825.6954                   23471824.3404
 -11496794.23048  -8950194.67246  21540596.2114                   21540594.1294
 -27877827.41047 -21689181.63345  21963437.0084                   21963435.5634
 -15454347.17246 -12013747.37143  24276818.3364                   24276820.5944
 -27588988.80548 -21466019.68746  20505316.1564                   20505311.9804
 11  7 25  2 22  0.0000000  0  9G12G09G25G10G17G05G04G27G02
 -17258520.77748 -13421192.98446  20989414.6334                   20989412.0824
  -6420804.31247  -4972654.87944  24165215.0704                   24165217.1564
   2668318.61747   2111535.69144  23443444.5704                   23443446.0274
 -21773959.35948 -16958798.99646  20821342.6094                   20821340.1054
 -32948184.66847 -25642538.84044  23476471.0004                   23476469.7274
 -11615772.07448  -9042904.63746  21517955.3914                   21517953.4024
 -27834923.40247 -21655749.92645  21971601.6724                   21971600.1994
 -15425238.34846 -11991065.25443  24282357.3594                   24282359.5594
 -27618847.53948 -21489286.22746  20499634.6024                   20499630.2774
 11  7 25  2 22 30.0000000  0  9G12G09G25G10G17G05G04G27G02
 -17337064.22748 -13482395.62146  20974468.3284                   20974465.7384
  -6373050.46547  -4935444.16444  24174301.8914                   24174303.6484
   2539458.68047   2011125.46944  23418924.0004                   23418925.0394
 -21797369.13348 -16977040.36746  20816887.9774                   20816885.7424
 -32923586.62547 -25623371.53544  23481151.9144                   23481150.3674
 -11734359.09048  -9135310.05146  21495389.2504                   21495386.9924
 -27791900.98047 -21622225.93045  21979788.3364                   21979786.7304
 -15396132.72346 -11968385.66443  24287895.7814                   24287897.2934
 -27648421.92248 -21512331.19146  20494006.5634                   20494002.3554
 11  7 25  2 23  0.0000000  0  9G12G09G25G10G17G05G04G27G02
 -17415085.26648 -13543191.18746  20959621.2734                   20959618.6294
  -6325230.66847  -4898182.02744  24183402.5474                   24183402.4264
   2410878.75847   1910933.47345  23394455.8984                   23394457.5354
 -21820132.84048 -16994778.29746  20812556.1644                   20812553.8594
 -32898805.49646 -25604061.54744  23485867.6724                   23485865.9384
 -11852555.07848  -9227410.77046  21472897.1024                   21472895.3554
 -27748764.96947 -21588613.43045  21987996.4844                   21987995.0904
 -15367035.62946 -11945712.62543  24293433.3134                   24293434.3914
 -27677715.23048 -21535157.12546  20488432.2504                   20488427.8834
 11  7 25  2 23 30.0000000  0  9G12G09G25G10G17G05G04G27G02
 -17492580.41048 -13603576.96146  20944874.5004                   20944871.6884
  -6277346.80147  -4860869.94543  24192514.1024                   24192514.4224
   2282582.96947   1810962.82844  23370041.6484                   23370042.3754
 -21842249.57448 -17012012.08646  20808347.2584                   20808344.9264
 -32873839.26246 -25584607.31644  23490619.2424                   23490616.7034
 -11970355.82048  -9319203.50846  21450480.1644                   21450478.3244
 -27705515.09047 -21554912.19545  21996227.2274                   21996225.2934
 -15337948.09446 -11923047.09843  24298969.0084                   24298971.7074
 -27706727.77048 -21557764.28546  20482911.1024                   20482906.4574
 11  7 25  2 24  0.0000000  0  9G12G09G25G10G17G05G04G27G02
 -17569548.11348 -13663551.75846  20930227.9224                   20930225.0204
  -6229402.34846  -4823510.71543  24201637.0394                   24201639.1214
   2154573.68847   1711215.46144  23345682.0474                   23345683.3874
 -21863720.10548 -17028742.35546  20804261.4144                   20804259.6174
 -32848687.78546 -25565008.73044  23495405.0474                   23495403.4344
 -12087758.87148  -9410686.35946  21428139.4454                   21428137.2544
 -27662153.58247 -21521123.99645  22004478.1724                   22004476.8444
 -15308872.86745 -11900391.29742  24304500.3914                   24304505.5474
 -27735460.69148 -21580153.55946  20477443.2504                   20477439.0554
 11  7 25  2 24 30.0000000  0  9G12G09G25G10G17G05G04G27G02
 -17645982.48848 -13723110.96546  20915682.7274                   20915680.1804
  -6181396.69146  -4786103.81243  24210772.5394                   24210774.8794
   2026857.45747   1611696.40644  23321378.7974                   23321379.9734
 -21884541.16848 -17044966.53946  20800299.6414                   20800297.3594
 -32823347.05147 -25545262.67644  23500227.2584                   23500225.1484
 -12204758.00848  -9501854.46946  21405874.7894                   21405873.4534
 -27618678.21547 -21487247.09045  22012751.2974                   22012750.0204
 -15279809.004 5                  24310032.844
 -27763911.46148 -21602322.96946  20472029.3284                   20472025.3324
 11  7 25  2 25  0.0000000  0  9G12G09G25G10G17G05G04G27G02
 -17721892.11748 -13782261.28146  20901237.8284                   20901235.3134
  -6133342.46546  -4748659.01243  24219916.9924                   24219919.0354
   1899427.54747   1512400.47744  23297129.7114                   23297130.0864
 -21904722.39848 -17060692.15246  20796459.4224                   20796456.8794
 -32797826.52046 -25525376.50844  23505083.6254                   23505082.0634
 -12321360.02348  -9592713.13346  21383686.5554                   21383684.6334
 -27575100.32847 -21453290.31245  22021044.3674                   22021042.7664
 -15250768.62946 -11864776.37153  24315558.4454                   24315558.6684
 -27792090.43748 -21624280.60246  20466667.0784                   20466662.8984
 11  7 25  2 25 30.0000000  0  9G12G09G25G10G17G05G04G27G02
 -17797273.02348 -13840999.61346  20886893.1644                   20886890.2344
  -6085240.87546  -4711177.29343  24229070.2274                   24229070.2234
   1772288.33247   1413331.06344  23272935.8444                   23272936.4384
 -21924263.12148 -17075918.67246  20792740.7194                   20792738.2894
 -32772123.85946 -25505348.46544  23509974.3284                   23509972.9844
 -12437560.71148  -9683259.07046  21361574.1954                   21361572.3484
 -27531419.56647 -21419253.37145  22029355.9774                   22029354.6484
 -15221752.62146 -11842166.65243  24321079.6564                   24321083.5984
 -27819997.00448 -21646025.95746  20461356.5944                   20461352.1564
 11  7 25  2 26  0.0000000  0  9G12G09G25G10G17G05G04G27G02
 -17872117.74648 -13899320.14546  20872650.6724                   20872647.5474
  -6037089.56646  -4673656.89543  24238233.3754                   24238234.0944
   1645448.31647   1314494.72344  23248798.7734                   23248799.0164
 -21943157.89848 -17090641.85946  20789145.0084                   20789142.8164
 -32746232.68046 -25485173.48844  23514901.0704                   23514898.8054
 -12553350.97748  -9773485.19946  21339540.1804                   21339538.0084
 -27487632.31247 -21385133.43745  22037688.4774                   22037686.9104
 -15192757.75846 -11819573.40643  24326597.8204                   24326600.9264
 -27847626.54748 -21667555.46146  20456099.2274                   20456094.7304
 11  7 25  2 26 30.0000000  0  9G12G09G25G10G17G05G04G27G02
 -17946427.87548 -13957224.10546  20858509.9774                   20858507.0004
  -5988895.44146  -4636103.14543  24247404.6024                   24247406.3284
   1518906.71547   1215890.94144  23224718.4774                   23224719.1374
 -21961410.90648 -17104864.96146  20785671.5634                   20785669.7504
 -32720156.40246 -25464854.26244  23519863.3984                   23519861.5164
 -12668732.14848  -9863392.55546  21317583.4774                   21317581.6414
 -27443743.26647 -21350934.18445  22046040.6024                   22046039.0664
 -15163790.10546 -11797001.24643  24332110.6484                   24332110.4264
 -27874983.68048 -21688872.68746  20450893.3914                   20450888.8364
 11  7 25  2 27  0.0000000  0  9G12G09G25G10G17G05G04G27G02
 -18020207.43748 -14014714.64846  20844469.9454                   20844467.2424
  -5940667.18746  -4598522.73443  24256581.6024                   24256583.4654
   1392660.51247   1117517.33244  23200694.8984                   23200695.4494
 -21979028.42648 -17118592.87146  20782319.0554                   20782316.7854
 -32693900.52746 -25444395.11744  23524859.4844                   23524857.6764
 -12783707.41448  -9952983.62146  21295704.4384                   21295702.6684
 -27399759.89847 -21316661.42645  22054410.2034                   22054408.6024
 -15134857.77546 -11774456.66343  24337614.4454                   24337616.4734
 -27902075.23048 -21709982.95346  20445737.9064                   20445733.1844
 11  7 25  2 27 30.0000000  0  9G12G09G25G10G17G05G04G27G02
 -16518025.83248 -12844183.49246  21130325.9924                   21130322.6564
  -4316982.66846  -3333314.10943  24565559.3054                   24565559.0744
   2842143.40647   2246984.55544  23476521.6954                   23476523.0634
 -20420583.61748 -15904220.26646  21078881.5004                   21078879.0434
 -31092038.64546 -24196191.03544  23829683.8134                   23829682.4844
 -11322843.55148  -8814648.09846  21573697.4144                   21573695.6174
 -25780258.59047 -20054712.34845  22362591.5004                   22362589.7074
 -13530537.49646 -10524337.15643  24642908.8984                   24642910.8594
 -26353474.74248 -20503281.25446  20740426.5944                   20740422.2424
 11  7 25  2 28  0.0000000  0  8G12G09G25G10G17G05G04G02
 -16590723.88348 -12900831.29746  21116491.6414                   21116488.2114
  -4268679.84447  -3295675.57043  24574751.9304                   24574751.7894
   2716511.78147   2149089.84044  23452615.4144                   23452616.5474
 -20436916.17648 -15916946.91446  21075773.4614                   21075771.1294
 -31065406.80946 -24175438.95344  23834751.0634                   23834750.0164
 -11436983.48848  -8903588.26646  21551977.5784                   21551975.4654
 -25736075.69947 -20020284.13745  22370998.8914                   22370997.0354
 -26380022.91448 -20523968.11746  20735374.4614                   20735370.3754
 11  7 25  2 28 30.0000000  0  8G12G09G25G10G17G05G04G02
 -16662883.14548 -12957059.27046  21102760.3284                   21102757.2624
  -4220349.40247  -3258015.56643  24583948.9144                   24583950.3754
   2591186.58247   2051433.87545  23428766.5474                   23428767.7974
 -20452612.47748 -15929177.77746  21072786.4844                   21072783.9734
 -31038591.40646 -24154543.84044  23839854.1954                   23839852.7544
 -11550706.71948  -8992203.72346  21530336.4614                   21530334.7194
 -25691800.55947 -19985784.03545  22379424.0634                   22379422.5044
 -26406305.96548 -20544448.40246  20730373.3914                   20730368.7234
 11  7 25  2 29  0.0000000  0  8G12G09G25G10G17G05G04G02
 -16734497.95348 -13012862.98846  21089132.2344                   21089129.3134
  -4171989.95747  -3220332.93743  24593150.4144                   24593152.2074
   2466175.23847   1954022.45744  23404977.8754                   23404978.5394
 -20467668.64548 -15940909.83246  21069921.1724                   21069919.2304
 -31011587.52346 -24133501.86344  23844993.3754                   23844991.5084
 -11664005.95748  -9080488.79746  21508776.2504                   21508774.1524
 -25647429.89147 -19951209.49245  22387867.5634                   22387865.8404
 -26432320.52748 -20564719.45346  20725422.9454                   20725418.1414
 11  7 25  2 29 30.0000000  0  8G12G09G25G10G17G05G04G02
 -16805565.84848 -13068240.54346  21075608.4774                   21075605.6214
  -4123603.92246  -3182629.67243  24602359.1334                   24602359.5234
   2341481.06647   1856858.18444  23381249.2504                   23381250.1764
 -20482084.52048 -15952142.96146  21067178.0234                   21067175.6374
 -30984393.96146 -24112312.07044  23850167.6174                   23850166.4064
 -11776878.21548  -9168441.17246  21487297.8594                   21487295.6644
 -25602964.73847 -19916561.30945  22396328.9614                   22396327.5594
 -26458066.58248 -20584781.29746  20720523.6094                   20720519.1094
 11  7 25  2 30  0.0000000  0  8G12G09G25G10G17G05G04G02
 -16876088.37548 -13123193.14846  21062188.6484                   21062185.4304
  -4075197.66846  -3144910.57443  24611569.3524                   24611570.2074
   2217103.42647   1759940.53144  23357580.8444                   23357581.5354
 -20495864.25448 -15962880.40246  21064555.7034                   21064553.3834
 -30957013.96146 -24090977.02744  23855378.0554                   23855376.3674
 -11889324.13348  -9256061.30946  21465899.4844                   21465897.5394
 -25558409.99647 -19881843.30945  22404807.3754                   22404805.3834
 -26483548.93448 -20604637.65246  20715674.1954                   20715669.8634
 11  7 25  2 30 30.0000000  0  8G12G09G25G10G17G05G04G02
 -16946063.34448 -13177719.07446  21048872.7894                   21048869.9884
  -4026773.66446  -3107177.68743  24620784.9694                   24620786.3594
   2093045.81647   1663272.24644  23333973.6954                   23333973.4534
 -20509007.80148 -15973122.09446  21062054.6094                   21062051.9414
 -30929446.48846 -24069495.86744  23860624.0554                   23860622.8634
 -12001340.51648  -9343346.76246  21444583.8674                   21444581.5784
 -25513766.39547 -19847056.09045  22413303.0314                   22413301.5744
 -26508767.65648 -20624288.58246  20710875.4064                   20710871.0044
 11  7 25  2 31  0.0000000  0  8G12G09G25G10G17G05G04G02
 -17015488.53948 -13231816.61346  21035661.7344                   21035658.6954
  -3978334.41046  -3069432.93443  24630002.2194                   24630005.5274
   1969311.51247   1566855.92244  23310427.4534                   23310428.4064
 -20521515.53548 -15982868.36346  21059674.2734                   21059672.5234
 -30901690.58646 -24047867.89844  23865905.4534                   23865903.9844
 -12112924.13348  -9430294.99646  21423350.2424                   21423347.6764
 -25469034.92247 -19812200.39544  22421815.3204                   22421813.5984
 -26533723.58648 -20643734.74646  20706126.4064                   20706121.9614
 11  7 25  2 31 30.0000000  0  8G12G09G25G10G17G05G04G02
 -17084362.25048 -13285484.41846  21022555.3674                   21022552.3204
  -3929882.66846  -3031678.53143  24639222.3444                   24639225.2304
   1845903.36747   1470693.73844  23286943.4304                   23286944.8874
 -20533388.36348 -15992119.89546  21057415.1954                   21057412.9964
 -30873745.96146 -24026092.86744  23871224.3914                   23871221.9344
 -12224072.28948  -9516903.90246  21402199.2504                   21402197.0394
 -25424216.94947 -19777277.29345  22430343.2504                   22430341.8014
 -26558417.57448 -20662976.78946  20701427.5004                   20701422.8404
 11  7 25  2 32  0.0000000  0  8G12G09G25G10G17G05G04G02
 -17152684.45348 -13338722.47746  21009554.0314                   21009551.3754
  -3881423.37546  -2993918.10943  24648443.8984                   24648444.9304
   1722822.67647   1374786.73445  23263522.8754                   23263523.6644
 -20544628.25448 -16000878.23446  21055276.0944                   21055273.8794
 -30845613.76646 -24004171.67244  23876576.7734                   23876575.0784
 -12334784.28948  -9603172.95346  21381131.1724                   21381129.0044
 -25379315.48847 -19742289.12545  22438887.9844                   22438886.4414
 -26582852.12148 -20682016.68046  20696777.5164                   20696772.7814
 11  7 25  2 32 30.0000000  0  8G12G09G25G10G17G05G04G02
 -17220452.53548 -13391528.75046  20996658.5084                   20996655.7584
  -3832958.20746  -2956153.14143  24657665.2664                   24657667.2974
   1600073.32047   1279137.91845  23240164.1334                   23240165.4804
 -20555235.12148 -16009143.32046  21053257.7504                   21053255.5044
 -30817292.60946 -23982103.25844  23881966.1564                   23881964.6564
 -12445056.14848  -9689099.02746  21360146.8674                   21360145.1094
 -25334330.96547 -19707236.24244  22447448.1174                   22447446.4494
 -26607027.12148 -20700854.31646  20692177.1484                   20692172.2894
 11  7 25  2 33  0.0000000  0  8G12G09G25G10G17G05G04G02
 -17287670.80548 -13443906.59446  20983867.0234                   20983864.3364
  -3784496.02046  -2918390.56643  24666888.6094                   24666890.3134
   1477652.24247   1183744.91045  23216867.9694                   23216869.1684
 -20565215.76648 -16016920.43446  21051358.6484                   21051356.3984
 -30788787.59446 -23959891.53944  23887389.8284                   23887388.4184
 -12554890.97348  -9774684.56646  21339246.0944                   21339244.1954
 -25289270.37947 -19672124.09845  22456023.0474                   22456021.6564
 -26630949.38748 -20719495.03146  20687625.0084                   20687620.4384
 11  7 25  2 33 30.0000000  0  8G12G09G25G10G17G05G04G02
 -17354332.60248 -13495850.82446  20971181.8834                   20971178.9104
  -3736035.18446  -2880628.95343  24676110.7114                   24676113.7424
   1355567.12547   1088613.72344  23193635.8674                   23193636.8794
 -20574566.15247 -16024206.44546  21049579.0864                   21049576.7584
 -30760093.93446 -23937532.81644  23892850.0634                   23892849.0204
 -12664281.25848  -9859923.70346  21318430.0004                   21318428.1174
 -25244130.38347 -19636950.06645  22464612.9844                   22464611.0824
 -26654615.21948 -20737935.91846  20683121.3754                   20683116.7584
 11  7 25  2 34  0.0000000  0  8G12G09G25G10G17G05G04G02
 -17420434.62548 -13547358.87146  20958602.7814                   20958600.3954
  -3687577.12147  -2842869.51643  24685332.4924                   24685333.0864
   1233821.92247    993747.40644  23170468.0314                   23170468.9104
 -20583285.77348 -16031000.94546  21047919.8834                   21047917.7074
 -30731209.81246 -23915025.70744  23898347.4614                   23898345.8874
 -12773223.64148  -9944813.82846  21297699.4694                   21297696.7664
 -25198911.32847 -19601714.43445  22473217.8524                   22473216.2854
 -26678024.21948 -20756176.68446  20678666.7034                   20678662.0554
 11  7 25  2 34 30.0000000  0  8G12G09G25G10G17G05G04G02
 -17485976.38748 -13598430.34846  20946130.9774                   20946128.1414
  -3639124.96947  -2805114.63743  24694552.6644                   24694553.1844
   1112419.38747    899148.12144  23147366.1334                   23147366.7894
 -20591375.77347 -16037304.82846  21046380.5864                   21046378.1914
 -30702134.94946 -23892369.94944  23903880.9614                   23903878.5204
 -12881715.80948 -10029353.14146  21277053.4774                   21277051.5944
 -25153614.50047 -19566418.20345  22481837.5704                   22481836.0744
 -26701177.66048 -20774218.31646  20674260.6564                   20674256.1254
 11  7 25  2 35  0.0000000  0  8G12G09G25G10G17G05G04G02
 -17550963.59448 -13649069.69946  20933763.9304                   20933761.4454
  -3590688.92647  -2767372.33243  24703769.9614                   24703771.7424
    991354.95747    804812.31344  23124328.2034                   23124328.8094
 -20598844.44948 -16043124.57046  21044959.4534                   21044957.3954
 -30672876.47346 -23869571.13344  23909447.8444                   23909446.1024
 -12989762.38748 -10113545.23046  21256493.0784                   21256490.7424
 -25108248.60547 -19531068.15245  22490469.9534                   22490468.3284
 -26724083.94948 -20792067.35946  20669901.9694                   20669897.0704
 11  7 25  2 35 30.0000000  0  8G12G09G25G10G17G05G04G02
 -17615394.96548 -13699275.94146  20921503.1094                   20921500.4804
  -3542272.28147  -2729645.15243  24712983.0084                   24712985.1804
    870630.87547    710741.73045  23101355.6024                   23101355.9924
 -20605693.52748 -16048461.50046  21043655.8284                   21043653.6884
 -30643434.61746 -23846629.42244  23915049.9924                   23915049.0044
 -13097361.22748 -10197388.43746  21236017.3984                   21236015.0784
 -25062815.44947 -19495665.68745  22499116.1024                   22499114.6374
 -26746744.41448 -20809724.84846  20665590.0474                   20665584.8954
 11  7 25  2 36  0.0000000  0  8G12G09G25G10G17G05G04G02
 -17679266.08248 -13749045.61346  20909348.9924                   20909346.1484
  -3493875.18446  -2691933.23443  24722192.0864                   24722193.7234
    750252.82847    616940.77745  23078448.4844                   23078449.5784
 -20611920.83648 -16053313.94146  21042470.6564                   21042468.4344
 -30613806.05946 -23823542.21544  23920688.7504                   23920687.1134
 -13204507.08248 -10280878.66846  21215628.1254                   21215625.8404
 -25017313.56247 -19460209.66445  22507774.7344                   22507773.6414
 -26769157.17248 -20827189.31246  20661325.0004                   20661320.3874
 11  7 25  2 36 30.0000000  0  8G12G09G25G10G17G05G04G02
 -17742576.63748 -13798378.48846  20897301.3834                   20897298.3164
  -3445501.88745  -2654239.79743  24731397.0634                   24731397.6954
    630222.33247    523410.66445  23055607.1884                   23055607.9694
 -20617528.61748 -16057683.62946  21041403.7664                   21041401.8834
 -30583991.47746 -23800310.05543  23926361.7974                   23926360.1374
 -13311199.02748 -10364015.21146  21195325.3984                   21195323.3014
 -24971745.52347 -19424702.09444  22516445.9844                   22516444.3834
 -26791324.34048 -20844462.41046  20657106.3054                   20657101.6994
 11  7 25  2 37  0.0000000  0  8G12G09G25G10G17G05G04G02
 -17805323.36348 -13847272.00846  20885360.6804                   20885357.9264
  -3397153.07846  -2616565.49243  24740598.0234                   24740599.8914
    510544.34047    430155.20345  23032833.0474                   23032834.3014
 -20622515.53148 -16061569.52746  21040454.6564                   21040452.6134
 -30553988.52346 -23776931.10944  23932071.2114                   23932069.4264
 -13417432.07848 -10446794.16846  21175109.7814                   21175107.6294
 -24926110.33247 -19389142.18745  22525130.2344                   22525128.2544
 -26813244.92648 -20861543.36346  20652935.0784                   20652930.2774
 11  7 25  2 37 30.0000000  0  8G12G09G25G10G17G05G04G02
 -17867507.57048 -13895727.21146  20873527.2974                   20873524.4144
  -3348834.43046  -2578914.72343  24749792.2584                   24749795.6334
    391218.85947    337174.44545  23010125.9064                   23010127.3014
 -20626885.61347 -16064974.78146  21039623.0554                   21039620.6524
 -30523799.77346 -23753407.39544  23937815.8284                   23937814.8164
 -13523206.23048 -10529215.54346  21154981.4064                   21154979.5784
 -24880412.28947 -19353533.29745  22533826.2034                   22533824.3134
 -26834922.50048 -20878434.96146  20648810.1724                   20648805.5004
 11  7 25  2 38  0.0000000  0  8G12G09G25G10G17G05G04G02
 -17929125.35248 -13943741.05146  20861802.3444                   20861799.0164
  -3300546.60545  -2541288.04743  24758980.4534                   24758985.0824
    272250.98847    244472.31645  22987486.6954                   22987487.5784
 -20630637.93048 -16067898.65246  21038909.0084                   21038906.4184
 -30493422.64546 -23729736.91444  23943595.9774                   23943595.3324
 -13628517.07448 -10611275.89546  21134942.0474                   21134939.5824
 -24834650.34447 -19317874.64145  22542534.2814                   22542532.9964
 -26856355.91448 -20895136.30146  20644731.5314                   20644726.5474
 11  7 25  2 38 30.0000000  0  8G12G09G25G10G17G05G04G02
 -17990176.95748 -13991313.70346  20850184.4304                   20850181.3834
  -3252293.93046  -2503688.65643  24768164.2274                   24768166.1844
    153641.87147    152049.73845  22964916.3134                   22964916.5634
 -20633774.94948 -16070343.08246  21038312.2814                   21038310.0234
 -30462858.30546 -23705920.54743  23949413.0314                   23949410.9184
 -13733363.90648 -10692974.68446  21114990.1644                   21114987.9414
 -24788827.17247 -19282168.28145  22551254.0944                   22551252.4964
 -26877547.81648 -20911649.44946  20640698.6484                   20640693.9384
 11  7 25  2 39  0.0000000  0  8G12G09G25G10G17G05G04G02
 -18050663.95348 -14038446.41046  20838674.0004                   20838671.1054
  -3204082.04346  -2466121.00443  24777338.8524                   24777339.5354
     35391.63347     59906.78145  22942414.1644                   22942414.0354
 -20636300.57847 -16072311.10546  21037831.1954                   21037829.2194
 -30432108.91846 -23681959.96943  23955263.4844                   23955262.1294
 -13837746.84048 -10774311.99646  21095126.8914                   21095124.3984
 -24742946.78547 -19246417.30945  22559985.1484                   22559983.4614
 -26898501.44548 -20927976.92646  20636711.2194                   20636706.3444
 11  7 25  2 39 30.0000000  0  8G12G09G25G10G17G05G04G02
 -18110584.15648 -14085137.45346  20827271.5164                   20827268.6254
  -3155912.96146  -2428586.79343  24786505.0554                   24786506.6764
    -82496.38347    -31953.92245  22919980.4844                   22919980.9574
 -20638215.35248 -16073803.11746  21037467.2194                   21037465.0274
 -30401173.79346 -23657854.67243  23961150.6094                   23961149.4454
 -13941662.77048 -10855285.41446  21075352.0164                   21075350.0274
 -24697009.93047 -19210622.35945  22568726.0474                   22568724.6334
 -26919217.37548 -20944119.18746  20632769.1724                   20632764.6844
 11  7 25  2 40  0.0000000  0  8G12G09G25G10G17G05G04G02
 -18169934.79348 -14131384.67646  20815977.4924                   20815974.4144
  -3107788.08646  -2391087.00443  24795663.6644                   24795666.8164
   -200017.81247   -123528.97745  22897616.7664                   22897617.8674
 -20639518.72347 -16074818.72346  21037218.8834                   21037216.5434
 -30370051.01646 -23633603.12144  23967073.4534                   23967071.1994
 -14045107.69948 -10935891.81246  21055667.1174                   21055664.5234
 -24651016.06247 -19174782.97745  22577479.0704                   22577477.3444
 -26939694.97348 -20960075.73846  20628872.9224                   20628868.0474
 11  7 25  2 40 30.0000000  0  8G12G09G25G10G17G05G04G02
 -18228714.43048 -14177186.96946  20804791.9844                   20804789.0634
  -3059710.29347  -2353623.89843  24804812.3984                   24804815.1604
   -317170.11347   -214816.41045  22875323.2974                   22875323.9534
 -20640212.23448 -16075359.11746  21037086.9304                   21037084.8484
 -30338740.50846 -23609205.28544  23973031.5164                   23973029.6254
 -14148079.66848 -11016129.67246  21036072.1414                   21036069.5234
 -24604966.93447 -19138900.53145  22586241.7274                   22586239.8524
 -26959935.58648 -20975847.60946  20625020.2734                   20625015.8984
 11  7 25  2 41  0.0000000  0  8G12G09G25G10G17G05G04G02
 -18286920.77348 -14222542.54746  20793715.6334                   20793712.8134
  -3011681.07447  -2316198.58243  24813952.0784                   24813953.1644
   -433948.95347   -305812.83645  22853100.5474                   22853101.5124
 -20640295.65247 -16075424.10546  21037071.3834                   21037069.2544
 -30307240.51646 -23584659.84444  23979026.0704                   23979024.2344
 -14250574.77748 -11095995.96146  21016568.0944                   21016565.5124
 -24558861.89147 -19102974.52345  22595015.3754                   22595013.6644
 -26979938.44948 -20991434.23846  20621214.2504                   20621209.3674
 11  7 25  2 41 30.0000000  0  7G12G25G10G17G05G04G02
 -18344552.67648 -14267450.51246  20782748.6334                   20782745.7934
   -550352.18047   -396516.55545  22830950.2814                   22830951.1024
 -20639770.58248 -16075014.95346  21037171.0314                   21037168.7114
 -30275551.13346 -23559966.80544  23985056.5004                   23985054.6954
 -14352591.05548 -11175489.12546  20997154.8444                   20997152.5434
 -24512702.78147 -19067006.39144  22603798.9304                   22603797.0514
 -26999705.12548 -21006836.82046  20617452.7194                   20617448.1524
 11  7 25  2 42  0.0000000  0  7G12G25G10G17G05G04G02
 -18401616.10548 -14311915.50446  20771890.0004                   20771887.0664
   -666383.96547   -486930.85945  22808870.2664                   22808870.4494
 -20638645.37147 -16074138.15646  21037385.0634                   21037382.7464
 -30243678.89546 -23535131.29744  23991121.3284                   23991119.7304
 -14454133.24648 -11254612.87146  20977832.2734                   20977829.7424
 -24466497.70747 -19031002.42644  22612591.9774                   22612590.2074
 -27019243.59448 -21022061.58246  20613734.6414                   20613729.8524
 11  7 25  2 42 30.0000000  0  7G12G25G10G17G05G04G02
 -18458098.96548 -14355928.10246  20761141.4384                   20761138.2344
   -782030.60247   -577045.08245  22786863.3444                   22786864.2384
 -20636910.27347 -16072786.12146  21037715.4534                   21037713.3244
 -30211612.72746 -23510144.68743  23997222.7814                   23997221.5434
 -14555188.18448 -11333356.94546  20958601.7664                   20958599.5394
 -24420237.10947 -18994955.20345  22621394.2814                   22621392.8524
 -27038543.72748 -21037100.61346  20610062.1334                   20610057.5164
 11  7 25  2 43  0.0000000  0  7G12G25G10G17G05G04G02
 -18514003.94548 -14399490.41446  20750503.1174                   20750500.1414
   -897293.56247   -666860.33245  22764929.6804                   22764930.0704
 -20634570.90647 -16070963.23446  21038160.2424                   21038158.3954
 -30179356.78946 -23485010.17244  24003361.0394                   24003359.3874
 -14655757.61348 -11411722.69146  20939463.9534                   20939461.7974
 -24373926.26247 -18958868.83645  22630207.3054                   22630205.7424
 -27057610.72348 -21051958.00446  20606433.4144                   20606429.0514
 11  7 25  2 43 30.0000000  0  7G12G25G10G17G05G04G02
 -18569328.12548 -14442600.14546  20739975.6094                   20739972.7154
  -1012168.20347   -756373.02345  22743070.0474                   22743069.3404
 -20631626.64147 -16068668.98846  21038720.8914                   21038718.8324
 -30146908.69146 -23459725.94143  24009536.0784                   24009534.2234
 -14755837.28148 -11489706.81246  20920419.6334                   20920417.2344
 -24327564.44547 -18922742.75445  22639030.0394                   22639028.1294
 -27076443.68048 -21066633.01646  20602849.4304                   20602844.9454
 11  7 25  2 44  0.0000000  0  7G12G25G10G17G05G04G02
 -18624073.20348 -14485258.62546  20729557.6334                   20729554.9964
  -1126654.49647   -845583.09845  22721283.3754                   22721283.2974
 -20628081.38347 -16065906.43046  21039395.1644                   21039393.1334
 -30114270.94946 -23434293.95344  24015746.6724                   24015744.4574
 -14855427.76248 -11567309.74646  20901468.1724                   20901465.8094
 -24281155.40647 -18886579.86744  22647860.8444                   22647859.1254
 -27095046.22348 -21081128.47746  20599309.8204                   20599305.1294
 11  7 25  2 44 30.0000000  0  7G12G25G10G17G05G04G02
 -18678239.99248 -14527466.49646  20719250.1804                   20719247.8554
  -1240751.81647   -934490.06645  22699571.2194                   22699571.9774
 -20623938.95747 -16062678.55146  21040183.7424                   21040181.5234
 -30081445.25046 -23408715.48844  24021993.0944                   24021991.4884
 -14954528.65248 -11644531.18446  20882610.1644                   20882607.6454
 -24234702.34847 -18850382.68744  22656700.9384                   22656699.2384
 -27113421.32048 -21095446.72346  20595813.0474                   20595809.1024
 11  7 25  2 45  0.0000000  0  7G12G25G10G17G05G04G02
 -18731820.68448 -14569217.67246  20709054.2344                   20709051.4144
  -1354450.67647  -1023086.52045  22677935.0704                   22677935.7664
 -20619193.77347 -16058980.98446  21041086.5704                   21041084.1174
 -30048424.91046 -23382985.35944  24028276.7814                   24028275.5004
 -15053130.96148 -11721364.12146  20863846.0554                   20863843.8404
 -24188199.60247 -18814146.77744  22665549.6174                   22665548.3404
 -27131563.14848 -21109583.18446  20592360.7344                   20592356.3324
 11  7 25  2 45 30.0000000  0  7G12G25G10G17G05G04G02
 -18784820.09848 -14610515.89846  20698968.7114                   20698965.7344
  -1467754.13747  -1111374.87945  22656374.1954                   22656375.0594
 -20613853.15648 -16054819.45346  21042102.8984                   21042101.0314
 -30015215.22346 -23357107.69943  24034596.9304                   24034595.2344
 -15151238.66848 -11797811.64546  20845176.9144                   20845174.7974
 -24141654.31647 -18777877.72744  22674407.2974                   22674405.6724
 -27149478.35948 -21123543.06646  20588951.7274                   20588947.0394
 11  7 25  2 46  0.0000000  0  7G12G25G10G17G05G04G02
 -18837242.54348 -14651364.54346  20688993.1564                   20688990.4574
  -1580665.08247  -1199357.37545  22634888.4144                   22634888.7114
 -20607923.85548 -16050199.19546  21043231.0704                   21043228.9304
 -29981821.41446 -23331086.55943  24040951.2664                   24040949.5394
 -15248854.77748 -11873876.11746  20826601.3524                   20826599.2034
 -24095072.94947 -18741580.56644  22683271.2114                   22683270.0474
 -27167173.24648 -21137331.28146  20585584.4224                   20585580.0004
 11  7 25  2 46 30.0000000  0  7G12G25G10G17G05G04G02
 -18889084.38348 -14691760.76246  20679127.6484                   20679125.0234
  -1693178.12147  -1287029.84445  22613477.7734                   22613478.3874
 -20601405.05547 -16045119.60246  21044471.7274                   21044469.7464
 -29948240.52046 -23304919.62543  24047341.0004                   24047339.1484
 -15345974.69548 -11949553.93746  20808119.9534                   20808117.6214
 -24048453.77347 -18705253.94144  22692142.8204                   22692141.0314
 -27184646.55948 -21150946.83646  20582259.1094                   20582254.8484
 11  7 25  2 47  0.0000000  0  7G12G25G10G17G05G04G02
 -18940345.17648 -14731704.21946  20669372.9304                   20669370.0274
  -1805291.56647  -1374390.93045  22592143.2274                   22592143.6134
 -20594299.14147 -16039582.51246  21045823.9454                   21045821.5634
 -29914473.57046 -23278607.73843  24053766.3134                   24053765.3524
 -15442597.22348 -12024844.18046  20789733.3914                   20789730.7274
 -24001799.09447 -18668899.64844  22701020.7274                   22701019.1524
 -27201899.88748 -21164390.98046  20578976.1724                   20578971.4534
 11  7 25  2 47 30.0000000  0  7G12G25G10G17G05G04G02
 -18991019.46548 -14771190.66446  20659729.9224                   20659727.2304
  -1916997.72747  -1461434.65245  22570886.1884                   22570886.0594
 -20586602.79747 -16033585.35546  21047288.2974                   21047286.5124
 -29880515.36346 -23252146.80143  24060229.2034                   24060227.4064
 -15538715.15248 -12099741.23846  20771442.9144                   20771440.3874
 -23955105.01647 -18632514.65244  22709906.5784                   22709904.6954
 -27218929.41848 -21177660.73046  20575734.9694                   20575730.7974
 11  7 25  2 48  0.0000000  0  7G12G25G10G17G05G04G02
 -19041111.00048 -14810223.00046  20650197.8364                   20650195.0354
  -2028298.50047  -1548162.49645  22549706.1094                   22549705.9024
 -20578322.00047 -16027132.77746  21048864.0474                   21048862.3524
 -29846370.22346 -23225540.20343  24066726.8204                   24066725.0124
 -15634330.96948 -12174247.03146  20753247.6414                   20753245.1724
 -23908377.07847 -18596103.27044  22718798.1644                   22718796.7584
 -27235740.43048 -21190760.19946  20572536.4844                   20572531.9494
 11  7 25  2 48 30.0000000  0  7G12G25G10G17G05G04G02
 -19090619.35548 -14848800.93046  20640777.0634                   20640774.2504
  -2139191.92647  -1634572.89845  22528603.6724                   22528603.9574
 -20569458.79347 -16020226.37546  21050550.9064                   21050548.3054
 -29812038.45746 -23198788.17243  24073259.4304                   24073257.6994
 -15729443.05148 -12248360.29746  20735148.2114                   20735145.9414
 -23861616.94547 -18559666.78544  22727696.4694                   22727694.8164
 -27252334.44548 -21203690.59046  20569378.8834                   20569374.5824
 11  7 25  2 49  0.0000000  0  7G12G25G10G17G05G04G02
 -17564125.16048 -13659324.91846  20931258.9844                   20931256.1724
   -674254.95747   -493063.50845  22807372.2034                   22807372.4804
 -18984598.72747 -14785270.46546  21352139.7194                   21352137.5594
 -28202104.35546 -21944294.04743  24379619.5704                   24379618.3244
 -14248629.52748 -11094479.60246  21016937.7114                   21016935.1174
 -22239410.60947 -17295609.88744  23036392.0704                   23036390.4064
 -25693295.27048 -19988854.85246  20866054.1174                   20866049.7384
 11  7 25  2 49 30.0000000  0  7G12G25G10G17G05G04G02
 -17612473.23048 -13696998.72346  20922058.5394                   20922055.8714
   -784334.73447   -578839.90645  22786424.2424                   22786425.0234
 -18974585.03948 -14777467.57045  21354045.1884                   21354042.7114
 -28167407.98446 -21917257.93443  24386222.3594                   24386220.5394
 -14342737.25848 -11167810.26246  20999029.5634                   20999027.2774
 -22192598.34847 -17259132.81644  23045299.8054                   23045298.2274
 -25709467.31648 -20001456.43046  20862976.9064                   20862972.1844
 11  7 25  2 50  0.0000000  0  7G12G25G10G17G05G04G02
 -17660235.50048 -13734216.07046  20912969.8524                   20912966.8594
   -893999.32847   -664292.77345  22765555.8594                   22765556.2504
 -18963994.07848 -14769214.87146  21356060.8204                   21356058.5234
 -28132524.85946 -21890076.27343  24392860.1334                   24392858.2384
 -14436335.43448 -11240743.85946  20981218.1724                   20981215.9924
 -22145757.10247 -17222633.14144  23054213.7194                   23054212.0904
 -25725425.34048 -20013891.22746  20859939.9534                   20859935.1054
 11  7 25  2 50 30.0000000  0  8G12G29G25G10G17G05G04G02
 -17707419.31248 -13770982.66046  20903991.1174                   20903988.0594
  14008580.38356  10938114.30954  24770030.6334                   24770031.5124
  -1003254.37147   -749426.50845  22744765.3834                   22744766.4024
 -18952835.78948 -14760520.09446  21358183.8674                   21358182.0704
 -28097462.80546 -21862755.17244  24399532.5554                   24399530.8524
 -14529429.74248 -11313284.84446  20963503.2974                   20963500.9534
 -22098896.41047 -17186118.31244  23063130.9304                   23063128.9614
 -25741178.49648 -20026166.39846  20856942.1254                   20856937.1954
 11  7 25  2 51  0.0000000  0  8G12G29G25G10G17G05G04G02
 -17754018.18748 -13807293.45746  20895123.6254                   20895120.5514
  13892240.58246  10847460.03543  24747892.6724                   24747892.3404
  -1112091.55147   -834234.62545  22724054.3134                   22724055.0354
 -18941106.18447 -14751380.11745  21360416.2274                   21360413.6684
 -28062215.93446 -21835290.09043  24406239.7504                   24406238.5434
 -14622012.92248 -11385427.53546  20945885.1254                   20945882.8794
 -22052011.25847 -17149584.43044  23072052.6024                   23072051.3984
 -25756722.00848 -20038278.21546  20853984.2344                   20853979.7464
 11  7 25  2 51 30.0000000  0  8G12G29G25G10G17G05G04G02
 -17800038.35948 -13843153.32046  20886366.0234                   20886363.1134
  13775833.03946  10756752.96943  24725740.2584                   24725740.6454
  -1220515.21147   -918720.53145  22703422.1024                   22703422.6024
 -18928813.77347 -14741801.60245  21362755.0234                   21362752.7664
 -28026791.14846 -21807686.33243  24412980.3834                   24412979.1954
 -14714089.75448 -11457175.68046  20928363.1644                   20928361.0554
 -22005109.59847 -17113037.67644  23080978.3054                   23080976.6764
 -25772063.53548 -20050232.63746  20851064.9774                   20851060.2934
 11  7 25  2 52  0.0000000  0  8G12G29G25G10G17G05G04G02
 -17845479.94148 -13878562.33246  20877718.7034                   20877716.0634
  13659357.61745  10665993.00443  24703575.3364                   24703576.8054
  -1328523.54347  -1002882.81245  22682868.7114                   22682869.0474
 -18915960.98447 -14731786.42645  21365200.7424                   21365198.3164
 -27991189.08646 -21779944.46143  24419755.4064                   24419753.3914
 -14805659.48448 -11528528.67646  20910938.2504                   20910935.5204
 -21958193.49246 -17076479.66844  23089905.6334                   23089904.5434
 -25787204.95348 -20062031.12546  20848183.5314                   20848178.9804
 11  7 25  2 52 30.0000000  0  8G12G29G25G10G17G05G04G02
 -17890337.48448 -13913516.24246  20869183.1174                   20869179.7854
  13542819.58646  10575184.34043  24681399.1094                   24681399.9414
  -1436109.48847  -1086715.94545  22662395.6644                   22662395.8954
 -18902545.32048 -14721332.65245  21367754.0554                   21367751.1994
 -27955405.15246 -21752060.87543  24426564.9844                   24426563.1134
 -14896715.38348 -11599481.28946  20893610.9844                   20893608.7114
 -21911259.21146 -17039907.52744  23098837.0784                   23098835.8284
 -25802142.70748 -20073670.92646  20845340.6724                   20845336.2814
 11  7 25  2 53  0.0000000  0  8G12G29G25G10G17G05G04G02
 -17934612.89548 -13948016.54746  20860757.5004                   20860754.3244
  13426217.15646  10484325.47343  24659210.2504                   24659210.7734
  -1543272.89547  -1170219.84045  22642002.7344                   22642003.5474
 -18888570.99647 -14710443.56645  21370413.0784                   21370410.5784
 -27919441.63746 -21724037.38343  24433408.8834                   24433407.2814
 -14987257.59848 -11670033.63746  20876381.1884                   20876378.5124
 -21864309.96946 -17003323.71544  23107771.4064                   23107769.6334
 -25816879.87948 -20085154.41846  20842536.5634                   20842532.1214
 11  7 25  2 53 30.0000000  0  8G12G29G25G10G17G05G04G02
 -17978301.33248 -13982059.47346  20852443.6884                   20852440.9694
  13309555.05946  10393420.07443  24637010.1334                   24637010.5354
  -1650007.36347  -1253389.49645  22621692.0394                   22621691.8444
 -18874035.78547 -14699117.42645  21373179.2034                   21373176.7704
 -27883294.23446 -21695870.57043  24440286.9384                   24440285.4384
 -15077280.93448 -11740181.66046  20859250.6094                   20859247.5044
 -21817343.27346 -16966726.29744  23116708.6644                   23116707.0434
 -25831413.82848 -20096479.56246  20839770.9454                   20839766.1684
 11  7 25  2 54  0.0000000  0  8G12G29G25G10G17G05G04G02
 -18021402.45348 -14015644.75046  20844241.7424                   20844239.2424
  13192833.96146  10302468.64843  24614798.2664                   24614799.3164
  -1756310.28547  -1336222.90245  22601463.5784                   22601463.0984
 -18858941.66047 -14687355.76646  21376051.5314                   21376049.2234
 -27846963.36346 -21667560.83243  24447200.8594                   24447199.1054
 -15166783.10248 -11809923.57846  20842218.5554                   20842216.0634
 -21770359.74646 -16930115.75444  23125649.2344                   23125647.9024
 -25845745.35948 -20107646.97346  20837043.8524                   20837038.7074
 11  7 25  2 54 30.0000000  0  8G12G29G25G10G17G05G04G02
 -18063919.50848 -14048774.90646  20836151.1174                   20836148.3284
  13076050.55546  10211468.71543  24592575.2734                   24592575.4384
  -1862183.00847  -1418721.08645  22581316.1954                   22581315.9264
 -18843294.12147 -14675162.85546  21379029.1094                   21379026.8794
 -27810452.68446 -21639110.94943  24454148.4384                   24454146.2774
 -15255766.20748 -11879261.03146  20825285.7814                   20825282.9924
 -21723364.43447 -16893496.05544  23134592.4304                   23134591.2274
 -25859879.31648 -20118660.43446  20834354.1334                   20834349.4264
 11  7 25  2 55  0.0000000  0  8G12G29G25G10G17G05G04G02
 -18105852.69148 -14081450.10546  20828171.3284                   20828168.6884
  12959204.40246  10120419.85543  24570340.4144                   24570339.7774
  -1967624.14547  -1500882.94545  22561251.7034                   22561252.0234
 -18827096.32848 -14662541.18746  21382111.3444                   21382109.1174
 -27773762.84046 -21610521.46143  24461130.7424                   24461128.2894
 -15344229.59848 -11948193.51646  20808451.5554                   20808448.9144
 -21676359.21147 -16856868.61344  23143537.6094                   23143535.8244
 -25873817.30148 -20129521.18446  20831701.6804                   20831696.8444
 11  7 25  2 55 30.0000000  0  8G12G29G25G10G17G05G04G02
 -18147197.07448 -14113666.49646  20820303.9694                   20820301.1764
  12842301.14546  10029326.50443  24548094.8054                   24548093.0984
  -2072626.60247  -1582702.98445  22541270.1024                   22541270.2814
 -18810345.69147 -14649488.72746  21385299.0394                   21385296.8674
 -27736889.38346 -21581788.89143  24468147.0944                   24468145.3524
 -15432167.09048 -12016716.20746  20791717.7274                   20791714.9454
 -21629340.43747 -16820230.62944  23152484.4694                   23152483.3674
 -25887555.62148 -20140226.35246  20829087.5704                   20829082.8244
 11  7 25  2 56  0.0000000  0  8G12G29G25G10G17G05G04G02
 -18187956.50848 -14145427.07846  20812547.4534                   20812544.7304
  12725337.35246   9938185.94943  24525836.0084                   24525835.6174
  -2177191.92247  -1664182.41045  22521371.8284                   22521372.1884
 -18793048.31247 -14636010.23445  21388590.1724                   21388588.5394
 -27699836.50046 -21552916.48043  24475198.4304                   24475196.1604
 -15519580.86748 -12084830.80546  20775083.4774                   20775080.3984
 -21582313.09047 -16783585.96944  23161433.5704                   23161432.1804
 -25901099.60948 -20150780.09446  20826510.2424                   20826505.4414
 11  7 25  2 56 30.0000000  0  8G12G29G25G10G17G05G04G02
 -18228129.73448 -14176730.87946  20804903.1024                   20804900.2704
  12608313.75046   9846998.83643  24503567.5084                   24503567.3954
  -2281317.37547  -1745319.07445  22501557.1644                   22501557.6804
 -18775205.24647 -14622106.53945  21391985.9614                   21391983.8204
 -27662603.75046 -21523903.93443  24482283.7194                   24482281.1884
 -15606468.77748 -12152535.64146  20758549.0084                   20758546.2194
 -21535277.93047 -16746935.21144  23170384.3204                   23170382.3674
 -25914449.87148 -20161182.87946  20823969.7974                   20823964.7544
 11  7 25  2 57  0.0000000  0  8G12G29G25G10G17G05G04G02
 -18267713.92648 -14207575.69146  20797370.1644                   20797367.3674
  12491233.89146   9755767.86743  24481288.1024                   24481288.4104
  -2384997.88747  -1826109.02345  22481827.7584                   22481828.1884
 -18756816.02047 -14607777.25846  21395485.0864                   21395482.8444
 -27625188.33646 -21494749.09843  24489403.3754                   24489401.2584
 -15692826.38348 -12219827.25446  20742115.6724                   20742113.0394
 -21488233.18047 -16710276.98444  23179336.2974                   23179334.9104
 -25927604.62148 -20171433.30946  20821466.6884                   20821461.5784
 11  7 25  2 57 30.0000000  0  8G12G29G25G10G17G05G04G02
 -18306708.21148 -14237960.83246  20789950.0784                   20789946.9694
  12374099.02346   9664493.96543  24458997.5704                   24458998.4184
  -2488230.68048  -1906550.10545  22462183.3284                   22462183.0044
 -18737882.36347 -14593023.75846  21399088.2664                   21399085.8594
 -27587590.02746 -21465451.73443  24496557.7734                   24496556.3874
 -15778651.92248 -12286704.25846  20725784.0394                   20725780.7814
 -21441179.42647 -16673611.73444  23188290.4454                   23188288.8244
 -25940564.30548 -20181531.73846  20819000.0864                   20818995.4964
 11  7 25  2 58  0.0000000  0  8G12G29G25G10G17G05G04G02
 -18345114.78148 -14267888.02346  20782641.2114                   20782638.1254
  12256907.05146   9573175.59843  24436697.2664                   24436697.2814
  -2591016.12948  -1986642.60945  22442623.9774                   22442623.7624
 -18718409.23047 -14577849.87145  21402793.5474                   21402791.9264
 -27549811.93046 -21436014.24643  24503747.1954                   24503746.0904
 -15863946.24648 -12353167.34046  20709552.8134                   20709550.3484
 -21394120.33247 -16636942.33644  23197245.4144                   23197244.1214
 -25953332.66048 -20191481.08246  20816570.4694                   20816565.6414
 11  7 25  2 58 30.0000000  0  8G12G29G25G10G17G05G04G02
 -18382933.18448 -14297356.90246  20775444.7274                   20775442.0944
  12139659.03546   9481813.51243  24414385.4844                   24414386.0204
  -2693351.45348  -2066384.36745  22423150.0004                   22423149.7034
 -18698398.02747 -14562256.71145  21406601.8054                   21406599.5354
 -27511853.35546 -21406436.11744  24510970.5944                   24510968.8054
 -15948707.52348 -12419215.05546  20693423.0704                   20693420.3754
 -21347056.51246 -16600269.23844  23206201.2814                   23206200.0664
 -25965910.26648 -20201281.78546  20814176.9384                   20814172.0704
 11  7 25  2 59  0.0000000  0  8G12G29G25G10G17G05G04G02
 -18420162.19548 -14326366.50046  20768360.2194                   20768357.3674
  12022355.96946   9390408.51643  24392063.7424                   24392064.1914
  -2795233.98848  -2145773.29745  22403762.2974                   22403761.7384
 -18677850.70347 -14546245.79745  21410511.4144                   21410509.1484
 -27473713.93746 -21376717.09844  24518228.3524                   24518226.3914
 -16032933.70348 -12484845.81246  20677395.2894                   20677392.7464
 -21299988.57847 -16563592.95344  23215157.9614                   23215156.5084
 -25978297.77048 -20210934.35246  20811819.8284                   20811814.9414
 11  7 25  2 59 30.0000000  0  7G12G29G25G10G05G04G02
 -18456806.56248 -14354920.55146  20761386.9384                   20761383.9304
  11904994.61346   9298958.08644  24369730.7274                   24369730.8204
  -2896665.66447  -2224810.89145  22384460.0234                   22384460.3364
 -18656773.32447 -14529821.86746  21414522.5234                   21414520.2194
 -16116627.46948 -12550061.70346  20661468.8284                   20661466.7154
 -21252921.58247 -16526917.40644  23224114.9384                   23224113.2584
 -25990500.14848 -20220442.68046  20809497.5234                   20809492.8754
 11  7 25  3  0  0.0000000  0  7G12G29G25G10G05G04G02
 -18492864.32448 -14383017.49646  20754525.6174                   20754522.9414
  11787576.96947   9207463.81344  24347386.7504                   24347386.3134
  -2997642.65647  -2303494.19945  22365244.7344                   22365245.0904
 -18635166.83647 -14512985.62945  21418634.1484                   21418631.8324
 -16199785.75448 -12614860.34047  20645644.5704                   20645641.8594
 -21205855.16046 -16490242.28543  23233071.4924                   23233069.9924
 -26002517.14848 -20229806.55146  20807210.8914                   20807205.9964
 11  7 25  3  0 30.0000000  0  7G12G29G25G10G05G04G02
 -18528333.73448 -14410655.98846  20747775.8444                   20747772.7544
  11670105.20747   9115927.39843  24325032.3524                   24325031.7384
  -3098161.05547  -2381820.14145  22346117.2034                   22346117.0354
 -18613031.95747 -14495737.67245  21422846.2344                   21422844.1094
 -16282405.64848 -12679239.44946  20629922.1954                   20629920.3134
 -21158788.23046 -16453566.75043  23242027.1884                   23242025.8954
 -26014347.85548 -20239025.26646  20804959.3834                   20804954.9184
 11  7 25  3  1  0.0000000  0  7G12G29G25G10G05G04G02
 -18563209.00848 -14437831.51646  20741139.2504                   20741136.1094
  11552585.75446   9024353.88343  24302669.2034                   24302667.7154
  -3198213.27047  -2459782.84046  22327077.1804                   22327077.6844
 -18590365.04747 -14478075.12145  21427159.8364                   21427157.1564
 -16364480.44548 -12743193.80947  20614304.2664                   20614301.6604
 -21111716.71546 -16416887.66044  23250985.1884                   23250983.3634
 -26025988.10948 -20248095.58246  20802744.2814                   20802739.5314
 11  7 25  3  1 30.0000000  0  7G12G29G25G10G05G04G02
 -18597493.63348 -14464546.80546  20734615.0394                   20734611.7774
  11435015.86746   8932741.03943  24280296.3054                   24280295.6484
  -3297800.72347  -2537383.37945  22308126.8594                   22308127.0164
 -18567172.02347 -14460002.63345  21431572.9384                   21431570.7154
 -16446012.16048 -12806724.98446  20598789.3054                   20598786.7074
 -21064645.15246 -16380208.53543  23259942.2274                   23259941.2384
 -26037442.30148 -20257020.89546  20800564.6954                   20800560.0864
 11  7 25  3  2  0.0000000  0  7G12G29G25G10G05G04G02
 -18631183.80148 -14490798.87546  20728204.3364                   20728201.1884
  11317399.48846   8841091.99243  24257914.7344                   24257914.3984
  -3396917.61748  -2614617.26245  22289265.5704                   22289265.4494
 -18543451.82047 -14441519.35545  21436087.0004                   21436084.7074
 -16526995.85548 -12869829.14146  20583378.4304                   20583376.0984
 -21017570.69147 -16343527.13743  23268900.9304                   23268899.0084
 -26048707.96148 -20265799.31246  20798420.8984                   20798416.4804
 11  7 25  3  2 30.0000000  0  7G12G29G25G10G05G04G02
 -18664281.32448 -14516589.14846  20721905.8204                   20721903.1454
  11199736.05546   8749406.35243  24235523.6724                   24235524.3794
  -3495563.10547  -2691483.82845  22270493.8134                   22270493.9304
 -18519207.97347 -14422628.05545  21440700.3134                   21440697.8834
 -16607431.57048 -12932506.29746  20568072.0704                   20568068.9844
 -20970496.09446 -16306845.64144  23277858.7894                   23277857.2384
 -26059787.44948 -20274432.66846  20796312.6254                   20796308.0824
 11  7 25  3  3  0.0000000  0  7G12G29G25G10G05G04G02
 -18696787.89148 -14541918.93746  20715719.9304                   20715716.7274
  11082024.25446   8657683.02043  24213123.7664                   24213124.1134
  -3593737.01647  -2767982.91845  22251811.5864                   22251812.2814
 -18494444.44147 -14403331.80145  21445412.8754                   21445410.2704
 -16687319.63348 -12994756.71146  20552869.3054                   20552867.0474
 -20923423.86347 -16270165.98444  23286816.5314                   23286814.8634
 -26070683.67248 -20282923.22746  20794239.1094                   20794234.4184
 11  7 25  3  3 30.0000000  0  7G12G29G25G10G05G04G02
 -18728701.66848 -14566786.80946  20709647.3284                   20709644.0554
  10964266.68046   8565923.98444  24190715.0944                   24190715.0474
  -3691435.30948  -2844111.41045  22233220.7894                   22233220.5744
 -18469161.82847 -14383631.06245  21450224.0164                   21450221.6294
 -16766657.44148 -13056578.35946  20537772.1414                   20537769.3554
 -20876353.15647 -16233487.50044  23295773.7814                   23295771.6884
 -26081395.84048 -20291270.36346  20792200.6024                   20792195.8984
 11  7 25  3  4  0.0000000  0  7G12G29G25G10G05G04G02
 -18760024.43748 -14591194.15646  20703686.7894                   20703683.5904
  10846462.51247   8474128.65644  24168297.8364                   24168298.2854
  -3788657.65248  -2919869.03545  22214719.2894                   22214719.7934
 -18443364.52747 -14363529.26645  21455132.8914                   21455130.7114
 -16845445.22348 -13117971.40246  20522779.3364                   20522776.7464
 -20829286.84447 -16196812.43744  23304729.7114                   23304728.2114
 -26091926.59848 -20299476.14546  20790196.7034                   20790191.8054
 11  7 25  3  4 30.0000000  0  7G12G29G25G10G05G04G02
 -18790758.03548 -14615142.41046  20697838.2274                   20697835.1844
  10728610.64847   8382296.16044  24145871.6484                   24145871.9184
  -3885403.78548  -2995255.58645  22196308.8914                   22196309.3444
 -18417056.48047 -14343029.49245  21460139.0944                   21460136.5044
 -16923683.32848 -13178936.13746  20507891.1334                   20507888.5394
 -20782227.43047 -16160142.75844  23313685.1174                   23313682.9964
 -26102278.98848 -20307542.93446  20788226.8914                   20788222.0004
 11  7 25  3  5  0.0000000  0  7G12G29G25G10G05G04G02
 -18820901.58648 -14638630.87946  20692102.1254                   20692099.2194
  10610712.03147   8290427.18844  24123436.4844                   24123435.1764
  -3981670.91048  -3070268.88345  22177990.1484                   22177990.4144
 -18390239.55147 -14322133.18045  21465242.2194                   21465239.9384
 -17001369.88748 -13239471.09846  20493107.5474                   20493104.7584
 -20735175.23847 -16123478.73044  23322638.8444                   23322636.6564
 -26112452.89548 -20315470.65246  20786290.4454                   20786285.5394
 11  7 25  3  5 30.0000000  0  7G12G29G25G10G05G04G02
 -18850458.02748 -14661661.87146  20686477.6174                   20686475.0394
  10492765.41046   8198520.84043  24100991.7814                   24100990.6214
  -4077459.19548  -3144909.05546  22159762.3364                   22159762.8134
 -18362918.45747 -14300844.00445  21470441.3364                   21470438.6094
 -17078506.36348 -13299577.41846  20478429.2504                   20478426.8874
 -20688133.50447 -16086822.81244  23331590.7194                   23331588.6994
 -26122451.62148 -20323261.85946  20784388.0164                   20784383.3834
 11  7 25  3  6  0.0000000  0  7G12G29G25G10G05G04G02
 -18879427.43748 -14684235.42246  20680964.7424                   20680961.9494
  10374771.50446   8106577.65643  24078537.1564                   24078536.9144
  -4172766.74648  -3219174.65646  22141625.7344                   22141626.1134
 -18335095.53147 -14279163.78945  21475736.0394                   21475733.1844
 -17155091.51248 -13359254.12946  20463855.6804                   20463852.7504
 -20641103.12547 -16050175.76244  23340540.1094                   23340538.2894
 -26132276.28148 -20330917.43046  20782518.2504                   20782513.7384
 11  7 25  3  6 30.0000000  0  7G12G29G25G10G05G04G02
 -18907807.76648 -14706349.95346  20675564.2734                   20675561.9804
  10256733.30546   8014599.94543  24056075.8444                   24056075.0554
  -4267589.35548  -3293062.38346  22123581.7274                   22123581.7974
 -18306771.23447 -14257092.88745  21481125.7274                   21481123.3204
 -17231121.95348 -13418498.60246  20449387.6174                   20449384.8834
 -20594082.81246 -16013536.54744  23349488.0234                   23349486.2464
 -26141926.10548 -20338436.76646  20780681.8674                   20780677.0554
 11  7 25  3  7  0.0000000  0  7G12G29G25G10G05G04G02
 -18935602.82848 -14728008.43046  20670274.8754                   20670272.6294
  10138648.09046   7922585.59943  24033604.5314                   24033604.4024
  -4361928.48448  -3366573.36746  22105629.2504                   22105629.6174
 -18277951.49647 -14234635.93745  21486609.5944                   21486607.6764
 -17306600.02348 -13477312.66047  20435024.7584                   20435021.5984
 -20547077.05946 -15976908.68444  23358432.9064                   23358431.6334
 -26151405.38348 -20345823.20746  20778878.0634                   20778873.5864
 11  7 25  3  7 30.0000000  0  7G12G29G25G10G05G04G02
 -18962809.61348 -14749208.51646  20665097.9614                   20665095.4804
  10020519.90246   7830537.78943  24011124.8364                   24011124.7114
  -4455778.85548  -3439703.51245  22087770.2034                   22087770.0984
 -18248635.61747 -14211792.39145  21492188.7034                   21492186.3834
 -17381521.50848 -13535693.00446  20420767.4534                   20420764.3954
 -20500083.32846 -15940290.19944  23367375.6644                   23367373.8984
 -26160711.55948 -20353074.76246  20777107.4304                   20777102.6914
 11  7 25  3  8  0.0000000  0  7G12G29G25G10G05G04G02
 -18989429.33248 -14769951.14546  20660032.4534                   20660029.6174
   9902348.28146   7738456.16043  23988637.4064                   23988638.2664
  -4549139.59848  -3512452.12945  22070004.2664                   22070004.1564
 -18218827.04347 -14188564.92645  21497860.8284                   21497858.8404
 -17455886.59848 -13593639.80946  20406616.1644                   20406613.4574
 -20453103.81647 -15903682.79744  23376314.6174                   23376313.9304
 -26169846.81648 -20360193.12946  20775369.1724                   20775364.4264
 11  7 25  3  8 30.0000000  0  7G12G29G25G10G05G04G02
 -19015458.68748 -14790233.75446  20655079.1024                   20655076.2934
   9784137.75446   7646344.19944  23966143.3444                   23966142.9574
  -4642004.97347  -3584814.72345  22052332.3834                   22052332.7194
 -18188524.50847 -14164952.55145  21503627.2344                   21503625.1134
 -17529690.09848 -13651148.99246  20392571.9304                   20392568.7114
 -20406135.49247 -15867084.11343  23385252.8054                   23385251.1844
 -26178808.40648 -20367176.18046  20773663.5944                   20773658.9414
 11  7 25  3  9  0.0000000  0  7G12G29G25G10G05G04G02
 -19040902.09848 -14810059.78546  20650237.1484                   20650234.2734
   9665885.53546   7554199.76644  23943640.1414                   23943640.1094
  -4734377.00048  -3656792.91845  22034754.6254                   22034754.7114
 -18157734.41847 -14140960.27045  21509486.2974                   21509483.9454
 -17602935.57048 -13708223.36346  20378633.4144                   20378630.9654
 -20359183.21547 -15830497.94144  23394187.9384                   23394185.6604
 -26187601.34848 -20374027.81646  20771990.3594                   20771985.5594
 11  7 25  3  9 30.0000000  0  7G12G29G25G10G05G04G02
 -19065758.49248 -14829428.39546  20645507.4304                   20645504.2504
   9547592.67647   7462023.68444  23921130.4304                   23921129.4344
  -4826253.02348  -3728384.59446  22017271.1884                   22017271.1764
 -18126458.38747 -14116589.31645  21515438.0944                   21515435.6764
 -17675620.50048 -13764860.93746  20364801.8444                   20364799.7034
 -20312247.21947 -15793924.44944  23403118.8674                   23403118.2384
 -26196225.65648 -20380748.04746  20770349.0394                   20770344.4494
 11  7 25  3 10  0.0000000  0  7G12G29G25G10G05G04G02
 -19090026.93448 -14848338.86746  20640889.2504                   20640886.1644
   9429262.39546   7369818.43444  23898612.3594                   23898612.6684
  -4917628.93448  -3799586.57046  21999883.1094                   21999883.1334
 -18094697.02347 -14091840.18445  21521481.7974                   21521479.6024
 -17747742.25048 -13821059.68446  20351077.7894                   20351075.1484
 -20265325.79346 -15757362.29344  23412048.0314                   23412046.8874
 -26204680.43048 -20387336.16446  20768740.3284                   20768735.5784
 11  7 25  3 10 30.0000000  0  7G12G29G25G10G05G04G02
 -19113709.01248 -14866792.42646  20636382.5164                   20636379.1884
   9310894.08646   7277583.56644  23876087.5084                   23876087.8054
  -5008504.28548  -3870398.49646  21982590.2034                   21982589.8284
 -18062454.43747 -14066716.07045  21527617.4774                   21527615.1294
 -17819301.11748 -13876819.80546  20337460.1174                   20337457.3484
 -20218421.50046 -15720813.49244  23420973.8364                   23420972.3674
 -26212968.02748 -20393794.00846  20767163.0234                   20767158.3954
 11  7 25  3 11  0.0000000  0  7G12G29G25G10G05G04G02
 -17561380.74248 -13657185.98046  20931780.7194                   20931777.8094
  10767915.94946   8412925.42244  24153349.8364                   24153349.2304
  -3523450.62548  -2713213.79346  22265186.4064                   22265186.3164
 -16454310.53947 -12813616.91845  21833637.1804                   21833634.6374
 -16314870.54748 -12704536.21947  20623744.0004                   20623741.1764
 -18596113.19946 -14456677.16044  23729688.7504                   23729687.7034
 -24645665.38748 -19172519.21946  21065411.0944                   21065406.6294
 11  7 25  3 11 30.0000000  0  7G12G29G25G10G05G04G02
 -17583889.80548 -13674725.50446  20927497.6094                   20927494.2974
  10649474.82846   8320633.76244  24130810.6954                   24130809.8954
  -3613318.17248  -2783240.41046  22248085.0634                   22248084.7034
 -16421111.84847 -12787747.78145  21839955.2344                   21839952.5084
 -16385300.70348 -12759416.83246  20610341.8204                   20610338.8984
 -18549244.59446 -14420156.16444  23738607.4924                   23738605.7344
 -24653619.91848 -19178717.53946  21063897.1094                   21063892.5474
 11  7 25  3 12  0.0000000  0  7G12G29G25G10G05G04G02
 -17605817.49248 -13691812.01246  20923325.0634                   20923321.5744
  10530994.52346   8228311.60943  24108265.2114                   24108264.1214
  -3702683.17648  -2852875.44146  22231079.7974                   22231079.1334
 -16387443.09447 -12761512.37545  21846362.0474                   21846359.2194
 -16455168.64548 -12813859.35546  20597046.2814                   20597043.4064
 -18502399.18746 -14383653.28544  23747521.2034                   23747520.6054
 -24661413.68048 -19184790.59046  21062414.0864                   21062409.5354
 11  7 25  3 12 30.0000000  0  7G12G29G25G10G05G04G02
 -17627162.85548 -13708444.75446  20919262.6174                   20919259.8874
  10412477.67246   8135960.96943  24085711.5084                   24085711.0394
  -3791542.19548  -2922116.17646  22214169.7814                   22214169.6414
 -16353305.08248 -12734911.31645  21852857.9454                   21852855.3524
 -16524472.10948 -12867862.02746  20583857.6644                   20583855.6054
 -18455576.02747 -14347167.71944  23756432.1954                   23756430.6174
 -24669045.71148 -19190737.60946  21060962.0314                   21060957.2814
 11  7 25  3 13  0.0000000  0  7G12G29G25G10G05G04G02
 -17647920.70348 -13724619.69946  20915312.6174                   20915309.7154
  10293930.39847   8043586.59443  24063152.7894                   24063151.3484
  -3879888.06248  -2990957.06646  22197358.5474                   22197357.8554
 -16318695.28147 -12707942.62545  21859443.7894                   21859441.5704
 -16593205.22348 -12921420.27747  20570778.7034                   20570776.1994
 -18408770.48847 -14310695.86744  23765339.0554                   23765337.5274
 -24676511.79748 -19196555.32846  21059541.1564                   21059536.2034
 11  7 25  3 13 30.0000000  0  7G12G29G25G10G05G04G02
 -17668093.85948 -13740339.03546  20911474.3444                   20911471.3284
  10175351.44947   7951187.57044  24040587.9844                   24040586.0434
  -3967721.07848  -3059398.32446  22180644.2114                   22180643.5664
 -16283618.65247 -12680610.17645  21866118.6094                   21866116.7774
 -16661369.22348 -12974535.05147  20557807.4384                   20557805.1054
 -18361985.65247 -14274240.14843  23774241.9064                   23774239.6884
 -24683814.98448 -19202246.11746  21058151.1724                   21058146.7894
 11  7 25  3 14  0.0000000  0  7G12G29G25G10G05G04G02
 -17687686.02048 -13755605.65246  20907745.4304                   20907742.8874
  10056738.41446   7858761.92244  24018016.4924                   24018014.9844
  -4055042.89548  -3127441.24246  22164027.5864                   22164027.0554
 -16248080.92647 -12652918.44545  21872881.0234                   21872878.6994
 -16728966.85548 -13027208.50447  20544944.1024                   20544941.3094
 -18315225.48047 -14237803.62943  23783140.5394                   23783138.2814
 -24690959.37148 -19207813.16446  21056791.8594                   21056787.1604
 11  7 25  3 14 30.0000000  0  7G12G29G25G10G05G04G02
 -17706696.60248 -13770419.09446  20904128.2734                   20904125.4804
   9938093.56346   7766311.49244  23995439.2274                   23995438.3954
  -4141850.06648  -3195083.16446  22147508.6484                   22147508.0984
 -16212083.14547 -12624868.21945  21879731.3834                   21879728.9654
 -16795995.65648 -13079438.70347  20532188.8984                   20532186.2034
 -18268489.05147 -14201385.62543  23792033.4224                   23792032.3484
 -24697944.36348 -19213256.00446  21055462.3914                   21055457.8324
 11  7 25  3 15  0.0000000  0  7G12G29G25G10G05G04G02
 -17725124.64548 -13784778.60246  20900621.2034                   20900618.5904
   9819419.27047   7673838.11744  23972856.5234                   23972855.3874
  -4228139.43448  -3262321.59046  22131088.5164                   22131087.7974
 -16175626.78547 -12596460.65645  21886669.2344                   21886666.8164
 -16862452.98448 -13131223.60547  20519542.3834                   20519539.8634
 -18221775.93047 -14164985.79343  23800922.2424                   23800921.1884
 -24704769.43748 -19218574.22746  21054163.5394                   21054159.3554
 11  7 25  3 15 30.0000000  0  7G12G29G25G10G05G04G02
 -17742966.83248 -13798681.59046  20897226.1564                   20897223.2624
   9700720.33646   7581345.53544  23950268.1024                   23950267.4344
  -4313905.81248  -3329152.50846  22114767.4304                   22114767.3134
 -16138710.81647 -12567694.96545  21893693.9534                   21893691.3714
 -16928335.16048 -13182560.33247  20507005.3834                   20507002.8674
 -18175083.35946 -14128601.98843  23809808.0864                   23809806.0514
 -24711431.80948 -19223765.66846  21052896.0234                   21052891.1454
 11  7 25  3 16  0.0000000  0  7G12G29G25G10G05G04G02
 -17760226.81248 -13812130.91846  20893941.7034                   20893938.6564
   9581995.45346   7488832.75444  23927675.3914                   23927674.5354
  -4399149.64848  -3395576.23846  22098546.1804                   22098545.9304
 -16101340.01647 -12538574.85245  21900804.9534                   21900802.7854
 -16993643.52748 -13233449.94147  20494577.8594                   20494574.9734
 -18128414.04746 -14092236.27043  23818689.0314                   23818686.8444
 -24717934.84048 -19228832.95746  21051658.5634                   21051653.9614
 11  7 25  3 16 30.0000000  0  7G12G29G25G10G05G04G02
 -17776906.53948 -13825128.10246  20890767.8594                   20890764.7504
   9463244.19547   7396299.36344  23905078.6174                   23905076.9924
  -4483870.69548  -3461592.62146  22082424.2034                   22082424.2154
 -16063518.35547 -12509103.41845  21908002.3134                   21907999.5864
 -17058379.27048 -13283893.35247  20482258.9614                   20482256.0664
 -18081770.21946 -14055890.44143  23827565.0474                   23827562.6764
 -24724280.75448 -19233777.82446  21050450.8524                   21050446.1844
 11  7 25  3 17  0.0000000  0  7G12G29G25G10G05G04G02
 -17793005.09048 -13837672.42246  20887704.0704                   20887701.0204
   9344468.68847   7303747.09844  23882475.1724                   23882474.2424
  -4568065.69548  -3527199.09046  22066402.2974                   22066402.6684
 -16025246.96947 -12479281.54745  21915284.7814                   21915282.9884
 -17122539.79348 -13333888.53147  20470049.3364                   20470046.9384
 -18035150.82846 -14019563.62143  23836436.4924                   23836434.4924
 -24730468.78148 -19238599.66446  21049273.2194                   21049268.9304
 11  7 25  3 17 30.0000000  0  7G12G29G25G10G05G04G02
 -17808523.59048 -13849764.75046  20884751.2504                   20884748.1994
   9225669.14147   7211176.10544  23859868.8984                   23859866.5474
  -4651733.86748  -3592395.03946  22050480.7734                   22050481.2814
 -15986529.88747 -12449112.39845  21922652.8914                   21922650.3594
 -17186125.43448 -13383435.76247  20457949.5944                   20457946.4104
 -17988557.71546 -13983257.31643  23845302.5314                   23845301.1914
 -24736500.52748 -19243299.71946  21048125.3674                   21048120.9654
 11  7 25  3 18  0.0000000  0  7G12G29G25G10G05G04G02
 -17823466.39148 -13861408.48046  20881907.4924                   20881903.9414
   9106843.87547   7118585.01244  23837257.3134                   23837255.3244
  -4734876.86748  -3657181.79346  22034658.7274                   22034658.8914
 -15947372.87147 -12418600.44145  21930103.9144                   21930102.1294
 -17249138.70348 -13432536.98447  20445958.3134                   20445955.7584
 -17941994.74646 -13946974.48443  23854162.7424                   23854161.5904
 -24742380.35248 -19247881.39146  21047006.6484                   21047001.9804
 11  7 25  3 18 30.0000000  0  7G12G29G25G10G05G04G02
 -17837829.89548 -13872600.81246  20879174.8134                   20879170.9104
   8987997.97747   7025977.86744  23814641.4924                   23814639.8674
  -4817488.34448  -3721554.34846  22018938.7664                   22018939.2704
 -15907774.08247 -12387744.25445  21937639.6174                   21937637.2424
 -17311574.71948 -13481188.39847  20434077.0944                   20434074.5274
 -17895457.60946 -13910711.78143  23863019.4064                   23863017.6644
 -24748104.25448 -19252341.56646  21045917.0704                   21045912.8714
 11  7 25  3 19  0.0000000  0  7G12G29G25G10G05G04G02
 -17851622.02348 -13883347.91046  20876549.8524                   20876546.3794
   8869125.41847   6933349.99644  23792020.1884                   23792019.9924
  -4899573.77748  -3785517.00846  22003318.1254                   22003319.0164
 -15867743.25447 -12356551.39845  21945257.1564                   21945254.6024
 -17373439.61748 -13529394.78947  20422304.6564                   20422302.1644
 -17848954.52346 -13874475.61343  23871868.2814                   23871866.5944
 -24753680.32048 -19256686.55546  21044856.1024                   21044851.4184
 11  7 25  3 19 30.0000000  0  7G12G29G25G10G05G04G02
 -17864842.27748 -13893649.39846  20874034.2194                   20874031.0434
   8750228.34846   6840703.03944  23769394.3364                   23769394.4734
  -4981130.29748  -3849067.54346  21987798.9614                   21987798.9264
 -15827281.61347 -12325022.84845  21952956.8594                   21952954.2274
 -17434731.85548 -13577154.94947  20410641.2274                   20410638.4344
 -17802484.71146 -13838265.35244  23880711.5234                   23880709.9344
 -24759108.03148 -19260915.94146  21043823.3204                   21043818.5234
 11  7 25  3 20  0.0000000  0  7G12G29G25G10G05G04G02
 -17877484.69948 -13903500.62546  20871628.2034                   20871625.4304
   8631314.62147   6748043.10244  23746766.3134                   23746765.3444
  -5062149.85248  -3912199.64546  21972381.0864                   21972381.1524
 -15786385.37947 -12293155.66845  21960739.0474                   21960736.4774
 -17495444.58648 -13624463.54347  20399088.0314                   20399085.6414
 -17756042.09046 -13802076.31243  23889548.9844                   23889547.6804
 -24764381.67248 -19265025.27046  21042819.6254                   21042814.7154
 11  7 25  3 20 30.0000000  0  7G12G29G25G10G05G04G02
 -17889552.81248 -13912904.34846  20869331.7274                   20869328.5044
   8512383.09047   6655369.27744  23724134.3834                   23724133.2734
  -5142633.00048  -3974913.77746  21957065.9144                   21957065.6134
 -15745059.77347 -12260953.91045  21968602.8444                   21968600.9694
 -17555579.45748 -13671321.86347  20387644.6414                   20387642.3484
 -17709629.55946 -13765910.71143  23898381.2034                   23898379.4064
 -24769504.32448 -19269016.94546  21041845.1334                   21041840.2544
 11  7 25  3 21  0.0000000  0  7G12G29G25G10G05G04G02
 -17901048.40248 -13921861.94546  20867144.1334                   20867141.4774
   8393433.71547   6562681.56344  23701499.3054                   23701498.4224
  -5222579.29348  -4037209.57446  21941852.5474                   21941852.5164
 -15703308.36347 -12228420.34045  21976547.9924                   21976545.6454
 -17615136.66848 -13717730.06247  20376311.6254                   20376308.4144
 -17663248.91446 -13729769.95343  23907206.9454                   23907205.2974
 -24774477.49248 -19272892.14146  21040898.6644                   21040893.8954
 11  7 25  3 21 30.0000000  0  7G12G29G25G10G05G04G02
 -17911971.35948 -13930373.34046  20865065.8914                   20865062.9384
   8274468.23847   6469981.31344  23678860.6724                   23678859.8984
  -5301986.38748  -4099085.21546  21926741.7274                   21926741.4224
 -15661132.91847 -12195556.35545  21984573.5234                   21984571.8014
 -17674115.43748 -13763687.52047  20365087.9384                   20365085.1374
 -17616899.77746 -13693653.73043  23916027.2734                   23916025.3524
 -24779301.32448 -19276650.97746  21039980.9924                   21039976.0204
 11  7 25  3 22  0.0000000  0  7G12G29G25G10G05G04G02
 -17922328.06648 -13938443.49646  20863094.6334                   20863092.3134
   8155482.71947   6377265.42644  23656218.2034                   23656216.7034
  -5380857.90648  -4160543.52346  21911732.9534                   21911732.7234
 -15618541.49647 -12162368.24645  21992678.8834                   21992676.5394
 -17732520.38748 -13809197.84847  20353973.8524                   20353971.3984
 -17570587.81246 -13657566.46944  23924839.4694                   23924837.9104
 -24783981.96548 -19280298.21946  21039090.0784                   21039085.3714
 11  7 25  3 22 30.0000000  0  7G12G29G25G10G05G04G02
 -17932114.28948 -13946069.13746  20861232.6094                   20861229.5434
   8036483.61747   6284538.94144  23633573.0704                   23633571.3524
  -5459186.99648  -4221579.14846  21896827.3674                   21896827.0904
 -15575531.50847 -12128853.97745  22000863.1724                   22000861.2234
 -17790345.59448 -13854256.42647  20342970.1644                   20342967.1954
 -17524308.29746 -13621504.50843  23933646.7034                   23933644.7934
 -24788514.67648 -19283830.19946  21038227.4144                   21038222.5354
 11  7 25  3 23  0.0000000  0  7G12G29G25G10G05G04G02
 -17941329.96548 -13953250.18046  20859478.9924                   20859475.8134
   7917473.25446   6191803.68844  23610926.0704                   23610924.7504
  -5536971.27348  -4282190.23446  21882025.2274                   21882025.2034
 -15532104.65647 -12095014.87145  22009127.0784                   22009125.0274
 -17847589.80948 -13898862.28147  20332076.9774                   20332073.8484
 -17478061.04746 -13585467.69144  23942446.9534                   23942445.3134
 -24792899.39548 -19287246.86346  21037393.3444                   21037388.2504
 11  7 25  3 23 30.0000000  0  7G12G29G25G10G05G04G02
 -17949978.12548 -13959989.00846  20857832.7974                   20857830.0744
   7798450.26247   6099058.63744  23588277.4224                   23588275.7034
  -5614211.59848  -4342377.46946  21867327.1484                   21867326.9614
 -15488266.44947 -12060855.22745  22017469.3754                   22017466.5004
 -17904255.23448 -13943017.13747  20321293.8984                   20321291.0164
 -17431848.68046 -13549458.05143  23951241.5234                   23951239.3524
 -24797138.96948 -19290550.41046  21036586.2814                   21036581.4844
 11  7 25  3 24  0.0000000  0  7G12G29G25G10G05G04G02
 -17958059.68748 -13966286.32846  20856295.3444                   20856292.3834
   7679415.73447   6006304.58644  23565625.5474                   23565623.4104
  -5690906.41448  -4402139.61346  21852732.6954                   21852732.2114
 -15444018.93447 -12026376.65245  22025889.3364                   22025886.8244
 -17960341.21148 -13986720.47347  20310620.9304                   20310617.9064
 -17385671.61746 -13513475.90243  23960028.0314                   23960026.4024
 -24801234.12548 -19293741.44546  21035806.8984                   21035802.4964
 11  7 25  3 24 30.0000000  0  7G12G29G25G10G05G04G02
 -17965572.15648 -13972140.19146  20854865.5234                   20854862.8014
   7560374.87147   5913545.59444  23542972.8364                   23542971.7734
  -5767050.30548  -4461472.47746  21838242.9614                   21838242.3204
 -15399361.15647 -11991578.37945  22034387.5394                   22034384.7384
 -18015843.55948 -14029969.03547  20300058.9224                   20300056.2384
 -17339526.43446 -13477518.61743  23968809.4774                   23968807.4774
 -24805181.43748 -19296817.25846  21035055.9384                   21035051.2194
 11  7 25  3 25  0.0000000  0  7G12G29G25G10G05G04G02
 -17972519.58248 -13977553.77046  20853543.6954                   20853540.6954
   7441325.92647   5820780.31645  23520318.4534                   23520317.7424
  -5842644.93748  -4520377.34846  21823857.5864                   21823857.1414
 -15354298.91447 -11956464.93745  22042962.1414                   22042959.9264
 -18070764.96148 -14072764.90247  20289607.9924                   20289604.9574
 -17293416.77746 -13441588.99643  23977583.7974                   23977582.1374
 -24808985.01648 -19299781.08246  21034331.8674                   21034327.4574
 11  7 25  3 25 30.0000000  0  7G12G29G25G10G05G04G02
 -17978903.68448 -13982528.38746  20852329.0864                   20852325.9614
   7322268.96147   5728008.78544  23497662.2114                   23497661.2344
  -5917689.76648  -4578853.79746  21809576.8674                   21809576.3674
 -15308835.84847 -11921039.17645  22051613.6564                   22051611.1254
 -18125106.22348 -14115108.72347  20279267.2424                   20279264.1684
 -17247343.85246 -13405687.97343  23986350.6094                   23986349.1054
 -24812646.29348 -19302634.02346  21033635.3444                   21033630.9304
 11  7 25  3 26  0.0000000  0  7G12G29G25G10G05G04G02
 -17984722.01648 -13987062.14846  20851221.8204                   20851219.0744
   7203209.16847   5635235.05144  23475005.8754                   23475004.3834
  -5992179.73448  -4636897.87946  21795401.9064                   21795401.9184
 -15262971.07847 -11885300.39545  22060341.4454                   22060338.8134
 -18178863.25448 -14156997.29747  20269037.4924                   20269034.6454
 -17201304.58646 -13369813.21143  23995111.7424                   23995110.3914
 -24816162.27348 -19305373.73446  21032966.4774                   21032961.6054
 11  7 25  3 26 30.0000000  0  7G12G29G25G10G05G04G02
 -17989982.88348 -13991161.52746  20850220.3594                   20850217.1804
   7084140.93847   5542454.71544  23452347.9694                   23452345.9414
  -6066120.35948  -4694513.90646  21781331.7114                   21781331.1644
 -15216714.12147 -11849256.01645  22069143.8594                   22069141.2504
 -18232042.62548 -14198435.74647  20258917.8674                   20258914.9494
 -17155306.29246 -13333970.35743  24003865.4454                   24003863.4844
 -24819540.46148 -19308006.08246  21032323.4844                   21032318.6294
 11  7 25  3 27  0.0000000  0  7G12G29G25G10G05G04G02
 -17994682.57848 -13994823.62146  20849326.0864                   20849323.0944
   6965069.75447   5449672.09044  23429688.7424                   23429688.1994
  -6139505.92648  -4751697.42646  21767366.8984                   21767366.5594
 -15170063.40247 -11812904.80145  22078021.3524                   22078019.0274
 -18284639.82448 -14239420.55547  20248908.7894                   20248905.9144
 -17109345.08246 -13298156.39143  24012611.7664                   24012609.5824
 -24822776.92648 -19310528.00446  21031707.6804                   21031703.0944
 11  7 25  3 27 30.0000000  0  7G12G29G25G10G05G04G02
 -17998826.85248 -13998052.91846  20848537.3444                   20848534.5594
   6845992.38347   5356884.68844  23407028.9454                   23407028.2384
  -6212339.44948  -4808450.79346  21753507.0944                   21753506.8284
 -15123025.75047 -11776252.07445  22086972.5634                   22086970.4304
 -18336659.10248 -14279955.03547  20239010.0554                   20239007.0004
 -17063425.54746 -13262374.93443  24021349.9064                   24021347.9454
 -24825877.09048 -19312943.70746  21031117.4304                   21031112.8524
 11  7 25  3 28  0.0000000  0  7G12G29G25G10G05G04G02
 -18002410.39148 -14000845.28546  20847855.8284                   20847852.3444
   6726916.78947   5264098.60244  23384370.4844                   23384368.3634
  -6284613.21148  -4864767.97346  21739753.7664                   21739753.3554
 -15075597.88347 -11739295.28945  22095997.3444                   22095994.9884
 -18388093.93448 -14320034.10247  20229222.2344                   20229219.4064
 -17017541.80546 -13226621.32843  24030080.6484                   24030079.1174
 -24828834.82048 -19315248.41446  21030554.9064                   21030549.9454
 11  7 25  3 28 30.0000000  0  7G12G29G25G10G05G04G02
 -18005436.54348 -14003203.32046  20847279.7424                   20847276.4144
   6607841.78947   5171312.99644  23361710.6644                   23361709.3754
  -6356328.10548  -4920649.67246  21726107.0234                   21726106.9264
 -15027784.98047 -11702038.46545  22105096.2034                   22105093.6054
 -18438946.10548 -14359659.14847  20219545.2424                   20219542.4224
 -16971696.55946 -13190897.76243  24038804.0084                   24038803.3134
 -24831653.17248 -19317444.52346  21030018.8134                   21030013.4734
 11  7 25  3 29  0.0000000  0  7G12G29G25G10G05G04G02
 -18007911.53548 -14005131.87546  20846808.8054                   20846805.8524
   6488763.82447   5078525.07845  23339050.7894                   23339049.3794
  -6427487.93448  -4976098.85546  21712565.4614                   21712565.4064
 -14979594.53147 -11664487.44545  22114266.4064                   22114264.0044
 -18489220.78548 -14398834.20347  20209978.0004                   20209975.5904
 -16925895.02346 -13155208.22743  24047520.0864                   24047519.0704
 -24834337.96148 -19319536.55146  21029507.2584                   21029502.7424
